[[{"header":{"parameterUnit":"m.s-1","parameterCategory":1,"la1":30.6,"la2":28.766,"lo1":-90.7593,"lo2":-88.6598,"dy":0.0162,"dx":0.0183,"nx":116,"ny":114,"refTime":"2023-08-27T12:00:00:Z","depth":0,"parameterNumber":2,"parameterNumberName":"U-component_of_WINDS"},"data":[0.0,0.0,0.0,0.0,0.0,0.0,0.0,0.0,0.0,0.0,0.0,0.0,0.0,0.0,0.0,0.0,0.0,0.0,0.0,0.0,0.0,0.0,0.0,0.0,0.0,0.0,0.0,0.0,0.0,0.0,0.0,0.0,0.0,0.0,0.0,0.0,0.0,0.0,0.0,0.0,0.0,0.0,0.0,0.0,0.0,0.0,0.0,0.0,0.0,0.0,0.0,0.0,0.0,0.0,0.0,0.0,0.0,0.0,0.0,0.0,0.0,0.0,0.0,0.0,0.0,0.0,0.0,0.0,0.0,0.0,0.0,0.0,0.0,0.0,0.0,0.0,0.0,0.0,0.0,0.0,0.0,0.0,0.0,0.0,0.0,0.0,0.0,0.0,0.0,0.0,0.0,0.0,0.0,0.0,0.0,0.0,0.0,0.0,0.0,0.0,0.0,0.0,0.0,0.0,0.0,0.0,0.0,0.0,0.0,0.0,0.0,0.0,0.0,0.0,0.0,0.0,0.0,0.0,0.0,0.0,0.0,0.0,0.0,0.0,0.0,0.0,0.0,0.0,0.0,0.0,0.0,0.0,0.0,0.0,0.0,0.0,0.0,0.0,0.0,0.0,0.0,0.0,0.0,0.0,0.0,0.0,0.0,0.0,0.0,0.0,0.0,0.0,0.0,0.0,0.0,0.0,0.0,0.0,0.0,0.0,0.0,0.0,0.0,0.0,0.0,0.0,0.0,0.0,0.0,0.0,0.0,0.0,0.0,0.0,0.0,0.0,0.0,0.0,0.0,0.0,0.0,0.0,0.0,0.0,0.0,0.0,0.0,0.0,0.0,0.0,0.0,0.0,0.0,0.0,0.0,0.0,0.0,0.0,0.0,0.0,0.0,0.0,0.0,0.0,0.0,0.0,0.0,0.0,0.0,0.0,0.0,0.0,0.0,0.0,0.0,0.0,0.0,0.0,0.0,0.0,0.0,0.0,0.0,0.0,0.0,0.0,0.0,0.0,0.0,0.0,0.0,0.0,0.0,0.0,0.0,0.0,0.0,0.0,0.0,0.0,0.0,0.0,0.0,0.0,0.0,0.0,0.0,0.0,0.0,0.0,0.0,0.0,0.0,0.0,0.0,0.0,0.0,0.0,0.0,0.0,0.0,0.0,0.0,0.0,0.0,0.0,0.0,0.0,0.0,0.0,0.0,0.0,0.0,0.0,0.0,0.0,0.0,0.0,0.0,0.0,0.0,0.0,0.0,0.0,0.0,0.0,0.0,0.0,0.0,0.0,0.0,0.0,0.0,0.0,0.0,0.0,0.0,0.0,0.0,0.0,0.0,0.0,0.0,0.0,0.0,0.0,0.0,0.0,0.0,0.0,0.0,0.0,0.0,0.0,0.0,0.0,0.0,0.0,0.0,0.0,0.0,0.0,0.0,0.0,0.0,0.0,0.0,0.0,0.0,0.0,0.0,0.0,0.0,0.0,0.0,0.0,0.0,0.0,0.0,0.0,0.0,0.0,0.0,0.0,0.0,0.0,0.0,0.0,0.0,0.0,0.0,0.0,0.0,0.0,0.0,0.0,0.0,0.0,0.0,0.0,0.0,0.0,0.0,0.0,0.0,0.0,0.0,0.0,0.0,0.0,0.0,0.0,0.0,0.0,0.0,0.0,0.0,0.0,0.0,0.0,0.0,0.0,0.0,0.0,0.0,0.0,0.0,0.0,0.0,0.0,0.0,0.0,0.0,0.0,0.0,0.0,0.0,0.0,0.0,0.0,0.0,0.0,0.0,0.0,0.0,0.0,0.0,0.0,0.0,0.0,0.0,0.0,0.0,0.0,0.0,0.0,0.0,0.0,0.0,0.0,0.0,0.0,0.0,0.0,0.0,0.0,0.0,0.0,0.0,0.0,0.0,0.0,0.0,0.0,0.0,0.0,0.0,0.0,0.0,0.0,0.0,0.0,0.0,0.0,0.0,0.0,0.0,0.0,0.0,0.0,0.0,0.0,0.0,0.0,0.0,0.0,0.0,0.0,0.0,0.0,0.0,0.0,0.0,0.0,0.0,0.0,0.0,0.0,0.0,0.0,0.0,0.0,0.0,0.0,0.0,0.0,0.0,0.0,0.0,0.0,0.0,0.0,0.0,0.0,0.0,0.0,0.0,0.0,0.0,0.0,0.0,0.0,0.0,0.0,0.0,0.0,0.0,0.0,0.0,0.0,0.0,0.0,0.0,0.0,0.0,0.0,0.0,0.0,0.0,0.0,0.0,0.0,0.0,0.0,0.0,0.0,0.0,0.0,0.0,0.0,0.0,0.0,0.0,0.0,0.0,0.0,0.0,0.0,0.0,0.0,0.0,0.0,0.0,0.0,0.0,0.0,0.0,0.0,0.0,0.0,0.0,0.0,0.0,0.0,0.0,0.0,0.0,0.0,0.0,0.0,0.0,0.0,0.0,0.0,0.0,0.0,0.0,0.0,0.0,0.0,0.0,0.0,0.0,0.0,0.0,0.0,0.0,0.0,0.0,0.0,0.0,0.0,0.0,0.0,0.0,0.0,0.0,0.0,0.0,0.0,0.0,0.0,0.0,0.0,0.0,0.0,0.0,0.0,0.0,0.0,0.0,0.0,0.0,0.0,0.0,0.0,0.0,0.0,0.0,0.0,0.0,0.0,0.0,0.0,0.0,0.0,0.0,0.0,0.0,0.0,0.0,0.0,0.0,0.0,0.0,0.0,0.0,0.0,0.0,0.0,0.0,0.0,0.0,0.0,0.0,0.0,0.0,0.0,0.0,0.0,0.0,0.0,0.0,0.0,0.0,0.0,0.0,0.0,0.0,0.0,0.0,0.0,0.0,0.0,0.0,0.0,0.0,0.0,0.0,0.0,0.0,0.0,0.0,0.0,0.0,0.0,0.0,0.0,0.0,0.0,0.0,0.0,0.0,0.0,0.0,0.0,0.0,0.0,0.0,0.0,0.0,0.0,0.0,0.0,0.0,0.0,0.0,0.0,0.0,0.0,0.0,0.0,0.0,0.0,0.0,0.0,0.0,0.0,0.0,0.0,0.0,0.0,0.0,0.0,0.0,0.0,0.0,0.0,0.0,0.0,0.0,0.0,0.0,0.0,0.0,0.0,0.0,0.0,0.0,0.0,0.0,0.0,0.0,0.0,0.0,0.0,0.0,0.0,0.0,0.0,0.0,0.0,0.0,0.0,0.0,0.0,0.0,0.0,0.0,0.0,0.0,0.0,0.0,0.0,0.0,0.0,0.0,0.0,0.0,0.0,0.0,0.0,0.0,0.0,0.0,0.0,0.0,0.0,0.0,0.0,0.0,0.0,0.0,0.0,0.0,0.0,0.0,0.0,0.0,0.0,0.0,0.0,0.0,0.0,0.0,0.0,0.0,0.0,0.0,0.0,0.0,0.0,0.0,0.0,0.0,0.0,0.0,0.0,0.0,0.0,0.0,0.0,0.0,0.0,0.0,0.0,0.0,0.0,0.0,0.0,0.0,0.0,0.0,0.0,0.0,0.0,0.0,0.0,0.0,0.0,0.0,0.0,0.0,0.0,0.0,0.0,0.0,0.0,0.0,0.0,0.0,0.0,0.0,0.0,0.0,0.0,0.0,0.0,0.0,0.0,0.0,0.0,0.0,0.0,0.0,0.0,0.0,0.0,0.0,0.0,0.0,0.0,0.0,0.0,0.0,0.0,0.0,0.0,0.0,0.0,0.0,0.0,0.0,0.0,0.0,0.0,0.0,0.0,0.0,0.0,0.0,0.0,0.0,0.0,0.0,0.0,0.0,0.0,0.0,0.0,0.0,0.0,0.0,0.0,0.0,0.0,0.0,0.0,0.0,0.0,0.0,0.0,0.0,0.0,0.0,0.0,0.0,0.0,0.0,0.0,0.0,0.0,0.0,0.0,0.0,0.0,0.0,0.0,0.0,0.0,0.0,0.0,0.0,0.0,0.0,0.0,0.0,0.0,0.0,0.0,0.0,0.0,0.0,0.0,0.0,0.0,0.0,0.0,0.0,0.0,0.0,0.0,0.0,0.0,0.0,0.0,0.0,0.0,0.0,0.0,0.0,0.0,0.0,0.0,0.0,0.0,0.0,0.0,0.0,0.0,0.0,0.0,0.0,0.0,0.0,0.0,0.0,0.0,0.0,0.0,0.0,0.0,0.0,0.0,0.0,0.0,0.0,0.0,0.0,0.0,0.0,0.0,0.0,0.0,0.0,0.0,0.0,0.0,0.0,0.0,0.0,0.0,0.0,0.0,0.0,0.0,0.0,0.0,0.0,0.0,0.0,0.0,0.0,0.0,0.0,0.0,0.0,0.0,0.0,0.0,0.0,0.0,0.0,0.0,0.0,0.0,0.0,0.0,0.0,0.0,0.0,0.0,0.0,0.0,0.0,0.0,0.0,0.0,0.0,0.0,0.0,0.0,0.0,0.0,0.0,0.0,0.0,0.0,0.0,0.0,0.0,0.0,0.0,0.0,0.0,0.0,0.0,0.0,0.0,0.0,0.0,0.0,0.0,0.0,0.0,0.0,0.0,0.0,0.0,0.0,0.0,0.0,0.0,0.0,0.0,0.0,0.0,0.0,0.0,0.0,0.0,0.0,0.0,0.0,0.0,0.0,0.0,0.0,0.0,0.0,0.0,0.0,0.0,0.0,0.0,0.0,0.0,0.0,0.0,0.0,0.0,0.0,0.0,0.0,0.0,0.0,0.0,0.0,0.0,0.0,0.0,0.0,0.0,0.0,0.0,0.0,0.0,0.0,0.0,0.0,0.0,0.0,0.0,0.0,0.0,0.0,0.0,0.0,0.0,0.0,0.0,0.0,0.0,0.0,0.0,0.0,0.0,0.0,0.0,0.0,0.0,0.0,0.0,0.0,0.0,0.0,0.0,0.0,0.0,0.0,0.0,0.0,0.0,0.0,0.0,0.0,0.0,0.0,0.0,0.0,0.0,0.0,0.0,0.0,0.0,0.0,0.0,0.0,0.0,0.0,0.0,0.0,0.0,0.0,0.0,0.0,0.0,0.0,0.0,0.0,0.0,0.0,0.0,0.0,0.0,0.0,0.0,0.0,0.0,0.0,0.0,0.0,0.0,0.0,0.0,0.0,0.0,0.0,0.0,0.0,0.0,0.0,0.0,0.0,0.0,0.0,0.0,0.0,0.0,0.0,0.0,0.0,0.0,0.0,0.0,0.0,0.0,0.0,0.0,0.0,0.0,0.0,0.0,0.0,0.0,0.0,0.0,0.0,0.0,0.0,0.0,0.0,0.0,0.0,0.0,0.0,0.0,0.0,0.0,0.0,0.0,0.0,0.0,0.0,0.0,0.0,0.0,0.0,0.0,0.0,0.0,0.0,0.0,0.0,0.0,0.0,0.0,0.0,0.0,0.0,0.0,0.0,0.0,0.0,0.0,0.0,0.0,0.0,0.0,0.0,0.0,0.0,0.0,0.0,0.0,0.0,0.0,0.0,0.0,0.0,0.0,0.0,0.0,0.0,0.0,0.0,0.0,0.0,0.0,0.0,0.0,0.0,0.0,0.0,0.0,0.0,0.0,0.0,0.0,0.0,0.0,0.0,0.0,0.0,0.0,0.0,0.0,0.0,0.0,0.0,0.0,0.0,0.0,0.0,0.0,0.0,0.0,0.0,0.0,0.0,0.0,0.0,0.0,0.0,0.0,0.0,0.0,0.0,0.0,0.0,0.0,0.0,0.0,0.0,0.0,0.0,0.0,0.0,0.0,0.0,0.0,0.0,0.0,0.0,0.0,0.0,0.0,0.0,0.0,0.0,0.0,0.0,0.0,0.0,0.0,0.0,0.0,0.0,0.0,0.0,0.0,0.0,0.0,0.0,0.0,0.0,0.0,0.0,0.0,0.0,0.0,0.0,0.0,0.0,0.0,0.0,0.0,0.0,0.0,0.0,0.0,0.0,0.0,0.0,0.0,0.0,0.0,0.0,0.0,0.0,0.0,0.0,0.0,0.0,0.0,0.0,0.0,0.0,0.0,0.0,0.0,0.0,0.0,0.0,0.0,0.0,0.0,0.0,0.0,0.0,0.0,0.0,0.0,0.0,0.0,0.0,0.0,0.0,0.0,0.0,-2.0118,0.0,0.0,0.0,0.0,0.0,0.0,0.0,0.0,0.0,0.0,0.0,0.0,0.0,0.0,0.0,0.0,0.0,0.0,0.0,0.0,0.0,0.0,0.0,0.0,0.0,0.0,0.0,0.0,0.0,0.0,0.0,0.0,0.0,0.0,0.0,0.0,0.0,0.0,-2.7269,-2.8072,-2.868,-2.9049,-2.8753,-2.7896,-2.6588,0.0,0.0,0.0,0.0,0.0,0.0,0.0,0.0,0.0,0.0,0.0,0.0,0.0,0.0,0.0,0.0,0.0,0.0,0.0,0.0,0.0,0.0,0.0,0.0,0.0,0.0,0.0,0.0,0.0,0.0,0.0,0.0,0.0,0.0,0.0,0.0,0.0,0.0,0.0,0.0,0.0,0.0,0.0,0.0,0.0,0.0,0.0,0.0,0.0,0.0,0.0,0.0,0.0,0.0,0.0,0.0,0.0,0.0,0.0,0.0,0.0,0.0,0.0,0.0,0.0,0.0,0.0,0.0,0.0,0.0,0.0,-2.144,0.0,0.0,0.0,0.0,0.0,0.0,0.0,0.0,0.0,0.0,0.0,0.0,0.0,0.0,0.0,0.0,0.0,0.0,0.0,0.0,0.0,0.0,0.0,-2.5703,-2.5703,-2.5703,-2.5702,-2.5701,0.0,0.0,0.0,0.0,0.0,0.0,-2.7059,-2.7896,-2.8311,-2.8254,-2.9107,-2.9873,-3.0528,-3.0511,-2.9259,-2.6982,-2.7582,0.0,0.0,0.0,0.0,0.0,0.0,0.0,0.0,0.0,0.0,0.0,0.0,0.0,0.0,0.0,0.0,0.0,0.0,0.0,0.0,0.0,0.0,0.0,0.0,0.0,0.0,0.0,0.0,0.0,0.0,0.0,0.0,0.0,0.0,0.0,0.0,0.0,0.0,0.0,0.0,0.0,0.0,0.0,0.0,0.0,0.0,0.0,0.0,0.0,0.0,0.0,0.0,0.0,0.0,0.0,0.0,0.0,0.0,0.0,0.0,0.0,0.0,0.0,-2.4183,-2.4265,-2.4254,-2.4254,-2.4275,-2.4314,-2.3872,-2.3614,-2.3497,-2.3307,0.0,0.0,0.0,0.0,0.0,0.0,0.0,0.0,0.0,0.0,0.0,0.0,0.0,0.0,0.0,0.0,0.0,0.0,0.0,0.0,-2.5703,-2.5703,-2.5703,-2.5703,-2.5703,-2.5703,-2.5702,0.0,0.0,0.0,0.0,0.0,-2.8098,-2.8895,-2.9306,-2.9303,-3.0058,-3.0477,-3.0587,-3.0591,-3.0382,-3.0027,-2.9998,-2.9496,-2.8679,0.0,0.0,0.0,0.0,0.0,0.0,0.0,0.0,0.0,0.0,0.0,0.0,0.0,0.0,0.0,0.0,0.0,0.0,0.0,0.0,0.0,0.0,0.0,0.0,0.0,0.0,0.0,0.0,0.0,0.0,0.0,0.0,0.0,0.0,0.0,0.0,0.0,0.0,0.0,0.0,0.0,-2.3948,-2.4046,0.0,0.0,0.0,0.0,0.0,0.0,0.0,0.0,0.0,0.0,0.0,0.0,0.0,-2.5957,-2.6012,-2.61,-2.61,-2.6012,-2.61,-2.611,-2.6064,-2.6064,-2.6064,-2.6075,-2.6056,0.0,-2.3907,-2.3834,0.0,0.0,0.0,0.0,0.0,0.0,0.0,0.0,0.0,0.0,0.0,0.0,0.0,0.0,0.0,0.0,0.0,0.0,0.0,0.0,0.0,-2.5703,-2.5703,-2.5703,-2.5703,-2.5918,-2.6406,-2.6797,0.0,0.0,0.0,-2.9022,-2.904,-2.9855,-3.0281,-3.0281,-3.0569,-3.0708,-3.0708,-3.0639,-3.0607,-3.0603,-3.054,-3.0272,-2.9888,-2.9891,0.0,0.0,0.0,0.0,0.0,0.0,0.0,0.0,0.0,0.0,0.0,0.0,0.0,0.0,0.0,0.0,0.0,0.0,0.0,0.0,0.0,0.0,0.0,0.0,0.0,0.0,0.0,0.0,0.0,0.0,0.0,0.0,0.0,0.0,0.0,0.0,0.0,0.0,0.0,-2.453,-2.4628,-2.5041,-2.5033,-2.5112,0.0,0.0,0.0,0.0,0.0,0.0,0.0,0.0,0.0,-2.6576,-2.6576,-2.6605,-2.6626,-2.6657,-2.6657,-2.6626,-2.6657,-2.6657,-2.6626,-2.6626,-2.6626,-2.6626,-2.6657,-2.6252,-2.5578,-2.546,-2.546,-2.5519,0.0,0.0,0.0,0.0,-2.5726,-2.5736,0.0,0.0,0.0,0.0,0.0,0.0,0.0,0.0,0.0,0.0,0.0,0.0,-2.5702,-2.5703,-2.5703,-2.5702,-2.5898,-2.6308,-2.6953,-2.7422,-2.7949,-2.8594,-2.9473,-2.9922,-2.9921,-3.0566,-3.0898,-3.0897,-3.0853,-3.0829,-3.0828,-3.0711,-3.0647,-3.0642,-3.0626,-3.0564,-3.0525,-3.0514,-3.0479,-3.0381,0.0,0.0,0.0,0.0,0.0,0.0,0.0,0.0,0.0,0.0,0.0,0.0,0.0,0.0,0.0,0.0,0.0,0.0,0.0,0.0,0.0,0.0,0.0,0.0,0.0,0.0,0.0,0.0,0.0,0.0,0.0,0.0,0.0,0.0,0.0,0.0,0.0,-2.5371,-2.5533,-2.6087,-2.6023,-2.6171,0.0,0.0,0.0,0.0,0.0,0.0,-2.7711,-2.774,-2.7832,-2.8025,-2.8036,-2.8054,-2.8025,-2.8056,-2.8056,-2.8025,-2.8054,-2.8036,-2.8025,-2.8025,-2.8025,-2.8025,-2.8036,-2.8067,-2.8032,-2.704,-2.6688,-2.6729,-2.6787,-2.6809,-2.6821,-2.6869,-2.6907,-2.6925,0.0,0.0,0.0,0.0,0.0,0.0,0.0,0.0,0.0,0.0,0.0,-2.5702,-2.5702,-2.5701,-2.57,-2.57,-2.6461,-2.695,-2.6991,-2.8554,-2.9491,-2.953,-3.0371,-3.0839,-3.0837,-3.0877,-3.0898,-3.0898,-3.0898,-3.0898,-3.0898,-3.0828,-3.0796,-3.0774,-3.0667,-3.0603,-3.0593,-3.0525,-3.0491,-3.0491,-3.0451,0.0,0.0,0.0,0.0,0.0,0.0,0.0,0.0,0.0,0.0,0.0,0.0,0.0,0.0,0.0,0.0,0.0,0.0,0.0,0.0,0.0,0.0,0.0,0.0,0.0,0.0,0.0,0.0,0.0,0.0,0.0,0.0,0.0,0.0,0.0,0.0,0.0,0.0,-2.7126,-2.6951,0.0,0.0,0.0,0.0,-2.7933,-2.8714,-2.9484,-3.0179,-3.028,-3.0631,-3.1344,-3.1427,-3.1427,-3.1362,-3.1466,-3.1466,-3.1362,-3.1427,-3.1427,-3.1362,-3.1362,-3.1362,-3.1362,-3.1427,-3.1518,-3.1395,-2.8135,-2.6789,-2.68,-2.681,-2.6849,-2.6907,-2.6907,-2.6907,-2.6925,0.0,0.0,0.0,0.0,0.0,0.0,0.0,0.0,-2.5703,-2.5703,-2.5703,-2.5702,-2.5701,-2.57,-2.5933,-2.6498,-2.6811,-2.7476,-2.8591,-2.9255,-2.9841,-3.0407,-3.1228,-3.1677,-3.1677,-3.1169,-3.115,-3.1679,-3.1679,-3.1952,-3.2519,-3.2473,-3.2462,-3.2461,-3.2374,-3.2339,-3.2266,-3.1062,-3.0564,-3.0564,-3.0568,-3.0563,0.0,0.0,0.0,0.0,0.0,0.0,0.0,0.0,0.0,0.0,0.0,0.0,0.0,0.0,0.0,0.0,0.0,0.0,0.0,0.0,0.0,0.0,0.0,0.0,0.0,0.0,0.0,0.0,0.0,0.0,0.0,0.0,0.0,0.0,0.0,0.0,0.0,-2.8225,-2.8045,0.0,-2.9288,-2.963,-3.0019,-3.0538,-3.0901,-3.1233,-3.1474,-3.1522,-3.1653,-3.1912,-3.1933,-3.1952,-3.1912,-3.1973,-3.1973,-3.1923,-3.2028,-3.2018,-3.1923,-3.2018,-3.2008,-3.1912,-3.1952,-3.1984,-3.1921,-3.072,-2.9914,-2.9438,-2.9438,-2.9081,-2.8576,-2.8662,-2.8643,-2.8595,0.0,0.0,0.0,0.0,0.0,0.0,0.0,0.0,-2.5703,-2.5703,-2.5702,-2.57,-2.5698,-2.5698,-2.6047,-2.6923,-2.7276,-2.8059,-2.9505,-2.9877,-3.0424,-3.1263,-3.1828,-3.2102,-3.2107,-3.1577,-3.1714,-3.2537,-3.2537,-3.283,-3.3396,-3.3398,-3.3394,-3.3394,-3.3356,-3.3328,-3.3251,-3.2029,-3.1332,-3.1057,-3.0746,-3.063,-3.0634,0.0,0.0,0.0,0.0,0.0,0.0,0.0,0.0,0.0,0.0,0.0,0.0,0.0,0.0,0.0,0.0,0.0,0.0,0.0,0.0,0.0,0.0,0.0,0.0,0.0,0.0,0.0,0.0,0.0,0.0,0.0,0.0,0.0,0.0,0.0,-2.8874,-2.9685,-2.9517,-2.9864,-3.1177,-3.1317,-3.1532,-3.2048,-3.2136,-3.243,-3.3053,-3.3072,-3.3346,-3.3904,-3.3923,-3.3923,-3.3923,-3.3923,-3.3923,-3.3923,-3.4007,-3.4017,-3.3923,-3.4007,-3.4017,-3.3923,-3.3923,-3.3961,-3.397,-3.3658,-3.309,-3.2313,-3.1582,-3.0921,-3.0394,-3.048,-3.0442,-3.0404,0.0,0.0,0.0,0.0,0.0,0.0,-2.5703,-2.5703,-2.5702,-2.5702,-2.5698,-2.5694,-2.5694,-2.5729,-2.6097,-2.6957,-2.7835,-2.8715,-2.9579,-3.0439,-3.1258,-3.2057,-3.2074,-3.2076,-3.2142,-3.2119,-3.2548,-3.3432,-3.3432,-3.3451,-3.3471,-3.3471,-3.3471,-3.3471,-3.3476,-3.3474,-3.3474,-3.3379,-3.2861,-3.2004,-3.1135,-3.0759,-3.074,0.0,0.0,0.0,0.0,0.0,0.0,0.0,0.0,0.0,0.0,0.0,0.0,0.0,0.0,0.0,0.0,0.0,0.0,0.0,0.0,0.0,0.0,0.0,0.0,0.0,0.0,0.0,0.0,0.0,0.0,0.0,0.0,0.0,-3.0641,-3.0465,-3.0643,-3.1456,-3.1372,-3.1548,-3.2322,-3.238,-3.2418,-3.2455,-3.2464,-3.3228,-3.4984,-3.5088,-3.5831,-3.746,-3.7517,-3.7517,-3.7517,-3.7517,-3.7517,-3.7517,-3.7498,-3.7498,-3.7517,-3.7498,-3.7498,-3.7517,-3.7517,-3.7581,-3.764,-3.6791,-3.6017,-3.5155,-3.3005,-3.2135,-3.2117,-3.2117,-3.2107,-3.2135,0.0,0.0,0.0,0.0,0.0,0.0,-2.5703,-2.5701,-2.5699,-2.5702,-2.5698,-2.5694,-2.5694,-2.6256,-2.6996,-2.7874,-2.8732,-2.9592,-3.0412,-3.0687,-3.1214,-3.2053,-3.1486,-3.1742,-3.3017,-3.2427,-3.2837,-3.4345,-3.4345,-3.4677,-3.5284,-3.5287,-3.5288,-3.5288,-3.529,-3.529,-3.5231,-3.459,-3.4178,-3.3884,-3.2964,-3.2205,-3.1657,0.0,0.0,0.0,0.0,0.0,0.0,0.0,0.0,0.0,0.0,0.0,0.0,0.0,0.0,0.0,0.0,0.0,0.0,0.0,0.0,0.0,0.0,0.0,0.0,0.0,0.0,0.0,0.0,0.0,0.0,0.0,0.0,-3.1637,-3.1628,-3.1532,-3.1758,-3.2555,-3.2409,-3.2821,-3.4335,-3.4338,-3.4808,-3.6114,-3.6258,-3.6509,-3.7001,-3.702,-3.7231,-3.7691,-3.771,-3.771,-3.771,-3.771,-3.771,-3.771,-3.7817,-3.7817,-3.7718,-3.7817,-3.7809,-3.771,-3.771,-3.7745,-3.7742,-3.7512,-3.7298,-3.6884,-3.4488,-3.3122,-3.2532,-3.2471,-3.2405,-3.2316,0.0,0.0,0.0,0.0,0.0,0.0,-2.5703,-2.5702,-2.5699,-2.5701,-2.5698,-2.5693,-2.5691,-2.647,-2.7348,-2.8225,-2.9104,-2.9944,-3.0742,-3.1133,-3.1407,-3.1543,-3.1776,-3.2364,-3.3383,-3.3263,-3.3868,-3.5237,-3.5237,-3.5491,-3.6,-3.6003,-3.6004,-3.6004,-3.6004,-3.6003,-3.5961,-3.5461,-3.5248,-3.5207,-3.4648,-3.369,-3.2589,-3.2625,-3.2095,-3.1332,-3.1343,-3.1105,-3.0791,-3.0806,0.0,0.0,0.0,0.0,0.0,0.0,0.0,0.0,0.0,0.0,0.0,0.0,0.0,0.0,0.0,0.0,0.0,0.0,0.0,0.0,0.0,0.0,0.0,0.0,-3.2603,-3.2817,-3.3502,-3.2908,-3.2842,-3.4047,-3.4018,-3.4574,-3.6267,-3.6324,-3.6695,-3.7744,-3.7859,-3.8065,-3.85,-3.85,-3.8674,-3.904,-3.9059,-3.9059,-3.9059,-3.9059,-3.9059,-3.9059,-3.9141,-3.9134,-3.9059,-3.9141,-3.9134,-3.9059,-3.9059,-3.9059,-3.902,-3.8654,-3.85,0.0,0.0,0.0,0.0,0.0,-3.4009,-3.3604,0.0,0.0,0.0,0.0,0.0,0.0,-2.5703,-2.5703,-2.5702,-2.57,-2.5696,-2.5692,-2.5707,-2.6567,-2.7465,-2.8225,-2.9181,-3.004,-3.0742,-3.1524,-3.1602,-3.0839,-3.2381,-3.3299,-3.3396,-3.4256,-3.5135,-3.5992,-3.5992,-3.5992,-3.5992,-3.5992,-3.5992,-3.5992,-3.5992,-3.5992,-3.5992,-3.5992,-3.5992,-3.5992,-3.5991,-3.5012,-3.3554,-3.3534,-3.3006,-3.2244,-3.2244,-3.1678,-3.0935,-3.0945,0.0,0.0,0.0,0.0,0.0,0.0,0.0,0.0,0.0,0.0,0.0,0.0,0.0,0.0,0.0,0.0,0.0,0.0,0.0,0.0,0.0,0.0,0.0,0.0,-3.3617,-3.4219,-3.5723,-3.4645,-3.4258,-3.5811,-3.5974,-3.6534,-3.8021,-3.8162,-3.8194,-3.8304,-3.8323,-3.8711,-3.9591,0.0,0.0,0.0,0.0,-4.0797,-4.0797,-4.0797,-4.0797,-4.0797,-4.0797,-4.0797,-4.0797,-4.0797,-4.0797,-4.0797,-4.0797,-4.0797,-4.0739,-3.9965,-3.9655,-3.9527,-3.8318,-3.7844,-3.774,-3.703,-3.6259,-3.5584,0.0,0.0,0.0,0.0,0.0,0.0,-2.5703,-2.5702,-2.57,-2.57,-2.5696,-2.5692,-2.5707,-2.7112,-2.8127,-2.8283,-2.9689,-3.0626,-3.0781,-3.0956,-3.0976,-3.08,-3.1797,-3.2675,-3.3377,-3.4256,-3.5135,-3.5992,-3.5992,-3.5992,-3.5992,-3.5992,-3.5992,-3.5992,-3.5992,-3.5992,-3.5992,-3.5992,-3.5992,-3.5991,-3.5939,-3.5323,-3.4442,-3.4385,-3.3859,-3.3137,-3.3097,-3.2512,-3.1771,-3.1828,-3.1381,-3.0798,-3.0797,-3.0798,0.0,0.0,0.0,0.0,0.0,0.0,0.0,0.0,0.0,0.0,0.0,0.0,0.0,0.0,0.0,0.0,0.0,0.0,0.0,-3.4311,-3.4982,-3.5752,-3.6719,-3.7102,-3.7418,-3.7767,-3.7641,-3.7997,-3.9103,-3.9109,-3.9385,-4.0204,-4.0262,-4.0333,-4.0545,-4.0545,-4.0623,-4.0797,-4.0797,-4.0797,-4.0797,-4.0797,-4.0797,-4.0797,0.0,0.0,-4.0797,-4.0797,-4.0797,-4.0797,-4.0797,-4.0797,-4.0797,-4.0623,-4.0545,-4.0384,-3.8762,-3.8061,-3.7947,-3.7793,-3.7543,-3.7314,0.0,0.0,0.0,0.0,0.0,0.0,-2.5703,-2.5703,-2.5702,-2.5702,-2.5699,-2.5696,-2.5691,-2.7269,-2.8303,-2.8303,-2.9824,-3.08,-3.08,-3.08,-3.08,-3.08,-3.2051,-3.2949,-3.3396,-3.4684,-3.5563,-3.5992,-3.5992,-3.5992,-3.5992,-3.5992,-3.5992,-3.5992,-3.5965,-3.5941,-3.5941,-3.5951,-3.5947,-3.5945,-3.5914,-3.5663,-3.5303,-3.5268,-3.4722,-3.3998,-3.3957,-3.3392,-3.2654,-3.2682,-3.2415,-3.197,-3.1546,-3.1393,-3.1417,0.0,0.0,0.0,0.0,0.0,0.0,0.0,0.0,0.0,0.0,0.0,0.0,0.0,0.0,-3.2982,0.0,0.0,-3.4989,-3.5819,-3.6649,-3.7478,-3.8295,-3.8742,-3.8986,-3.8956,-3.8824,-3.9123,-4.0055,-4.0095,-4.0262,-4.0752,-4.0797,-4.0797,-4.0797,-4.0797,-4.0797,-4.0797,-4.0797,-4.0797,-4.0797,-4.0797,-4.0797,-4.0797,-4.0797,-4.0797,-4.0797,-4.0797,-4.0797,-4.0797,-4.0797,-4.0797,-4.0797,-4.0797,-4.0797,-4.0719,-3.9843,-3.9199,-3.8749,-3.8749,-3.8427,-3.7994,0.0,0.0,0.0,0.0,0.0,0.0,0.0,-2.5703,-2.5703,-2.5702,-2.5701,-2.5699,-2.5694,-2.7251,-2.844,-2.8752,-3.002,-3.08,-3.08,-3.08,-3.08,-3.08,-3.2303,-3.3221,-3.3396,-3.4938,-3.5836,-3.5992,-3.5992,-3.5992,-3.5992,-3.5992,-3.5992,-3.5991,-3.5935,-3.5908,-3.5906,-3.5902,-3.5908,-3.5908,-3.5903,-3.59,-3.59,-3.5894,-3.5443,-3.4842,-3.4837,-3.4269,-3.3535,-3.3526,-3.3438,-3.3187,-3.2464,-3.2254,-3.226,-3.2318,-3.1846,0.0,0.0,0.0,0.0,0.0,0.0,0.0,0.0,0.0,-3.3292,-3.3534,-3.3574,-3.3906,-3.4989,-3.5757,-3.6506,-3.7322,-3.8176,-3.8981,-3.9629,-3.9851,-3.9937,-3.9884,-3.9796,-4.0035,-4.0739,-4.0797,-4.0797,-4.0797,-4.0797,-4.0797,-4.0797,-4.0797,-4.0797,-4.0797,-4.0797,-4.0797,-4.0797,-4.0797,-4.0797,-4.0797,-4.0797,-4.0797,-4.0797,-4.0797,-4.0797,-4.0797,-4.0797,-4.0797,-4.0797,-4.0797,-4.0797,-4.0797,-4.0797,-4.0371,-3.9752,-3.9752,-3.9301,-3.8721,0.0,0.0,0.0,0.0,0.0,0.0,0.0,0.0,-2.5703,-2.5702,-2.5701,-2.5699,-2.5694,-2.7251,-2.8908,-3.039,-3.0683,-3.08,-3.08,-3.08,-3.08,-3.08,-3.1738,-3.2617,-3.3377,-3.4354,-3.5213,-3.5992,-3.5992,-3.5992,-3.5992,-3.5992,-3.5992,-3.5991,-3.5935,-3.5908,-3.5906,-3.5902,-3.5908,-3.5906,-3.5898,-3.5908,-3.5885,-3.5827,-3.5795,-3.5746,-3.5687,-3.5111,-3.4377,-3.4365,-3.3898,-3.3276,-3.3183,-3.3147,-3.3158,-3.3159,-3.3101,-3.3051,-3.3203,-3.3179,-3.3129,-3.3215,-3.3241,-3.3262,0.0,0.0,-3.3594,-3.4384,-3.4547,-3.5039,-3.6639,-3.7009,-3.7358,-3.8211,-3.9097,-3.9683,-3.9783,-4.0395,-4.0856,-4.0848,-4.0728,-4.0682,-4.0784,-4.0797,-4.0797,-4.0797,-4.0797,-4.0797,-4.0797,-4.0797,-4.0797,-4.0797,-4.0797,-4.0797,-4.0797,-4.0797,-4.0797,-4.0797,-4.0797,-4.0797,-4.0797,-4.0797,-4.0797,-4.0797,-4.0797,-4.0797,-4.0797,-4.0797,-4.0797,-4.0797,-4.0797,-4.0739,-4.0642,-4.0642,-4.0584,-4.0507,0.0,0.0,0.0,0.0,0.0,0.0,0.0,0.0,0.0,-2.5703,-2.5702,-2.57,-2.5698,-2.7254,-2.8791,-3.0001,-3.0528,-3.08,-3.08,-3.08,-3.08,-3.08,-3.1621,-3.2265,-3.2636,-3.3983,-3.4881,-3.5232,-3.5758,-3.5992,-3.5992,-3.5992,-3.5992,-3.5991,-3.5923,-3.5907,-3.5904,-3.5853,-3.5849,-3.5849,-3.583,-3.5846,-3.5842,-3.581,-3.5818,-3.5842,-3.5803,-3.5562,0.0,-3.5255,-3.5041,-3.4672,-3.4167,-3.3992,-3.4008,-3.4058,-3.3699,-3.33,-3.3323,-3.3379,-3.3513,-3.4021,-3.4159,-3.4277,-3.4744,-3.4843,-3.5097,-3.5974,-3.6152,-3.6523,-3.7734,-3.8378,-3.8823,0.0,-3.9984,-4.0563,-4.0565,-4.0844,-4.1041,-4.0996,-4.0921,-4.0833,-4.0798,-4.0796,-4.0797,-4.0797,-4.0797,-4.0797,-4.0797,-4.0797,-4.0797,-4.0797,-4.0797,-4.0797,-4.0797,-4.0797,-4.0797,-4.0797,-4.0797,-4.0797,-4.0797,-4.0797,-4.0797,-4.0797,-4.0797,-4.0797,-4.0797,-4.0797,-4.0797,-4.0797,-4.0797,-4.0797,-4.0797,-4.0797,-4.0797,-4.0797,0.0,0.0,0.0,0.0,0.0,0.0,0.0,0.0,0.0,0.0,-2.5702,-2.5798,-2.6031,-2.7196,-2.8381,-2.9495,-3.0138,-3.0567,-3.0781,-3.08,-3.08,-3.08,-3.1407,-3.1856,-3.2091,-3.3339,-3.4217,-3.4705,-3.533,-3.5758,-3.5992,-3.5992,-3.5992,-3.5991,-3.5938,-3.5897,-3.5906,-3.5845,-3.5826,-3.5795,-3.5795,-3.5795,-3.5791,-3.5788,-3.5793,-3.5806,-3.5806,-3.581,-3.5795,-3.5795,-3.5795,-3.5698,-3.5061,-3.4866,-3.4878,-3.4915,-3.45,-3.4014,-3.4025,-3.4052,0.0,-3.4863,-3.5039,-3.5176,-3.5762,-3.6094,-3.6445,-3.7068,-3.7377,-3.7804,-3.8668,-3.9354,-3.9862,-4.0088,-4.0686,-4.1095,-4.1091,-4.1107,-4.1081,-4.1034,-4.0975,-4.0912,-4.0859,-4.0812,-4.0797,-4.0797,-4.0797,-4.0797,-4.0797,-4.1009,-4.1126,-4.1126,-4.1351,-4.1487,-4.1487,-4.1487,-4.1487,-4.1487,-4.1487,-4.1487,-4.1487,-4.1487,-4.1351,-4.1126,-4.1126,-4.1009,-4.0797,-4.0797,-4.0797,-4.0797,-4.0797,-4.0797,-4.0797,-4.0796,-4.079,-4.0797,0.0,0.0,0.0,0.0,0.0,0.0,0.0,0.0,0.0,0.0,0.0,0.0,0.0,-2.7019,-2.7738,-2.9456,-2.9612,-2.9962,-3.0742,-3.08,-3.08,-3.08,-3.0839,-3.1231,-3.2071,-3.215,-3.3007,-3.4705,-3.4725,-3.5174,-3.5992,-3.5992,-3.5992,-3.5991,-3.5935,-3.5895,-3.5908,-3.5895,-3.5857,-3.5795,-3.5795,-3.5795,-3.5791,-3.5788,-3.5803,-3.5803,-3.5803,-3.5797,-3.5795,-3.5795,-3.5795,-3.5795,-3.5775,-3.5756,-3.5756,-3.576,-3.5797,-3.5821,-3.5827,-3.5817,-3.5824,-3.5859,-3.5859,-3.5879,-3.5898,-3.6543,-3.7166,-3.7188,-3.7815,-3.8633,-3.9499,-3.9743,-4.005,-4.0836,-4.1044,-4.1103,-4.1094,-4.1107,-4.1107,-4.1107,-4.1038,-4.0992,0.0,-4.0881,-4.0797,-4.0797,-4.0797,-4.0797,-4.0797,-4.1545,-4.1951,-4.1951,-4.2783,-4.3227,-4.3227,-4.3227,-4.3227,-4.3227,-4.3227,-4.3227,-4.3227,-4.3227,-4.2763,-4.1951,-4.1951,-4.1525,-4.0797,-4.0797,-4.0797,-4.0797,-4.0797,-4.0797,-4.0803,-4.0804,-4.0806,-4.0797,0.0,0.0,0.0,0.0,0.0,0.0,0.0,0.0,0.0,0.0,0.0,0.0,0.0,0.0,0.0,0.0,-2.8929,-2.9709,-2.9982,-3.0509,-3.08,-3.08,-3.08,-3.0937,-3.1231,-3.1797,-3.2384,-3.2968,-3.412,-3.4842,-3.5154,-3.5738,-3.5992,-3.5991,-3.5935,-3.5895,-3.5908,-3.5895,-3.5857,-3.5795,-3.5795,-3.5795,-3.5791,-3.5788,-3.5793,-3.5782,0.0,-3.5722,-3.5732,-3.5788,-3.5765,-3.5732,-3.5788,-3.5793,-3.5797,-3.5791,-3.5815,-3.5836,-3.5883,-3.5897,-3.5908,-3.5902,-3.6336,-3.6766,-3.6766,-3.7448,-3.8201,-3.8746,-3.9071,-3.9532,-4.0393,-4.0588,-4.0677,-4.0954,-4.106,-4.1095,-4.1091,-4.1107,-4.1107,-4.1107,-4.1038,0.0,0.0,0.0,0.0,-4.0798,-4.128,-4.1603,-4.1603,-4.2396,-4.286,-4.286,-4.315,-4.3305,-4.3305,-4.3305,-4.3305,-4.3305,-4.3305,-4.3305,-4.3305,-4.3305,-4.3157,-4.2929,-4.2879,-4.2731,-4.2484,-4.1854,-4.1603,-4.1532,-4.1013,-4.0794,-4.0809,-4.0848,-4.0848,-4.0798,0.0,0.0,0.0,0.0,0.0,0.0,0.0,0.0,0.0,0.0,0.0,0.0,0.0,0.0,0.0,0.0,0.0,-2.8948,-2.9553,-3.0079,-3.0509,-3.0781,-3.08,-3.08,-3.08,-3.1348,-3.1797,-3.2091,-3.3222,-3.3925,-3.4256,-3.5135,-3.5543,-3.5543,-3.5825,-3.5925,-3.5902,-3.5894,-3.5878,-3.5838,-3.5803,-3.5795,-3.5791,-3.5788,-3.5788,0.0,-3.5713,-3.5694,-3.5718,-3.577,-3.577,-3.5742,-3.5788,-3.5808,-3.5803,-3.5797,-3.5801,-3.5818,-3.5859,-3.6086,-3.6336,-3.6333,-3.6987,-3.7628,-3.7628,-3.8309,-3.9075,-3.9601,-3.9933,-4.0314,-4.089,-4.099,-4.1009,-4.0993,-4.1058,-4.1109,-4.1091,-4.1107,-4.1107,-4.1107,-4.1068,-4.1027,0.0,0.0,0.0,-4.1205,-4.1705,-4.2144,-4.2454,-4.3285,-4.3769,-4.3769,-4.404,-4.4194,-4.4194,-4.4194,-4.4194,-4.4194,-4.4194,-4.4194,-4.4194,-4.4194,-4.4066,-4.3833,-4.3815,-4.3621,-4.331,-4.273,-4.2492,-4.2453,-4.1891,-4.1534,-4.1319,-4.1349,-4.117,-4.0859,0.0,0.0,0.0,0.0,0.0,0.0,0.0,0.0,0.0,0.0,0.0,0.0,0.0,0.0,0.0,0.0,0.0,0.0,-2.9417,-2.9573,-2.9962,-3.0761,-3.08,-3.08,-3.08,-3.08,-3.1211,-3.2032,-3.2071,-3.252,-3.3358,-3.4278,-3.4709,-3.4748,-3.5606,-3.5967,-3.5908,-3.5904,-3.5897,-3.5898,-3.5838,-3.5799,-3.5795,-3.5793,-3.5803,-3.5799,-3.5728,-3.5713,-3.5718,-3.5766,-3.5799,-3.5803,-3.5806,-3.5797,-3.5803,-3.5803,-3.5803,-3.5808,-3.581,-3.644,-3.7102,-3.7095,-3.7789,-3.8468,-3.8468,-3.915,-3.9753,-3.9755,-4.0344,-4.0876,-4.0974,-4.0951,-4.0951,-4.0994,-4.1058,-4.1109,-4.1091,-4.1107,-4.1107,0.0,0.0,0.0,0.0,0.0,0.0,-4.2034,0.0,-4.2454,-4.3324,-4.4194,-4.4652,-4.4652,-4.5394,-4.5807,-4.5807,-4.5807,-4.5807,-4.5807,-4.5807,-4.5814,-4.5814,-4.5814,-4.5388,-4.4692,-4.4737,-4.4266,-4.3434,-4.3464,-4.3468,-4.3463,-4.3344,-4.2875,-4.2272,-4.2267,-4.1755,-4.1042,0.0,0.0,0.0,0.0,0.0,0.0,0.0,0.0,0.0,0.0,0.0,0.0,0.0,0.0,0.0,0.0,0.0,0.0,-2.8557,-2.9241,-2.9962,-3.0761,-3.08,-3.08,-3.08,-3.08,-3.0917,-3.1133,-3.1789,-3.2203,-3.2457,-3.3984,-3.4707,-3.4746,-3.5605,-3.5955,-3.5899,-3.5896,-3.5901,-3.5901,-3.5872,-3.5846,-3.5795,-3.581,-3.5806,-3.5801,-3.5775,-3.5766,-3.5761,-3.5737,-3.5766,-3.5803,-3.5808,-3.5808,-3.5803,-3.5801,-3.5806,-3.5806,-3.5795,-3.644,-3.7104,-3.7109,-3.8237,-3.9364,-3.9364,-4.0006,-4.0585,-4.0582,-4.0286,-4.0193,-4.0803,-4.045,0.0,-4.0896,-4.1069,0.0,-4.111,-4.1107,0.0,-4.1107,0.0,-4.1078,-4.103,-4.1603,0.0,0.0,-4.3075,-4.3389,-4.4214,-4.5045,-4.549,-4.549,-4.5691,-4.5807,-4.5807,-4.5807,-4.5807,-4.5807,-4.5861,-4.5867,-4.5886,-4.5935,-4.5836,-4.5642,-4.5659,-4.5523,-4.526,-4.463,-4.4364,-4.4311,-4.3695,-4.3331,-4.3175,-4.3222,-4.2704,-4.1964,0.0,0.0,0.0,0.0,0.0,0.0,0.0,0.0,0.0,0.0,0.0,0.0,0.0,0.0,0.0,0.0,0.0,0.0,0.0,-2.8557,-2.9396,-3.0235,-3.0613,-3.0808,-3.08,-3.0794,-3.0797,-3.0792,-3.1288,-3.1523,-3.1562,-3.2928,-3.3551,-3.3609,-3.4469,-3.4843,-3.4803,-3.4761,-3.4984,0.0,0.0,-3.5521,-3.5801,-3.5834,-3.5834,-3.5791,-3.5808,-3.5799,-3.5799,-3.5766,-3.5775,-3.5793,-3.5803,-3.5799,-3.5803,-3.5797,-3.5801,-3.5801,-3.5791,-3.6712,-3.7664,-3.7664,-3.8965,-4.0228,-4.0228,-4.0305,-4.0364,-4.0364,-3.9703,-3.9276,-3.9723,-3.9758,-3.9857,0.0,0.0,0.0,-4.1091,-4.1107,-4.1107,0.0,-4.1107,0.0,-4.1041,-4.182,-4.2638,0.0,-4.3781,-4.4327,-4.5138,-4.5602,-4.5835,-4.5835,-4.5835,-4.5835,-4.5835,-4.5835,-4.5834,-4.5807,-4.5848,-4.5861,-4.5892,-4.5917,-4.5933,-4.6002,0.0,-4.6002,-4.5963,-4.5502,-4.5313,-4.5279,-4.4778,-4.4403,-4.4128,-4.4114,-4.3596,-4.2868,0.0,0.0,0.0,0.0,0.0,0.0,0.0,0.0,0.0,0.0,0.0,0.0,0.0,0.0,0.0,0.0,0.0,0.0,0.0,0.0,-2.8576,-2.9553,-3.0266,-3.0675,-3.0799,-3.08,-3.0801,-3.0798,-3.08,-3.0795,-3.0814,-3.1692,-3.2101,-3.214,-3.3001,-3.3393,-3.3394,-3.3339,-3.373,-3.4433,-3.4435,-3.4841,-3.5466,0.0,-3.5596,-3.5655,-3.5758,-3.5803,-3.5803,-3.5803,-3.5797,-3.5791,-3.5793,-3.5803,-3.5803,-3.5803,-3.5803,-3.5788,-3.581,-3.6984,-3.8231,-3.8231,-3.9392,-4.0553,-4.0577,-4.0009,-3.9524,-3.9524,-3.8829,-3.827,-3.8387,-3.8912,-3.9422,-3.9662,0.0,-4.0961,-4.1078,-4.1091,-4.1107,-4.1107,-4.1107,-4.1107,-4.1107,-4.1926,-4.2769,-4.3451,-4.437,-4.5195,-4.5885,-4.5904,-4.5904,-4.5904,-4.5904,-4.5904,-4.5904,-4.5904,-4.5873,-4.5834,-4.5841,-4.5874,-4.5904,-4.5861,-4.5917,-4.6002,-4.6007,-4.6012,-4.6017,-4.608,-4.6098,-4.6093,-4.6056,-4.5622,-4.5059,-4.5009,-4.4472,-4.3753,0.0,0.0,0.0,0.0,0.0,0.0,0.0,0.0,0.0,0.0,-2.5218,-2.5694,0.0,0.0,0.0,0.0,0.0,0.0,0.0,0.0,0.0,-2.9534,-2.9681,-3.0064,-3.0783,-3.0801,-3.0791,-3.0793,-3.0798,-3.0803,-3.0817,-3.1695,-3.2093,-3.2132,-3.3009,-3.3395,-3.3395,-3.3398,-3.3432,-3.3535,-3.3533,-3.3606,-3.3731,-3.3748,0.0,0.0,-3.5566,-3.581,-3.581,-3.581,-3.5791,-3.5795,-3.5791,-3.581,-3.581,-3.581,-3.581,-3.5791,-3.5795,-3.6556,-3.7333,-3.7333,-3.8039,-3.8772,-3.8829,-3.8684,0.0,0.0,-3.7935,-3.7547,-3.827,-3.792,-3.8011,-3.9461,-3.9841,-4.0217,-4.0981,-4.11,-4.1107,0.0,-4.1107,-4.1107,-4.1107,-4.2471,0.0,0.0,-4.5048,-4.5951,-4.5972,-4.5986,-4.5986,-4.5986,-4.5986,-4.5986,-4.5986,-4.5986,-4.598,-4.5969,-4.6017,-4.6022,-4.5986,-4.6084,-4.6084,-4.6002,-4.6066,0.0,-4.6084,-4.6093,-4.6098,-4.6098,-4.6146,-4.6049,-4.5896,-4.5944,-4.5413,-4.4676,0.0,0.0,0.0,0.0,0.0,0.0,0.0,-2.2261,-2.2987,-2.3505,-2.4389,-2.5148,-2.5593,-2.5676,-2.5703,0.0,0.0,0.0,0.0,0.0,0.0,0.0,-2.9056,-2.97,-3.0178,-3.0586,-3.0798,-3.08,0.0,-3.0798,-3.0808,-3.122,-3.1427,-3.1447,-3.1856,-3.2041,-3.2058,-3.2058,-3.2289,-3.2679,-3.2687,-3.2928,-3.3301,0.0,0.0,0.0,-3.4839,-3.5119,-3.5193,-3.5646,-3.5806,-3.5795,-3.5801,-3.5806,-3.5795,-3.5801,-3.5806,-3.5795,-3.5795,-3.6451,-3.7102,-3.7102,-3.7705,-3.8317,-3.8345,0.0,0.0,-3.7717,-3.7023,-3.6556,-3.6964,-3.7094,0.0,-3.8269,-3.9156,-3.9917,-4.0357,-4.0808,-4.1107,-4.1107,-4.1107,-4.1107,0.0,-4.2627,-4.3601,-4.3601,-4.5202,-4.6154,-4.6066,-4.6042,-4.6042,-4.6042,-4.6084,-4.6089,-4.6042,-4.6042,-4.6027,-4.6002,-4.6027,-4.6061,-4.6042,-4.6084,-4.6093,-4.6098,-4.6098,-4.613,-4.615,-4.615,-4.6138,-4.6098,-4.6138,-4.6134,-4.6098,-4.6138,-4.5908,-4.5576,0.0,0.0,0.0,0.0,0.0,0.0,0.0,-2.092,-2.1544,-2.225,-2.3318,-2.4258,-2.4946,-2.541,-2.5686,0.0,0.0,0.0,0.0,0.0,0.0,0.0,0.0,0.0,0.0,0.0,0.0,0.0,-3.0801,0.0,0.0,0.0,0.0,0.0,-3.0801,-3.0801,-3.0801,-3.0801,-3.1191,0.0,0.0,-3.2199,0.0,0.0,0.0,0.0,0.0,-3.4247,-3.4384,-3.5259,-3.5519,-3.5553,-3.575,-3.5793,-3.5806,-3.5793,-3.5793,-3.5782,-3.5806,-3.6298,-3.6808,-3.6808,-3.7274,-3.7744,-3.7759,-3.7259,0.0,-3.6824,-3.628,-3.5795,-3.5795,-3.6415,-3.6986,0.0,-3.8512,-3.9583,-3.9775,-4.0557,-4.1094,0.0,-4.1107,0.0,-4.1107,-4.2627,0.0,-4.3601,-4.5202,-4.6185,-4.6115,-4.6111,-4.6111,-4.6111,-4.6162,-4.6165,-4.6111,-4.6111,-4.6093,-4.6037,-4.6037,-4.6071,-4.6093,-4.6066,-4.6089,-4.6185,-4.6111,-4.6142,-4.6196,-4.6162,-4.6138,-4.6093,-4.6084,-4.6089,-4.6098,-4.6098,-4.6142,-4.6199,0.0,0.0,0.0,0.0,0.0,0.0,0.0,-1.8835,-2.0385,-2.0513,-2.1991,-2.3052,-2.3133,-2.4623,-2.5611,0.0,0.0,0.0,0.0,0.0,0.0,0.0,0.0,0.0,0.0,0.0,0.0,0.0,0.0,0.0,0.0,0.0,0.0,0.0,0.0,0.0,-3.0801,-3.0801,0.0,0.0,0.0,0.0,0.0,0.0,0.0,0.0,0.0,-3.3407,-3.3538,-3.4428,0.0,-3.476,-3.5551,-3.5803,-3.5808,-3.5806,0.0,0.0,-3.578,-3.5805,-3.5825,-3.5825,-3.5888,-3.5955,-3.6023,0.0,-3.5858,-3.5903,-3.5853,-3.5795,-3.5795,-3.5927,-3.6287,-3.7067,-3.8007,-3.8895,-3.9696,-4.0557,-4.1106,-4.1091,0.0,0.0,-4.1107,-4.2627,-4.3601,-4.3601,-4.5202,-4.6196,-4.6192,-4.6192,-4.6192,-4.6192,-4.6196,-4.6196,-4.6192,-4.6192,-4.6192,-4.6189,-4.6189,-4.615,-4.6098,-4.6154,-4.615,-4.6102,-4.6098,-4.6142,0.0,-4.6075,-4.6042,-4.6093,-4.6027,-4.6056,-4.6098,-4.6098,-4.6142,-4.6199,0.0,0.0,0.0,0.0,0.0,0.0,-1.7744,-1.8741,-1.9626,-2.0169,-2.1332,-2.2119,-2.2114,-2.3237,-2.4205,-2.4769,0.0,0.0,0.0,0.0,0.0,0.0,0.0,0.0,0.0,0.0,-2.9669,-3.002,0.0,0.0,0.0,0.0,0.0,0.0,0.0,0.0,0.0,-3.0801,0.0,0.0,0.0,0.0,0.0,0.0,0.0,0.0,0.0,0.0,-3.2647,-3.3512,0.0,0.0,-3.4915,-3.5377,0.0,0.0,-3.5751,-3.5713,-3.5773,-3.5747,-3.5708,-3.5704,-3.5693,-3.5716,-3.5728,0.0,-3.5722,-3.5786,-3.5795,-3.5795,-3.5795,-3.5843,-3.6004,-3.636,-3.7147,-3.802,-3.8887,-3.9763,-4.0507,-4.1048,-4.1097,0.0,0.0,0.0,-4.325,-4.4306,-4.5514,-4.6199,-4.6199,-4.6199,-4.6199,-4.6199,-4.6199,-4.6199,-4.6199,-4.6199,-4.6199,-4.6199,-4.6199,-4.6189,-4.6154,-4.6192,-4.6189,-4.6154,-4.6154,-4.6185,0.0,-4.6142,-4.6089,-4.6032,-4.6007,-4.5991,-4.598,-4.598,-4.6017,-4.6084,0.0,0.0,0.0,0.0,0.0,-1.7648,-1.8345,-1.8699,-1.9097,-1.9724,-2.0623,-2.1224,-2.1224,-2.1994,-2.2891,-2.3815,-2.4708,0.0,0.0,0.0,0.0,0.0,0.0,0.0,0.0,0.0,-2.8996,-2.9505,-3.0119,-3.0557,0.0,0.0,0.0,0.0,0.0,0.0,0.0,0.0,0.0,0.0,0.0,0.0,0.0,0.0,0.0,0.0,0.0,0.0,0.0,0.0,0.0,-3.3825,-3.4345,-3.4911,-3.546,-3.5721,-3.5747,-3.5713,-3.5769,-3.5732,-3.5693,-3.5689,-3.5707,-3.5692,0.0,0.0,-3.5747,-3.5786,-3.5795,-3.5803,-3.583,-3.5875,-3.5908,-3.5902,-3.6641,-3.7528,-3.8385,-3.9241,-4.0123,0.0,0.0,-4.1107,0.0,-4.2062,-4.3293,-4.4796,-4.5712,-4.6199,-4.6199,-4.6199,-4.6199,-4.6199,-4.6199,-4.6199,-4.6199,-4.6199,-4.6199,-4.6199,-4.6199,-4.6199,-4.6199,-4.6199,-4.6199,-4.6199,-4.6199,-4.6199,0.0,-4.6154,-4.6093,-4.6022,-4.5986,-4.5969,-4.5964,-4.5964,-4.6002,-4.6071,0.0,0.0,0.0,0.0,0.0,0.0,-1.7583,-1.8282,-1.8824,-1.8892,-1.9727,-2.0308,-2.0308,-2.1082,-2.1957,-2.2848,-2.3763,0.0,0.0,0.0,0.0,0.0,0.0,0.0,0.0,0.0,-2.7843,-2.9502,-2.9513,-2.9944,-3.0801,-3.0801,0.0,0.0,0.0,0.0,0.0,0.0,0.0,0.0,0.0,0.0,0.0,0.0,0.0,0.0,0.0,0.0,0.0,0.0,0.0,0.0,0.0,-3.4503,-3.4681,-3.5542,-3.5747,-3.5708,-3.5708,-3.5708,-3.5707,-3.5707,-3.5707,-3.5693,-3.5699,-3.5747,-3.5808,-3.5791,-3.5795,-3.5823,-3.5897,-3.591,-3.5903,-3.5898,-3.6692,-3.7572,-3.8381,-3.9249,-4.0116,0.0,0.0,-4.1107,-4.1107,-4.2607,-4.3952,-4.4835,-4.5712,0.0,-4.6199,-4.6199,-4.6199,-4.6199,-4.6199,-4.6199,-4.6199,-4.6199,-4.6199,-4.6199,-4.6199,-4.6199,-4.6199,-4.6199,-4.6199,-4.6199,-4.6199,-4.6199,0.0,-4.6066,-4.6032,-4.6084,-4.5958,-4.5986,-4.6093,-4.6093,-4.6142,-4.6196,0.0,0.0,0.0,0.0,0.0,0.0,0.0,-1.9151,-1.9391,-1.9551,-1.9845,-2.0079,-2.0225,-2.0527,-2.1069,-2.1937,-2.333,0.0,0.0,0.0,0.0,0.0,0.0,0.0,0.0,-2.6653,-2.7193,-2.7722,-2.8918,-2.9632,-2.9925,-3.0528,-3.0801,-3.0801,0.0,0.0,0.0,0.0,0.0,0.0,0.0,0.0,0.0,0.0,0.0,0.0,0.0,0.0,0.0,0.0,0.0,0.0,0.0,0.0,0.0,-3.4788,-3.5243,-3.5703,-3.5704,-3.5693,-3.5706,-3.5703,-3.5697,-3.5709,-3.5756,-3.5788,-3.5802,-3.5803,-3.5795,-3.5823,-3.5897,-3.5904,-3.59,-3.5898,-3.6151,-3.6869,0.0,0.0,0.0,-4.0933,-4.1106,-4.1107,0.0,0.0,-4.3718,-4.3994,-4.5377,-4.6199,-4.6199,-4.6199,-4.6199,-4.6199,-4.6199,-4.6199,-4.6199,-4.6199,-4.6199,-4.6199,-4.6199,-4.6199,-4.6199,-4.6199,-4.6199,-4.6199,-4.6199,-4.6199,-4.6196,-4.615,-4.6093,-4.6027,-4.6047,-4.598,-4.5892,-4.5953,-4.598,-4.6002,0.0,0.0,0.0,0.0,0.0,0.0,0.0,-1.9557,-1.9649,-1.9793,-1.9858,-1.9948,-2.006,-2.019,-2.0589,-2.1426,-2.2466,0.0,0.0,0.0,0.0,0.0,0.0,0.0,-2.5667,-2.6154,-2.6567,-2.6905,-2.8327,-2.9184,-2.9515,-3.0392,-3.0801,-3.0801,-3.0801,-3.0801,0.0,0.0,0.0,0.0,0.0,0.0,-3.0808,0.0,0.0,0.0,0.0,0.0,0.0,0.0,0.0,0.0,0.0,0.0,0.0,0.0,-3.4807,-3.5286,-3.5611,-3.5707,-3.5702,-3.5726,-3.5737,0.0,-3.5817,-3.584,-3.5836,-3.5846,-3.5843,-3.5856,-3.5894,-3.5903,-3.5901,-3.5936,-3.5934,-3.6556,0.0,0.0,0.0,-4.0883,0.0,0.0,0.0,-4.2315,-4.325,-4.3582,-4.491,-4.5848,-4.618,-4.6199,-4.6199,-4.6199,-4.6199,-4.6199,-4.6199,-4.6199,-4.6199,-4.6199,-4.6199,-4.6199,-4.6199,-4.6199,-4.6199,-4.6199,-4.6199,-4.6199,0.0,-4.6162,-4.6106,-4.6032,-4.6084,-4.6017,-4.591,-4.5991,-4.6012,-4.6017,0.0,0.0,0.0,0.0,0.0,0.0,0.0,-1.9516,-1.9582,-1.9656,-1.9784,-1.9855,-1.9877,-2.0065,-2.0451,-2.1155,0.0,0.0,0.0,0.0,0.0,0.0,0.0,0.0,-2.5605,-2.5605,-2.6006,-2.6803,-2.7682,-2.8559,-2.9435,-3.0292,-3.0743,-3.0801,-3.0801,-3.0801,-3.0801,0.0,0.0,0.0,0.0,0.0,0.0,0.0,0.0,0.0,0.0,0.0,0.0,0.0,0.0,0.0,0.0,0.0,0.0,0.0,0.0,0.0,0.0,-3.5654,-3.5713,-3.5779,-3.5791,-3.5816,-3.589,-3.5899,0.0,-3.5905,-3.5901,-3.5901,-3.5897,-3.5898,-3.5917,-3.5998,-3.5992,-3.6617,0.0,-3.8651,0.0,0.0,-4.1107,0.0,-4.1107,-4.1828,-4.2646,-4.3445,-4.4364,-4.5244,-4.6063,-4.618,-4.6199,-4.6199,-4.6199,-4.6199,-4.6199,-4.6199,-4.6199,-4.6199,-4.6199,-4.6199,-4.6199,-4.6199,-4.6199,0.0,-4.6199,-4.6199,-4.6196,-4.6138,-4.6098,-4.6098,-4.6122,-4.6098,-4.6098,-4.6181,-4.6192,-4.6192,0.0,0.0,0.0,0.0,0.0,0.0,0.0,0.0,0.0,0.0,-1.9425,-1.9521,-1.9713,-1.9832,-2.002,0.0,0.0,0.0,0.0,0.0,0.0,0.0,0.0,0.0,-2.5593,-2.5593,-2.5693,-2.5912,-2.6775,-2.7642,-2.8518,-2.9392,-3.0158,-3.0801,-3.0801,-3.0801,-3.0801,-3.0801,0.0,0.0,0.0,0.0,0.0,0.0,0.0,0.0,-3.0791,-3.0794,0.0,0.0,0.0,0.0,0.0,0.0,0.0,0.0,-3.3403,-3.4439,-3.4656,0.0,-3.5718,-3.5774,-3.5841,-3.5879,0.0,-3.5906,-3.5898,-3.5895,-3.5899,-3.5901,-3.5897,-3.5898,-3.5917,-3.5998,-3.5992,-3.6596,-3.8287,0.0,0.0,-4.1052,-4.1107,-4.1107,-4.1107,-4.1828,-4.2374,-4.2588,-4.4033,-4.4991,-4.5186,-4.5848,-4.6199,-4.6199,-4.6199,-4.6199,-4.6199,-4.6199,-4.6199,-4.6199,-4.6199,-4.6199,-4.6199,-4.6199,-4.6199,-4.6199,-4.6199,-4.6199,-4.6196,-4.6189,-4.6146,-4.6117,-4.6154,-4.6106,-4.6027,-4.6093,-4.6111,-4.6111,0.0,0.0,0.0,0.0,0.0,0.0,0.0,0.0,0.0,0.0,0.0,-1.9379,-1.9596,-1.9701,0.0,0.0,0.0,0.0,0.0,0.0,0.0,0.0,0.0,-2.5541,-2.5541,-2.5541,-2.5567,-2.5601,-2.647,-2.7342,-2.8218,-2.9097,-2.9964,-3.0801,-3.0801,-3.0801,-3.0801,-3.0801,-3.0808,-3.0802,-3.0806,0.0,0.0,0.0,0.0,0.0,-3.0806,-3.0807,0.0,-3.081,-3.0767,-3.0694,0.0,0.0,0.0,0.0,-3.2807,-3.3907,-3.4337,-3.5053,-3.5709,-3.5777,-3.5851,-3.5895,-3.5899,-3.5893,-3.5895,-3.5893,0.0,-3.591,-3.5936,-3.5952,-3.5969,-3.5995,-3.6341,0.0,0.0,0.0,-4.1109,-4.1091,-4.1107,-4.1107,0.0,-4.1497,-4.1906,-4.2276,-4.3176,-4.4052,-4.4855,-4.5342,-4.579,-4.6199,-4.6199,-4.6199,-4.6199,-4.6199,-4.6199,-4.6199,-4.6199,-4.6199,-4.6199,-4.6199,-4.6199,-4.6199,-4.6199,-4.6199,-4.6199,-4.6199,-4.6185,-4.615,-4.6189,-4.6154,-4.6093,-4.6138,-4.6146,-4.6146,0.0,0.0,0.0,0.0,0.0,0.0,0.0,0.0,0.0,0.0,0.0,0.0,0.0,0.0,0.0,0.0,0.0,0.0,0.0,0.0,0.0,0.0,-2.5412,-2.5507,-2.5505,-2.5505,-2.5538,-2.5586,-2.6326,-2.7218,-2.8193,-2.8958,-2.9847,-3.0801,-3.0801,-3.0801,-3.0801,-3.0801,-3.0808,-3.0802,-3.0792,0.0,0.0,0.0,0.0,0.0,0.0,0.0,0.0,-3.0795,-3.0757,-3.0692,-3.0701,0.0,0.0,0.0,0.0,0.0,-3.4089,-3.4989,-3.5736,-3.5799,-3.5863,-3.5897,-3.5897,-3.5908,-3.5901,0.0,0.0,0.0,-3.5982,-3.5992,0.0,0.0,0.0,0.0,-3.9574,-4.0546,-4.1106,-4.1091,-4.1107,0.0,-4.1107,-4.1107,-4.138,-4.2062,-4.2237,-4.2942,-4.4423,-4.464,-4.5046,-4.5787,-4.5926,-4.6004,-4.6004,-4.6141,-4.6199,-4.6199,-4.6199,-4.6199,-4.6199,-4.6199,-4.6199,-4.6199,0.0,0.0,-4.6199,-4.6199,-4.6199,-4.6199,-4.6199,-4.6199,-4.6199,-4.6199,-4.6199,-4.6199,0.0,0.0,0.0,0.0,0.0,0.0,0.0,0.0,0.0,0.0,0.0,0.0,0.0,0.0,0.0,0.0,0.0,0.0,0.0,0.0,0.0,-2.5137,-2.5406,-2.5492,-2.5499,-2.5499,-2.5503,-2.5526,-2.5716,-2.6581,-2.8123,-2.8308,-2.9262,-3.0801,-3.0801,-3.0801,-3.0801,-3.0801,-3.0808,-3.0802,-3.0804,0.0,0.0,0.0,0.0,0.0,0.0,0.0,0.0,-3.08,-3.0769,-3.0706,-3.0701,0.0,0.0,0.0,0.0,0.0,-3.3388,-3.4617,-3.588,-3.5877,-3.5889,-3.5896,-3.5892,-3.5898,-3.5896,0.0,0.0,0.0,0.0,-3.5992,-3.5992,0.0,0.0,-3.8651,0.0,0.0,-4.1091,-4.111,0.0,-4.1107,-4.1107,-4.1107,-4.1146,-4.1263,-4.1926,-4.2413,-4.2685,-4.3406,-4.3854,-4.3991,-4.4715,-4.5108,-4.5108,-4.5829,-4.6199,-4.6199,-4.6199,-4.6199,-4.6199,-4.6199,-4.6199,-4.6199,0.0,-4.6199,-4.6199,-4.6199,-4.6199,-4.6199,-4.6199,-4.6199,-4.6199,-4.6199,-4.6199,-4.6199,0.0,0.0,0.0,0.0,0.0,0.0,0.0,0.0,0.0,0.0,0.0,0.0,0.0,0.0,0.0,0.0,0.0,0.0,0.0,0.0,-2.3424,-2.5182,-2.54,-2.5507,-2.5507,-2.5495,-2.5506,-2.5506,-2.5579,-2.6485,-2.8179,-2.9151,-3.0022,-3.0801,-3.0801,-3.0801,-3.0801,-3.0801,-3.0804,-3.0791,0.0,0.0,0.0,0.0,0.0,0.0,0.0,0.0,0.0,0.0,-3.0778,-3.074,-3.072,0.0,0.0,0.0,0.0,0.0,-3.3261,-3.4555,-3.5903,-3.5907,-3.5897,-3.5898,-3.5905,-3.5908,-3.5894,0.0,0.0,0.0,0.0,0.0,-3.6302,-3.7209,0.0,-3.897,-4.0301,-4.086,-4.1107,0.0,0.0,-4.1107,-4.1107,-4.1107,-4.1107,-4.1107,-4.1438,-4.1848,-4.2276,-4.2685,-4.3114,-4.3582,-4.3994,-4.4208,-4.4208,-4.4598,-4.526,-4.6199,-4.6199,-4.6199,-4.6199,-4.6199,-4.6199,-4.6199,0.0,-4.6199,-4.6199,-4.6199,-4.6199,-4.6199,-4.6199,-4.6199,-4.6199,-4.6199,-4.6199,-4.6199,0.0,0.0,0.0,0.0,0.0,0.0,0.0,0.0,0.0,0.0,0.0,0.0,0.0,0.0,0.0,0.0,0.0,0.0,0.0,-2.2579,-2.3486,-2.522,-2.5436,-2.5507,-2.5507,-2.5494,-2.5495,-2.5495,-2.5563,-2.6488,-2.8245,-2.9976,-3.0801,-3.0801,-3.0801,-3.0801,-3.0801,-3.0801,-3.0801,-3.0806,0.0,0.0,0.0,0.0,0.0,0.0,0.0,0.0,0.0,0.0,0.0,0.0,0.0,0.0,0.0,-3.0706,-3.1926,-3.3301,-3.3316,-3.4602,-3.5923,-3.5918,-3.5918,-3.5897,-3.5897,-3.5898,-3.5898,-3.5898,0.0,0.0,0.0,-3.6166,0.0,-3.8268,-3.8663,-3.9332,-4.0877,-4.1107,-4.1107,-4.1107,-4.1107,-4.1107,-4.1107,-4.1107,-4.1107,-4.1107,-4.1107,-4.1361,-4.1984,-4.2023,-4.2315,-4.2997,-4.3192,-4.3309,-4.3309,-4.3504,-4.4263,-4.5592,-4.5809,-4.5907,-4.5907,-4.6102,-4.6199,-4.6199,-4.6199,-4.6199,-4.6199,-4.6199,-4.6199,-4.6199,-4.6199,-4.6199,-4.6199,-4.6199,-4.6199,-4.6199,0.0,0.0,0.0,0.0,0.0,0.0,0.0,0.0,0.0,0.0,0.0,0.0,0.0,0.0,0.0,0.0,0.0,0.0,0.0,-2.262,-2.3543,-2.524,-2.5436,-2.5507,-2.5507,-2.5494,-2.5495,-2.5495,-2.5563,-2.6495,-2.8247,-2.9981,-3.0801,-3.0801,-3.0801,-3.0801,-3.0801,-3.0801,-3.0808,-3.0798,-3.0808,0.0,0.0,0.0,0.0,0.0,0.0,0.0,0.0,0.0,0.0,0.0,0.0,0.0,-3.0708,-3.0699,-3.1921,-3.3319,-3.3378,-3.4668,-3.5996,-3.5984,-3.5957,-3.5897,-3.5897,-3.5894,-3.5898,-3.5898,0.0,0.0,0.0,-3.6668,-3.7498,-3.8363,-3.919,-4.0034,-4.0974,0.0,-4.1107,-4.1107,-4.1107,-4.1107,-4.1107,-4.1107,-4.1107,-4.1107,-4.1107,-4.1127,-4.1185,-4.1185,-4.1224,-4.1283,-4.2003,-4.2393,-4.2393,-4.3192,-4.3659,-4.3796,-4.4618,-4.4991,-4.503,-4.5829,-4.6199,-4.6199,-4.6199,-4.6199,-4.6199,-4.6199,-4.6199,-4.6199,-4.6199,-4.6199,-4.6199,-4.6199,-4.6199,-4.6199,0.0,0.0,0.0,0.0,0.0,0.0,0.0,0.0,0.0,0.0,0.0,0.0,0.0,0.0,0.0,0.0,0.0,0.0,0.0,-2.2681,-2.3583,-2.5359,-2.5464,-2.549,-2.549,-2.5548,-2.5556,-2.5557,-2.6666,-2.7541,-2.8249,-2.9983,-3.0801,-3.0801,-3.0801,-3.0801,-3.0801,-3.0801,-3.0804,-3.0808,-3.0793,-3.08,0.0,0.0,0.0,0.0,0.0,0.0,0.0,0.0,-3.083,-3.0858,-3.0819,-3.0772,-3.0762,-3.0769,-3.2005,-3.3378,-3.3394,-3.4647,-3.5957,-3.598,-3.5955,-3.5916,-3.5956,-3.5952,-3.5967,-3.5967,-3.5977,0.0,0.0,0.0,-3.7693,-3.9073,-3.9586,-4.0103,-4.0974,-4.1107,-4.1107,-4.1107,-4.1107,-4.1107,-4.1107,-4.1107,-4.1107,-4.1107,-4.1107,-4.1107,-4.1107,-4.1107,-4.1107,-4.1107,-4.14,-4.1555,-4.1555,-4.1887,-4.2042,-4.2062,-4.3448,-4.4091,-4.4091,-4.4423,-4.4579,-4.4579,-4.4579,-4.489,-4.54,-4.54,-4.5712,-4.6199,-4.6199,-4.6199,-4.6199,-4.6199,-4.5868,-4.54,0.0,0.0,0.0,0.0,0.0,0.0,0.0,0.0,0.0,0.0,0.0,0.0,0.0,0.0,0.0,0.0,0.0,0.0,-2.2488,-2.2741,-2.3631,-2.543,-2.5494,-2.5502,-2.5531,-2.5582,-2.5607,-2.5608,-2.7344,-2.8191,-2.8249,-2.9983,-3.0801,-3.0801,-3.0806,-3.0804,-3.0801,-3.0806,-3.0806,-3.0808,-3.0793,-3.08,0.0,0.0,0.0,0.0,0.0,0.0,0.0,0.0,-3.0823,-3.0869,-3.082,-3.0801,-3.08,-3.0801,-3.2031,-3.3397,-3.3403,-3.4638,-3.5933,-3.5998,-3.5966,-3.5933,-3.5996,-3.5992,-3.5992,-3.5992,-3.622,-3.6561,-3.7097,0.0,0.0,0.0,-4.0028,-4.0429,-4.101,-4.1107,-4.1107,-4.1107,-4.1107,-4.1107,-4.1107,-4.1107,-4.1107,-4.1107,-4.1107,-4.1107,-4.1107,-4.1107,-4.1107,-4.1107,-4.1107,-4.1107,-4.1107,-4.1107,-4.1107,-4.1107,-4.2257,-4.2939,-4.3192,-4.3465,-4.3601,-4.3601,-4.3601,-4.3932,-4.4481,-4.4481,-4.4832,-4.5377,-4.5377,-4.5377,-4.5377,-4.5377,-4.5007,-4.4481,0.0,0.0,0.0,0.0,0.0,0.0,0.0,0.0,0.0,0.0,0.0,0.0,0.0,0.0,0.0,0.0,0.0,0.0,-2.2484,-2.2795,-2.3694,-2.541,-2.5494,-2.5531,-2.5598,-2.5593,-2.561,-2.561,-2.7344,-2.8191,-2.8249,-2.9983,-3.0801,-3.0801,-3.0795,-3.0793,-3.0801,-3.0795,-3.08,-3.08,-3.0806,-3.0798,-3.0798,0.0,0.0,0.0,0.0,0.0,0.0,0.0,-3.08,-3.0805,-3.08,-3.0801,-3.0801,-3.0801,-3.2031,-3.3397,-3.3403,-3.4665,-3.5992,-3.5992,0.0,0.0,-3.5992,-3.5992,-3.5992,-3.5992,-3.6687,-3.7264,-3.7214,-3.8624,0.0,-3.9803,-4.0532,-4.1107,-4.1107,-4.1107,-4.1107,-4.1107,-4.1107,-4.1107,-4.1107,-4.1107,-4.1107,-4.1107,-4.1107,-4.1107,-4.1107,-4.1107,-4.1107,-4.1107,-4.1107,-4.1107,-4.1107,-4.1107,-4.1107,-4.1107,-4.1107,-4.1516,-4.2315,-4.3172,-4.3582,-4.3582,-4.3582,-4.3582,-4.3582,-4.3601,-4.3601,-4.3601,-4.3601,-4.3601,-4.3601,-4.3601,-4.3582,-4.3582,0.0,0.0,0.0,0.0,0.0,0.0,0.0,0.0,0.0,0.0,0.0,0.0,0.0,0.0,0.0,0.0,0.0,0.0,-2.2718,-2.3442,-2.4324,-2.5449,-2.5554,-2.5573,-2.5601,-2.5649,-2.5671,-2.5671,-2.737,-2.8195,-2.8244,-2.9977,-3.0795,-3.0795,-3.08,-3.0793,-3.0801,-3.0806,-3.0806,-3.0806,-3.0801,-3.0791,-3.0806,0.0,0.0,0.0,0.0,0.0,0.0,0.0,0.0,0.0,-3.0809,-3.0791,-3.0791,-3.0791,-3.2021,-3.3405,-3.3399,-3.4665,0.0,-3.5992,0.0,0.0,0.0,-3.6007,0.0,0.0,-3.6161,-3.6677,-3.789,-3.8547,0.0,-4.0513,-4.0935,-4.1107,-4.1107,-4.1107,-4.1107,-4.1107,-4.1107,-4.1107,-4.1107,-4.1107,-4.1107,-4.1107,-4.1107,-4.1107,-4.1107,-4.1107,-4.1107,-4.1107,-4.1107,-4.1107,-4.1107,-4.1107,-4.1107,-4.1107,-4.1107,-4.1224,-4.1458,-4.1711,-4.1848,-4.1848,-4.1848,-4.2159,-4.2724,-4.3348,-4.3601,-4.3601,-4.3601,-4.3601,-4.3601,-4.3601,-4.3211,-4.2685,0.0,0.0,0.0,0.0,0.0,0.0,0.0,0.0,0.0,0.0,-1.6922,-1.6995,0.0,0.0,0.0,0.0,0.0,0.0,0.0,-2.3725,-2.4598,-2.5456,-2.5554,-2.5613,-2.5634,-2.5684,-2.5876,-2.6213,-2.7556,-2.8203,-2.825,-2.9983,-3.0802,-3.0802,-3.0802,-3.0793,-3.0801,-3.0806,-3.0806,-3.0801,-3.0806,-3.0798,-3.0808,0.0,0.0,0.0,0.0,0.0,0.0,0.0,0.0,0.0,-3.08,-3.08,-3.0878,-3.1211,-3.2303,-3.3474,-3.3823,-3.4934,0.0,-3.6002,-3.5999,-3.5994,-3.5994,0.0,0.0,0.0,-3.6207,-3.684,-3.8249,-3.8772,0.0,-4.0874,-4.1107,-4.1107,-4.1107,-4.1107,-4.1107,-4.1107,-4.1107,-4.1107,-4.1107,-4.1107,-4.1107,-4.1107,-4.1107,-4.1107,-4.1107,-4.1107,-4.1107,-4.1107,-4.1107,-4.1107,-4.1107,-4.1107,-4.1107,-4.1107,-4.1107,-4.1107,-4.1107,-4.1107,-4.1107,-4.1107,-4.1107,-4.138,-4.1867,-4.2393,-4.2607,-4.2607,-4.2607,-4.2607,-4.2607,-4.2607,-4.2276,-4.1828,0.0,0.0,0.0,0.0,0.0,0.0,0.0,0.0,0.0,0.0,-1.7351,-1.7375,0.0,0.0,0.0,0.0,0.0,0.0,0.0,-2.3837,-2.4678,-2.5476,-2.5567,-2.5632,-2.5697,-2.5699,-2.6114,-2.6983,-2.7801,-2.823,-2.8349,-3.0024,-3.0802,-3.0802,-3.0802,-3.0793,-3.0804,-3.0795,-3.0795,-3.0806,-3.0798,-3.081,-3.0801,-3.0809,0.0,0.0,0.0,0.0,0.0,0.0,0.0,0.0,-3.08,-3.08,-3.0976,-3.1836,-3.2714,-3.3589,-3.4461,-3.5337,0.0,-3.6007,-3.6003,0.0,-3.5981,-3.5981,-3.5979,-3.5912,0.0,-3.7364,-3.8327,-3.9143,-4.0,-4.0951,-4.1107,-4.1107,-4.1107,-4.1107,-4.1107,-4.1107,-4.1107,-4.1107,-4.1107,-4.1107,-4.1107,-4.1107,-4.1107,-4.1107,-4.1107,-4.1107,-4.1107,-4.1107,-4.1107,-4.1107,-4.1107,-4.1107,-4.1107,-4.1107,-4.1107,-4.1107,-4.1107,-4.1107,-4.1107,-4.1107,-4.1107,-4.1107,-4.1107,-4.1107,-4.1107,-4.1107,-4.1107,-4.1107,-4.1107,-4.1107,-4.1107,-4.1107,0.0,0.0,0.0,0.0,0.0,0.0,0.0,0.0,0.0,0.0,0.0,0.0,0.0,0.0,0.0,0.0,0.0,0.0,0.0,-2.4679,-2.5244,-2.5492,-2.5551,-2.5632,-2.5699,-2.5699,-2.6108,-2.693,-2.7778,-2.8546,-2.9237,-3.0308,-3.081,-3.0802,-3.0802,-3.08,-3.0798,-3.08,-3.0804,-3.0792,-3.0794,-3.0801,-3.0791,-3.0792,-3.0796,0.0,0.0,0.0,0.0,0.0,0.0,0.0,-3.08,-3.08,-3.0976,-3.1836,-3.273,-3.3583,-3.4459,-3.5332,0.0,0.0,-3.596,-3.5912,-3.5919,-3.5919,-3.5919,-3.5907,-3.6058,-3.6651,-3.8207,-3.8656,-3.9298,-4.0854,-4.1107,-4.1107,-4.1107,-4.1107,-4.1107,-4.1107,-4.1107,-4.1107,-4.1107,-4.1107,-4.1107,-4.1107,-4.1107,-4.1107,-4.1107,-4.1107,-4.1107,-4.1107,-4.1107,-4.1107,-4.1107,-4.1107,-4.1107,-4.1107,-4.1107,-4.1107,-4.1107,-4.1107,-4.1107,-4.1107,-4.1107,-4.1107,-4.1107,-4.1107,-4.1107,-4.1107,-4.1107,-4.1107,-4.1107,-4.1107,-4.1107,-4.1107,0.0,0.0,0.0,0.0,0.0,0.0,0.0,0.0,0.0,0.0,0.0,0.0,0.0,0.0,0.0,0.0,0.0,0.0,0.0,0.0,-2.5482,-2.5543,-2.5605,-2.5669,-2.5699,-2.5699,-2.6305,-2.7519,-2.7973,-2.8642,-2.9524,-3.0381,-3.079,-3.081,-3.0804,-3.0804,-3.081,-3.081,-3.0794,-3.0799,-3.0804,-3.0809,-3.0794,-3.0795,-3.0798,-3.08,-3.08,0.0,0.0,0.0,0.0,0.0,0.0,0.0,-3.1582,-3.2461,-3.3336,-3.4209,-3.5098,0.0,0.0,-3.5953,0.0,-3.5899,-3.5892,-3.5908,-3.5892,-3.5899,-3.5894,-3.6317,-3.7623,-3.8227,-3.8928,-4.0253,-4.0835,-4.1107,-4.1107,-4.1107,-4.1107,-4.1107,-4.1107,-4.1107,-4.1107,-4.1107,-4.1107,-4.1107,-4.1107,-4.1107,-4.1107,-4.1107,-4.1107,-4.1107,-4.1107,-4.1107,-4.1107,-4.1107,-4.1107,-4.1107,-4.1107,-4.1107,-4.1107,-4.1107,-4.1107,-4.1107,-4.1107,-4.1107,-4.1107,-4.1107,-4.1107,-4.1107,-4.1107,-4.1107,-4.1107,-4.1107,-4.1107,-4.1107,0.0,0.0,0.0,0.0,0.0,0.0,0.0,0.0,0.0,0.0,0.0,0.0,0.0,0.0,0.0,0.0,0.0,0.0,0.0,0.0,0.0,-2.5581,-2.5667,-2.5699,-2.5699,-2.5835,-2.6658,-2.8207,-2.8345,-2.8872,-2.9749,-3.047,-3.0808,-3.0798,-3.0806,-3.0808,-3.0801,-3.0801,-3.0801,-3.0801,-3.0809,-3.0792,-3.0794,-3.0798,-3.08,-3.08,-3.08,-3.08,-3.08,-3.08,0.0,0.0,0.0,0.0,-3.2304,-3.3319,-3.4138,-3.4896,-3.5758,0.0,-3.5977,-3.5916,-3.5908,0.0,-3.5908,-3.5908,-3.5908,-3.5908,-3.5908,-3.6162,-3.7038,-3.7798,-3.8617,-3.963,-4.0409,-4.0932,-4.1088,-4.1107,-4.1107,-4.1107,-4.1107,-4.1107,-4.1107,-4.1107,-4.1107,-4.1107,-4.1107,-4.1107,-4.1107,-4.1107,-4.1107,-4.1107,-4.1107,-4.1107,-4.1107,-4.1107,-4.1107,-4.1107,-4.1107,-4.1107,-4.1107,-4.1107,-4.1107,-4.1107,-4.1107,-4.1107,-4.1107,-4.1107,-4.1107,-4.1107,-4.1107,-4.1107,-4.1107,-4.1107,-4.1107,-4.1107,0.0,0.0,0.0,0.0,0.0,0.0,0.0,0.0,0.0,0.0,-1.9794,-2.0868,0.0,0.0,0.0,0.0,0.0,0.0,-2.5197,0.0,0.0,-2.5529,-2.5637,-2.5699,-2.5699,-2.6381,-2.7219,-2.8193,-2.8965,-2.9769,-3.0626,-3.0743,-3.0808,-3.0798,-3.0806,-3.0794,-3.0791,-3.0791,-3.0791,-3.0791,-3.0792,-3.0792,-3.0792,-3.0794,-3.0796,-3.08,-3.08,-3.08,-3.08,-3.08,-3.08,0.0,0.0,0.0,-3.2423,-3.4042,-3.4604,-3.489,-3.5765,0.0,-3.5909,0.0,-3.5908,-3.5908,0.0,0.0,-3.5908,0.0,-3.5908,-3.6162,-3.7038,-3.7292,-3.7915,-3.9532,-3.9902,-4.0234,-4.099,-4.1107,-4.1107,-4.1107,-4.1107,-4.1107,-4.1107,-4.1107,-4.1107,-4.1107,-4.1107,-4.1107,-4.1107,-4.1107,-4.1107,-4.1107,-4.1107,-4.1107,-4.1107,-4.1107,-4.1107,-4.1107,-4.1107,-4.1107,-4.1107,-4.1107,-4.1107,-4.1107,-4.1107,-4.1107,-4.1107,-4.1107,-4.1107,-4.1107,-4.1107,-4.1107,-4.1107,-4.1107,-4.1107,-4.1107,0.0,0.0,0.0,0.0,0.0,0.0,0.0,0.0,0.0,0.0,0.0,-2.1274,0.0,0.0,0.0,-2.3903,-2.4418,-2.4941,-2.541,-2.5508,-2.5551,-2.5608,-2.5669,-2.5913,-2.6361,-2.671,-2.7571,-2.8922,-2.9318,-2.995,-3.0799,-3.0808,-3.079,-3.0806,-3.0796,-3.0799,-3.0792,-3.0807,-3.0804,-3.0845,-3.1336,-3.1238,-3.0903,-3.1888,-3.1948,-3.1597,-3.2087,-3.2264,-3.2264,-3.2264,-3.2264,-3.2323,-3.2709,0.0,0.0,0.0,-3.5045,-3.5511,-3.5896,-3.5942,-3.5907,0.0,-3.5908,-3.5908,-3.5908,0.0,-3.5908,-3.5908,-3.5908,-3.6025,-3.6395,-3.6863,-3.7448,-3.8227,-3.8753,-3.9376,-4.0253,-4.037,-4.0542,-4.1029,-4.1107,-4.1107,-4.1107,-4.1107,-4.1107,-4.1107,-4.1107,-4.1107,-4.1107,-4.1107,-4.1107,-4.1107,-4.1107,-4.1107,-4.1107,-4.1107,-4.1107,-4.1107,-4.1107,-4.1107,-4.1107,-4.1107,-4.1107,-4.1107,-4.1107,-4.1107,-4.1107,-4.1107,-4.1107,-4.1107,-4.1107,-4.1107,-4.1107,-4.1107,-4.1107,-4.1107,0.0,0.0,0.0,0.0,0.0,0.0,0.0,0.0,0.0,0.0,0.0,0.0,0.0,0.0,0.0,0.0,-2.4887,-2.5354,-2.5479,-2.5526,-2.5576,-2.5641,-2.5888,-2.6283,-2.6885,-2.7333,-2.8197,-2.9496,-2.9714,-3.0152,-3.0809,-3.0798,-3.0798,-3.0809,-3.0799,-3.0799,-3.0809,-3.0801,-3.0934,-3.1168,-3.1602,-3.1641,-3.1579,-3.2663,-3.2801,-3.2524,-3.3175,-3.3391,-3.3391,-3.3391,-3.3391,-3.3448,-3.3656,-3.4183,0.0,0.0,0.0,0.0,0.0,0.0,-3.5914,-3.5899,-3.5894,-3.5894,0.0,0.0,-3.5908,0.0,-3.5908,-3.5908,-3.5908,-3.6434,-3.6941,-3.7155,-3.7759,-3.848,-3.9357,-3.9474,-3.9708,-4.037,-4.062,-4.0776,-4.0776,-4.0971,-4.1107,-4.1107,-4.1107,-4.1107,-4.1107,-4.1107,-4.1107,-4.1107,-4.1107,-4.1107,-4.1107,-4.1107,-4.1107,-4.1107,-4.1107,-4.1107,-4.1107,-4.1107,-4.1107,-4.1107,-4.1107,-4.1107,-4.1107,-4.1107,-4.1107,-4.1107,-4.1107,-4.1107,-4.1107,-4.1107,-4.1107,-4.1107,0.0,0.0,0.0,0.0,0.0,0.0,0.0,0.0,0.0,0.0,0.0,0.0,-2.3632,-2.4404,-2.4955,-2.5021,-2.5202,-2.5364,-2.5492,-2.561,-2.5639,-2.5529,-2.6357,0.0,-2.6905,-2.8522,-2.9405,-2.9496,-3.0324,-3.0758,-3.0799,-3.0807,-3.0807,-3.0799,-3.0808,-3.0808,-3.0799,-3.0799,-3.1285,-3.1966,-3.1176,-3.1824,-3.3179,-3.2446,-3.2641,-3.3331,-3.337,-3.339,-3.339,0.0,-3.339,-3.3548,-3.4369,-3.4661,-3.4856,0.0,0.0,0.0,0.0,-3.5999,0.0,-3.5914,-3.5907,0.0,0.0,0.0,0.0,-3.5908,-3.5908,-3.5908,-3.5908,-3.5947,-3.624,-3.7077,-3.7233,-3.7564,-3.8441,-3.8578,-3.8578,-3.8636,-3.9357,-3.9864,-3.9864,-4.062,-4.1107,-4.1107,-4.1107,-4.1107,-4.1107,-4.1107,-4.1107,-4.1107,-4.1107,-4.1107,-4.1107,-4.1107,-4.1107,-4.1107,-4.1107,-4.1107,-4.1107,-4.1107,-4.1107,-4.1107,-4.1107,-4.1107,-4.1107,-4.1107,-4.1107,-4.1107,-4.1107,-4.1107,-4.1107,-4.1107,-4.1107,-4.1107,0.0,0.0,0.0,0.0,0.0,0.0,0.0,0.0,0.0,0.0,0.0,0.0,0.0,-2.5013,-2.5215,-2.5289,-2.5333,-2.5646,-2.6294,-2.6379,-2.6651,-2.7211,-2.7558,-2.7996,-2.8561,-2.9174,-2.9764,-3.0334,-3.0657,-3.0801,-3.0807,-3.0798,-3.0799,-3.0807,-3.0798,-3.0794,-3.0837,-3.1395,-3.18,-3.2171,-3.2987,-3.3336,-3.349,-3.4298,-3.4456,-3.4317,-3.487,0.0,0.0,0.0,0.0,0.0,0.0,0.0,0.0,0.0,0.0,0.0,0.0,0.0,0.0,-3.5914,-3.5909,-3.5907,-3.5892,-3.5908,-3.5908,-3.5908,-3.5908,-3.5908,-3.5908,-3.5908,-3.6006,-3.6317,-3.6376,-3.6668,-3.7545,-3.7662,-3.7876,-3.8422,-3.8772,-3.8967,-3.8967,-3.926,-3.9669,-4.0214,-4.0273,-4.0503,-4.1068,-4.1107,-4.1107,-4.1107,-4.1107,-4.1107,-4.1107,-4.1107,-4.1107,-4.1107,-4.1107,-4.1107,-4.1107,-4.1107,-4.1107,-4.1107,-4.1107,-4.1107,-4.1107,-4.1107,-4.1107,-4.1107,-4.1107,-4.1107,-4.1107,-4.1107,-4.1107,-4.1107,0.0,0.0,0.0,0.0,0.0,0.0,0.0,0.0,-2.3223,-2.3826,0.0,0.0,0.0,0.0,-2.5451,-2.5832,-2.6142,-2.6576,-2.7223,-2.7265,-2.7554,-2.8171,-2.8483,-2.8911,-2.9496,-2.9505,-2.994,-3.0802,-3.0517,-3.0507,-3.0807,-3.0794,-3.0794,-3.0803,-3.1111,-3.1244,-3.128,-3.1852,-3.2435,-3.3041,-3.3916,-3.4245,-3.4321,-3.521,-3.5346,-3.5183,0.0,0.0,0.0,0.0,0.0,0.0,0.0,0.0,0.0,0.0,0.0,0.0,-3.5994,0.0,0.0,0.0,0.0,-3.5931,-3.5919,0.0,-3.5908,-3.5908,-3.5908,-3.5908,-3.5908,-3.5908,-3.5908,-3.5908,-3.5908,-3.6103,-3.6688,-3.6766,-3.698,-3.7564,-3.7896,-3.8052,-3.8052,-3.8324,-3.8733,-3.9318,-3.9357,0.0,-4.062,-4.0659,-4.0796,-4.1088,-4.1107,-4.1107,-4.1107,-4.1107,-4.1107,-4.1107,-4.1107,-4.1107,-4.1107,-4.1107,-4.1107,-4.1107,-4.1107,-4.1107,-4.1107,-4.1107,-4.1107,-4.1107,-4.1107,-4.1107,-4.1107,-4.1107,-4.1107,-4.1107,0.0,0.0,0.0,0.0,0.0,0.0,0.0,0.0,-2.4064,-2.4126,0.0,0.0,0.0,0.0,0.0,-2.6757,-2.7615,-2.8137,-2.8225,-2.8249,-2.8249,-2.8288,-2.9087,-2.9535,-2.9535,-2.9535,-2.9951,-3.08,-2.9944,-2.9969,-3.0798,-3.0798,-3.0812,-3.088,-3.1728,-3.2136,-3.2184,-3.2175,-3.3151,-3.4623,-3.3792,-3.4457,-3.5809,-3.4959,-3.5168,0.0,-3.5908,-3.5908,0.0,-3.5908,0.0,0.0,0.0,0.0,0.0,0.0,0.0,0.0,0.0,0.0,0.0,0.0,0.0,0.0,-3.5912,0.0,-3.5908,-3.5908,-3.5908,-3.5908,-3.5908,-3.5908,-3.5908,-3.5908,-3.5908,-3.5908,-3.5908,-3.5908,-3.5908,-3.5908,-3.6649,-3.7155,-3.7155,-3.7935,-3.8422,-3.8461,-3.8461,-3.8831,-3.9727,-3.9786,-4.0195,-4.1029,-4.1088,-4.1107,-4.1107,-4.1107,-4.1107,-4.1107,-4.1107,-4.1107,-4.1107,-4.1107,-4.1107,-4.1107,-4.1107,-4.1107,-4.1107,-4.1107,-4.1107,-4.1107,-4.1107,-4.1107,-4.1107,-4.1107,-4.1107,-4.1107,0.0,0.0,0.0,0.0,0.0,-2.3662,-2.3666,-2.4396,-2.4962,0.0,0.0,0.0,-2.6249,-2.6835,-2.7288,-2.7569,-2.7891,-2.8385,-2.9026,-2.9104,-2.9418,-3.0041,-3.0314,-3.0431,-3.0431,-3.044,-3.0559,-3.0806,-3.0552,-3.0558,-3.0806,-3.0806,-3.1139,-3.1748,-3.1991,-3.2805,-3.3975,-3.3972,-3.4267,-3.4735,-3.5076,-3.5482,-3.5875,-3.5638,0.0,0.0,0.0,-3.5908,-3.5908,0.0,-3.5897,-3.5904,0.0,0.0,0.0,0.0,0.0,0.0,-3.6002,0.0,0.0,0.0,0.0,0.0,0.0,0.0,0.0,-3.5908,-3.5908,-3.5908,-3.5908,-3.5908,-3.5908,-3.5908,-3.5908,-3.5908,-3.5908,-3.5908,-3.5908,-3.5908,-3.6103,-3.6259,-3.6259,-3.6473,-3.6883,0.0,-3.7564,-3.7935,-3.8811,-3.9454,-3.9902,-4.0156,-4.0776,-4.1107,-4.1107,-4.1107,-4.1107,-4.1107,-4.1107,-4.1107,-4.1107,-4.1107,-4.1107,-4.1107,-4.1107,-4.1107,-4.1107,-4.1107,-4.1107,-4.1107,-4.1107,-4.1107,-4.1107,-4.1107,-4.1107,-4.1107,0.0,0.0,0.0,-2.3222,-2.4004,-2.4629,-2.4629,-2.5066,-2.5518,0.0,0.0,0.0,-2.7148,-2.8039,-2.8565,-2.8565,-2.8978,-2.9449,-2.9955,-3.0024,-3.0275,-3.0782,-3.0801,-3.0801,-3.0801,-3.0438,-3.0438,-3.0801,-3.0447,-3.0433,-3.0802,-3.0802,-3.1272,-3.2116,-3.2474,-3.3385,-3.4672,-3.5047,-3.5203,-3.5234,-3.5716,-3.5908,-3.5908,-3.5908,-3.5908,0.0,0.0,0.0,-3.5908,-3.5908,-3.5894,0.0,0.0,0.0,0.0,0.0,0.0,0.0,0.0,0.0,0.0,0.0,0.0,0.0,-3.5902,-3.5894,-3.5908,0.0,-3.5908,-3.5908,-3.5908,-3.5908,-3.5908,-3.5908,-3.5908,-3.5908,-3.5908,-3.5908,-3.5908,-3.5908,-3.5908,-3.5908,-3.5908,-3.5908,-3.6103,-3.6629,-3.6668,-3.7038,-3.7915,-3.8772,-3.926,-3.926,-4.0097,-4.0565,-4.0565,-4.0912,-4.1107,-4.1107,-4.1107,-4.1107,-4.1107,-4.1107,-4.1107,-4.1107,-4.1107,-4.1107,-4.1107,-4.1107,-4.1107,-4.1107,-4.1107,-4.1107,-4.1107,-4.1107,-4.1107,-4.1107,0.0,0.0,-2.4171,-2.4235,-2.4941,-2.5511,-2.5624,-2.5628,-2.592,0.0,-2.6874,-2.7205,-2.8062,-2.9032,-2.9615,-2.9615,-3.0321,-3.0772,-3.0772,-3.0796,-3.0801,-3.0801,-3.0801,-3.0801,-3.0801,-3.0041,-3.0022,-3.0801,-3.0022,-3.0087,-3.0936,-3.0938,-3.1465,-3.2418,-3.3197,-3.3992,-3.4803,-3.5573,-3.5902,-3.5908,-3.5892,-3.5892,-3.5908,0.0,-3.5908,-3.5908,-3.5908,-3.5908,-3.5908,-3.5892,-3.5892,0.0,0.0,0.0,0.0,0.0,-3.5958,0.0,0.0,0.0,0.0,0.0,0.0,0.0,-3.5907,-3.5899,-3.5908,0.0,-3.5908,-3.5908,-3.5908,-3.5908,-3.5908,-3.5908,-3.5908,-3.5908,-3.5908,-3.5908,-3.5908,-3.5908,-3.5908,-3.5908,-3.5908,-3.5908,-3.5908,-3.5908,-3.5908,-3.624,-3.7019,-3.7876,-3.8363,-3.8363,-3.9201,-3.9708,-3.9805,-4.0565,-4.099,-4.1107,-4.1107,-4.1107,-4.1107,-4.1107,-4.1107,-4.1107,-4.1107,-4.1107,-4.1107,-4.1107,-4.1107,-4.1107,-4.1107,-4.1107,-4.1107,-4.1107,-4.1107,-4.1107,0.0,-2.4951,-2.515,-2.5219,-2.5323,-2.5665,-2.6362,-2.6471,-2.6753,-2.7554,-2.8264,-2.8794,-2.9103,-2.9827,-3.0303,-3.0303,-3.0501,-3.0633,-3.0633,-3.0739,-3.0801,-3.0801,-3.0801,-3.0801,-3.0801,-3.0626,-3.0626,-3.0801,-3.0635,-3.099,-3.1843,-3.1859,-3.2682,-3.4194,-3.438,-3.4885,-3.5654,-3.5831,-3.5902,-3.5892,-3.5902,-3.5899,-3.5908,-3.5908,-3.5908,-3.5908,-3.5908,-3.5908,-3.5892,-3.5902,-3.5899,-3.5892,0.0,0.0,0.0,-3.5912,0.0,0.0,0.0,0.0,0.0,0.0,0.0,0.0,-3.5897,-3.5892,-3.5908,0.0,-3.5908,-3.5908,-3.5908,-3.5908,-3.5908,-3.5908,-3.5908,-3.5908,-3.5908,-3.5908,-3.5908,-3.5908,-3.5908,-3.5908,-3.5908,-3.5908,-3.5908,-3.5908,-3.5908,-3.5967,-3.6142,-3.698,-3.7448,-3.7448,-3.8305,-3.9084,-3.9786,-3.998,-4.0409,-4.1107,-4.1107,-4.1107,-4.1107,-4.1107,-4.1107,-4.1107,-4.1107,-4.1107,-4.1107,-4.1107,-4.1107,-4.1107,-4.1107,-4.1107,-4.1107,-4.1107,-4.1107,-4.1107,-2.5091,-2.5253,-2.548,-2.6014,-2.606,-2.6335,-2.723,-2.7358,-2.764,-2.841,-2.924,-2.9762,-2.9839,-3.024,-3.0519,-3.0548,-3.0571,-3.063,-3.07,-3.0767,-3.0801,-3.0801,-3.0801,-3.0801,-3.0801,-3.0801,-3.1016,-3.1447,-3.1454,-3.1882,-3.2754,-3.2753,-3.3436,-3.4655,-3.4686,-3.5151,-3.5899,-3.5907,-3.5902,-3.5889,-3.5897,0.0,-3.5908,-3.5908,-3.5908,-3.5908,-3.5908,-3.5908,-3.5892,-3.5897,-3.5894,0.0,-3.5897,-3.5899,-3.5902,0.0,-3.5929,-3.5951,0.0,0.0,0.0,-3.5902,0.0,0.0,0.0,-3.5908,-3.5908,-3.5908,-3.5908,-3.5908,-3.5908,-3.5908,-3.5908,-3.5908,-3.5908,-3.5892,-3.5899,-3.5894,-3.5908,-3.5908,-3.5908,-3.5908,-3.5908,-3.5908,-3.5892,-3.5899,-3.5899,-3.5899,-3.5899,-3.6303,-3.6551,-3.6551,-3.7409,-3.8052,-3.85,-3.9376,-4.0019,-4.0467,-4.0893,-4.1107,-4.1107,-4.1107,-4.1107,-4.1107,-4.1107,-4.1107,-4.1107,-4.1107,-4.1107,-4.1107,-4.1107,-4.1107,-4.1107,-4.1107,-4.1107,-4.1107,-2.5391,-2.556,-2.5986,-2.6812,-2.6964,-2.7243,-2.8074,-2.8218,-2.8498,-2.9287,-2.9951,-3.0375,-3.0381,-3.0496,-3.0583,-3.063,-3.0633,-3.0752,-3.1033,-3.1055,-3.1132,-3.1288,-3.1308,-3.1308,-3.1308,-3.1308,-3.1641,-3.2345,-3.2345,-3.2793,-3.3631,-3.3643,-3.4072,-3.4842,-3.4915,-3.5303,-3.5894,-3.5904,-3.5902,-3.5908,0.0,-3.5908,-3.5908,-3.5908,-3.5908,-3.5908,-3.5908,-3.5908,-3.5908,-3.5908,-3.5908,-3.5908,-3.5908,-3.5908,0.0,0.0,0.0,0.0,0.0,0.0,0.0,0.0,0.0,-3.5908,0.0,0.0,0.0,-3.5908,-3.5908,0.0,0.0,0.0,0.0,0.0,0.0,0.0,0.0,-3.5795,0.0,-3.5892,-3.5899,-3.5894,-3.5909,-3.5909,-3.5909,-3.5909,-3.5901,-3.5901,-3.589,-3.5899,-3.5892,-3.5908,-3.6571,-3.7038,-3.7194,-3.8597,-3.9474,-3.9805,-4.0503,-4.0932,-4.1107,-4.1107,-4.1107,-4.1107,-4.1107,-4.1107,-4.1107,-4.1107,-4.1107,-4.1107,-4.1107,-4.1107,-4.1107,-4.1107,-4.1107,-4.1107,-2.6537,-2.7065,-2.7661,-2.7908,-2.7892,-2.8107,-2.8858,-2.8974,-2.9328,-3.03,-3.0506,-3.0613,-3.0725,-3.0759,-3.0764,-3.0772,-3.0772,-3.1108,-3.1897,-3.1956,-3.2306,-3.3066,-3.3105,-3.3105,-3.3105,-3.3105,-3.3144,-3.3242,-3.3242,-3.367,-3.4469,-3.4521,-3.4974,-3.5751,-3.5823,-3.588,-3.5907,-3.5909,-3.5902,0.0,-3.5908,-3.5908,0.0,-3.5908,-3.5908,-3.5908,-3.5908,-3.5908,-3.5908,0.0,-3.5908,-3.5908,0.0,-3.5908,-3.5908,-3.5892,0.0,0.0,0.0,0.0,0.0,0.0,-3.5908,0.0,0.0,0.0,-3.5908,-3.5908,0.0,0.0,0.0,0.0,0.0,0.0,0.0,0.0,-3.494,-3.5446,-3.5903,-3.5908,-3.5892,-3.5895,-3.5899,-3.5901,-3.589,-3.5892,-3.5893,-3.5897,-3.5892,-3.5907,-3.5902,-3.5908,-3.6006,-3.6415,-3.7194,-3.7409,-3.8266,-3.9805,-3.9902,-4.0351,-4.1107,-4.1107,-4.1107,-4.1107,-4.1107,-4.1107,-4.1107,-4.1107,-4.1107,-4.1107,-4.1107,-4.1107,-4.1107,-4.1107,-4.1107,-4.1107,-2.7281,-2.7415,-2.7866,-2.8456,-2.8544,-2.8824,-2.9715,-2.9892,-3.0269,-3.1239,-3.132,-3.1489,-3.197,-3.21,-3.2128,-3.2085,-3.2149,-3.2385,0.0,-3.2852,-3.3027,-3.3378,-3.3397,-3.3397,-3.3397,-3.3397,-3.3631,-3.4099,-3.4099,-3.4528,-3.5343,-3.5378,-3.5573,-3.5899,-3.5931,-3.5929,-3.5897,-3.5897,-3.5894,0.0,0.0,-3.5908,0.0,-3.5908,-3.5908,-3.5908,-3.5908,-3.5908,-3.5908,0.0,-3.5908,0.0,0.0,0.0,0.0,-3.5908,0.0,0.0,0.0,0.0,0.0,0.0,0.0,0.0,-3.5908,0.0,-3.5908,0.0,0.0,0.0,0.0,0.0,0.0,0.0,-3.5656,0.0,0.0,0.0,-3.5897,0.0,0.0,0.0,-3.5907,-3.5909,-3.5921,-3.5962,-3.5923,-3.5926,-3.5962,-3.5914,-3.5904,-3.5908,-3.5908,-3.6084,-3.6434,-3.6941,-3.7564,-3.8305,-3.9318,-4.0,-4.037,-4.0874,-4.1107,-4.1107,-4.1107,-4.1107,-4.1107,-4.1107,-4.1107,-4.1107,-4.1107,-4.1107,-4.1107,-4.1107,-4.1107,-4.1107,-2.8391,-2.8263,-2.8495,-2.9212,-2.9345,-2.9687,-3.062,-3.0806,-3.1187,-3.2069,-3.2158,-3.2348,-3.2913,-3.3078,-3.3103,-3.3059,-3.3188,-3.3391,0.0,-3.3729,-3.3846,-3.4079,-3.4099,-3.4099,-3.4099,-3.4099,-3.4372,-3.4954,-3.4954,-3.5285,-3.5908,-3.5899,-3.5899,-3.5908,-3.5899,-3.5899,-3.5908,0.0,-3.5908,-3.5908,-3.5908,-3.5908,-3.5908,-3.5908,-3.5908,-3.5908,-3.5908,-3.5908,-3.5908,-3.5908,-3.5908,0.0,-3.5908,-3.5908,-3.5908,0.0,0.0,0.0,-3.5908,0.0,0.0,0.0,0.0,0.0,0.0,0.0,0.0,0.0,0.0,0.0,0.0,0.0,0.0,-3.5577,0.0,-3.5825,0.0,-3.578,0.0,0.0,0.0,0.0,0.0,-3.5879,-3.5897,-3.597,-3.5934,-3.5935,-3.5994,-3.596,-3.5929,-3.5897,-3.5892,-3.5908,-3.5908,-3.6532,-3.696,-3.7214,-3.848,-3.9337,-3.9825,-4.0467,-4.0874,-4.1107,-4.1107,-4.1107,-4.1107,-4.1107,-4.1107,-4.1107,-4.1107,-4.1107,-4.1107,-4.1107,-4.1107,-4.1107,-3.0182,-3.0207,-3.0269,-3.0429,-3.0509,-3.0789,-3.1531,-3.1715,-3.2058,-3.2851,-3.2962,-3.3016,-3.3168,-3.32,-3.32,-3.318,0.0,-3.3726,-3.4508,-3.4567,-3.4934,-3.5772,-3.5811,-3.5811,-3.5811,-3.5811,-3.583,-3.585,-3.585,-3.5869,-3.5908,-3.5908,-3.5908,-3.5908,-3.5908,-3.5908,-3.5908,-3.5908,-3.5908,-3.5908,-3.5908,-3.5908,-3.5908,0.0,-3.5908,-3.5908,-3.5908,0.0,0.0,-3.5908,-3.5908,0.0,0.0,0.0,0.0,0.0,0.0,0.0,0.0,0.0,0.0,-3.5908,0.0,0.0,0.0,0.0,-3.5908,0.0,0.0,0.0,0.0,-3.5908,-3.5616,-3.4778,-3.5356,0.0,0.0,0.0,0.0,0.0,0.0,0.0,0.0,-3.5848,-3.5832,-3.5898,-3.5893,-3.5935,-3.6004,-3.6009,-3.5979,-3.5909,-3.5897,-3.5908,-3.5908,-3.5928,-3.6376,-3.7194,-3.7253,-3.8168,-3.9805,-3.9825,-4.0292,-4.1107,-4.1107,-4.1107,-4.1107,-4.1107,-4.1107,-4.1107,-4.1107,-4.1107,-4.1107,-4.1107,-4.1107,-4.1107,-3.0839,-3.1002,-3.0899,-3.0505,-3.0851,-3.1501,-3.2362,-3.2522,-3.2875,-3.3852,-3.3986,-3.4208,-3.48,-3.4931,-3.4941,0.0,0.0,-3.5168,-3.5441,-3.546,0.0,-3.5889,-3.5908,-3.5908,0.0,-3.5908,-3.5908,-3.5908,-3.5908,-3.5908,-3.5908,-3.5908,-3.5908,-3.5908,-3.5908,-3.5908,0.0,0.0,0.0,0.0,0.0,-3.5908,-3.5908,0.0,-3.5908,-3.5908,-3.5908,-3.5908,0.0,-3.5908,-3.5908,-3.5908,-3.5908,-3.5908,-3.5908,-3.5908,-3.5908,-3.5908,0.0,0.0,-3.5908,-3.5908,0.0,0.0,0.0,0.0,0.0,0.0,0.0,0.0,0.0,-3.5908,-3.5794,-3.5512,-3.5715,-3.5797,0.0,0.0,0.0,0.0,0.0,0.0,0.0,0.0,0.0,-3.5896,-3.5898,-3.5934,-3.5994,-3.596,-3.5914,-3.5909,-3.5897,-3.5908,-3.5908,-3.5908,-3.6045,-3.6356,-3.6921,-3.7818,-3.8967,-3.9532,-4.0273,-4.1107,-4.1107,-4.1107,-4.1107,-4.1107,-4.1107,-4.1107,-4.1107,-4.1107,-4.1107,-4.1107,-4.1107,-4.1107,-3.1773,-3.1931,-3.1827,-3.1378,-3.1694,-3.2345,-3.3255,-3.345,-3.3822,-3.4807,-3.4936,-3.5111,-3.5639,0.0,-3.5797,0.0,-3.5811,-3.5908,-3.5908,-3.5908,0.0,-3.5908,-3.5908,-3.5908,0.0,0.0,0.0,-3.5908,-3.5908,-3.5908,-3.5908,-3.5908,-3.5908,-3.5908,-3.5908,-3.5908,-3.5908,-3.5908,-3.5908,0.0,0.0,-3.5908,0.0,0.0,-3.5908,-3.5908,0.0,-3.5908,-3.5908,-3.5908,-3.5908,-3.5908,-3.5908,-3.5908,-3.5908,-3.5908,-3.5908,-3.5908,-3.5908,-3.5908,0.0,-3.5908,-3.5908,0.0,-3.5908,0.0,-3.5908,0.0,0.0,0.0,0.0,0.0,-3.5899,-3.5907,-3.5903,-3.5898,0.0,-3.5877,0.0,0.0,0.0,0.0,0.0,0.0,-3.5862,-3.5895,-3.5898,-3.5934,0.0,-3.5964,-3.594,-3.5936,-3.5904,-3.5894,-3.5908,-3.5908,-3.5908,-3.5908,-3.6473,-3.7194,-3.8071,-3.8948,-3.9805,-4.064,-4.0971,-4.1107,-4.1107,-4.1107,-4.1107,-4.1107,-4.1107,-4.1107,-4.1107,-4.1107,-4.1107,-4.1107,-3.2987,-3.3075,-3.3082,-3.3026,-3.3041,-3.3357,-3.4212,-3.4458,-3.4831,-3.5592,-3.5693,-3.5698,-3.5702,-3.5702,-3.5702,-3.5702,-3.5833,-3.5908,-3.5908,-3.5908,0.0,0.0,-3.5908,-3.5908,-3.5908,0.0,0.0,0.0,-3.5908,-3.5908,-3.5908,-3.5908,-3.5908,-3.5908,-3.5908,-3.5908,-3.5908,-3.5908,-3.5908,-3.5908,-3.5908,-3.5908,-3.5908,-3.5908,-3.5908,-3.5908,-3.5908,-3.5908,-3.5908,-3.5908,-3.5908,-3.5908,-3.5908,-3.5908,-3.5908,-3.5908,-3.5908,-3.5908,-3.5908,-3.5908,-3.5908,-3.5908,-3.5908,0.0,0.0,0.0,-3.5908,0.0,0.0,0.0,0.0,0.0,-3.5909,-3.589,-3.5901,-3.5896,-3.5907,0.0,0.0,0.0,0.0,0.0,0.0,-3.5801,-3.583,-3.5897,-3.5894,-3.5935,0.0,-3.6001,-3.5997,-3.6005,-3.5934,-3.5902,-3.5908,-3.5908,-3.5908,-3.5908,-3.5908,-3.6356,-3.7233,-3.811,-3.8987,-3.9844,-4.0718,-4.1107,-4.1107,-4.1107,-4.1107,-4.1107,-4.1107,-4.1107,-4.1107,-4.1107,-4.1107,-4.1107,-3.3474,-3.4155,-3.4638,-3.4615,-3.4169,-3.4109,-3.4982,-3.5149,-3.528,-3.5581,-3.5674,-3.5741,-3.584,-3.5846,-3.5846,-3.5846,-3.588,0.0,0.0,0.0,0.0,-3.5908,-3.5908,-3.5908,-3.5908,-3.5908,-3.5908,-3.5908,0.0,-3.5908,-3.5908,-3.5908,-3.5908,-3.5908,-3.5908,-3.5908,-3.5908,-3.5908,-3.5908,-3.5908,-3.5908,-3.5908,-3.5908,0.0,-3.5908,-3.5908,-3.5908,-3.5908,-3.5908,-3.5908,-3.5908,-3.5908,-3.5908,-3.5908,-3.5908,-3.5908,-3.5908,-3.5908,-3.5908,-3.5908,-3.5908,-3.5908,-3.5908,-3.5908,0.0,0.0,0.0,0.0,0.0,0.0,0.0,0.0,0.0,0.0,-3.5936,0.0,0.0,0.0,0.0,-3.5795,0.0,0.0,0.0,-3.5858,-3.588,-3.5896,-3.5897,-3.5936,-3.5994,0.0,-3.5952,-3.6005,-3.5926,-3.5894,-3.5908,-3.5908,-3.5908,-3.5908,-3.5908,-3.6356,-3.7233,-3.811,-3.8987,-3.9844,-4.0718,-4.1107,-4.1107,-4.1107,-4.1107,-4.1107,-4.1107,-4.1107,-4.1107,-4.1107,-4.1107,-4.1107,-3.4274,-3.4795,-3.517,-3.5235,-3.4897,-3.4827,-3.5399,-3.5817,-3.612,-3.6274,-3.6662,0.0,-3.7036,-3.7038,-3.7038,-3.7038,-3.7038,0.0,-3.7038,0.0,0.0,-3.6473,-3.6103,-3.5908,-3.5908,-3.5908,0.0,-3.5908,0.0,-3.5908,-3.5908,-3.5908,-3.5908,-3.5908,-3.5908,-3.5908,-3.5908,-3.5908,-3.5908,-3.5908,-3.5908,-3.5908,0.0,-3.5908,-3.5908,-3.5908,-3.5908,-3.5908,-3.5908,-3.5908,-3.5908,-3.5908,-3.5908,-3.5908,-3.5908,-3.5908,-3.5908,-3.5908,-3.5908,-3.5908,-3.5908,-3.5908,-3.5908,-3.5908,-3.5908,-3.5908,-3.5908,0.0,-3.5908,-3.5908,0.0,0.0,0.0,0.0,0.0,0.0,0.0,0.0,0.0,0.0,-3.581,0.0,-3.5803,-3.5851,-3.5903,-3.5893,-3.5895,-3.5918,0.0,0.0,-3.5923,-3.6005,-3.5933,-3.5906,-3.5908,-3.5899,-3.5899,-3.5908,-3.5908,-3.6162,-3.6668,-3.7935,-3.8772,-3.9298,-4.0565,-4.1107,-4.1107,-4.1107,-4.1107,-4.1107,-4.1107,-4.1107,-4.1107,-4.1107,-4.1107,-4.1107,-3.5084,-3.5092,-3.5153,-3.5392,-3.5441,-3.5537,-3.5846,-3.6488,-3.7017,-3.727,0.0,-3.8462,-3.8452,-3.8452,-3.8452,-3.8452,-3.8462,-3.8465,-3.8465,-3.7773,-3.737,-3.737,-3.6532,-3.6064,-3.6064,-3.5967,-3.5908,0.0,-3.5908,-3.5908,-3.5908,-3.5908,-3.5908,-3.5908,-3.5908,0.0,0.0,-3.5908,-3.5908,-3.5908,-3.5908,-3.5908,-3.5908,-3.5908,-3.5908,-3.5908,-3.5908,-3.5908,-3.5908,-3.5908,-3.5908,-3.5908,-3.5908,-3.5908,-3.5908,-3.5908,-3.5908,-3.5908,-3.5908,-3.5908,-3.5908,-3.5908,-3.5908,-3.5908,-3.5908,-3.5908,-3.5908,-3.5908,-3.5908,-3.5908,-3.5908,0.0,0.0,0.0,0.0,0.0,0.0,0.0,0.0,0.0,0.0,0.0,0.0,0.0,-3.5907,-3.5889,-3.5902,0.0,0.0,0.0,-3.593,-3.5986,-3.5936,-3.5893,-3.5904,-3.5907,-3.5907,-3.5904,-3.5894,-3.5908,-3.5967,-3.7701,-3.85,-3.8597,-4.0351,-4.1107,-4.1107,-4.1107,-4.1107,-4.1107,-4.1107,-4.1107,-4.1107,-4.1107,-4.1107,-4.1107,-3.5084,-3.5066,-3.5265,-3.6065,-3.6162,-3.6441,-3.7365,-3.7191,-3.7201,-3.7859,-3.8176,-3.8291,-3.8178,-3.8167,-3.8167,-3.8167,-3.8273,0.0,0.0,0.0,0.0,-3.8266,-3.7448,-3.696,-3.696,-3.6279,-3.5908,0.0,-3.5908,-3.5908,-3.5908,-3.5908,-3.5908,-3.5908,0.0,0.0,-3.5908,-3.5908,0.0,-3.5908,-3.5908,-3.5908,-3.5908,-3.5908,-3.5908,-3.5908,-3.5908,-3.5908,-3.5908,-3.5908,-3.5908,-3.5908,-3.5908,-3.5908,-3.5908,-3.5908,-3.5908,-3.5908,-3.5908,-3.5908,-3.5908,-3.5908,-3.5908,-3.5908,-3.5908,-3.5908,-3.5908,-3.5908,-3.5908,-3.5908,-3.5908,0.0,0.0,0.0,0.0,0.0,0.0,0.0,0.0,0.0,0.0,-3.5851,0.0,0.0,0.0,-3.5825,-3.5875,0.0,0.0,0.0,-3.5916,0.0,-3.5912,0.0,0.0,0.0,-3.5908,-3.5899,-3.5897,-3.5908,-3.5967,-3.7701,-3.85,-3.8597,-4.0351,-4.1107,-4.1107,-4.1107,-4.1107,-4.1107,-4.1107,-4.1107,-4.1107,-4.1107,-4.1107,-4.1107,-3.5657,-3.6008,-3.6445,-3.6938,-3.7047,-3.7414,-3.842,-3.8454,-3.8443,-3.8733,-3.9286,-3.9621,-3.9571,-3.9617,-3.9664,-3.9664,-3.9727,-3.975,-3.975,-3.9396,-3.9162,-3.9162,-3.8344,-3.7876,-3.7876,-3.7019,-3.6571,-3.6571,0.0,-3.5908,-3.5908,-3.5908,-3.5908,-3.5908,0.0,-3.5908,0.0,0.0,0.0,-3.5908,-3.5908,-3.5908,-3.5908,-3.5908,-3.5908,-3.5908,-3.5908,-3.5908,-3.5908,-3.5908,-3.5908,-3.5908,-3.5908,-3.5908,-3.5908,-3.5908,-3.5908,-3.5908,-3.5908,-3.5908,-3.5908,-3.5908,-3.5908,-3.5908,-3.5908,-3.5908,-3.5908,-3.5908,-3.5908,-3.5908,-3.5908,-3.5899,0.0,0.0,0.0,0.0,0.0,0.0,-3.589,0.0,0.0,0.0,0.0,0.0,0.0,0.0,0.0,-3.5859,-3.5895,0.0,-3.5897,0.0,0.0,0.0,-3.5896,0.0,-3.5898,-3.5896,-3.5907,-3.5908,-3.5967,-3.7701,-3.85,-3.8597,-4.0351,-4.1107,-4.1107,-4.1107,-4.1107,-4.1107,-4.1107,-4.1107,-4.1107,-4.1107,-4.1107,-4.1107,-3.6472,-3.7023,-3.7585,-3.7804,-3.7985,-3.8397,-3.9327,-3.9669,-3.979,-3.9694,-4.0391,-4.0898,-4.0859,-4.0943,-4.1003,-4.1003,-4.1038,-4.1068,-4.1068,-4.0439,-4.0078,-4.0078,-3.924,-3.8772,-3.8772,-3.7915,-3.7487,0.0,0.0,-3.6181,-3.6162,-3.5986,-3.5908,-3.5908,0.0,0.0,0.0,0.0,-3.5908,-3.5908,-3.5908,-3.5908,-3.5908,-3.5908,-3.5908,-3.5908,-3.5908,-3.5908,-3.5908,-3.5908,-3.5908,-3.5908,-3.5908,-3.5908,-3.5908,-3.5908,-3.5908,-3.5908,-3.5908,-3.5908,-3.5908,-3.5908,-3.5908,-3.5908,-3.5908,-3.5908,-3.5908,-3.5908,-3.5908,-3.5908,-3.5908,-3.5899,0.0,0.0,0.0,0.0,0.0,0.0,0.0,0.0,0.0,0.0,-3.5834,0.0,0.0,0.0,0.0,-3.583,-3.5898,-3.5897,-3.5898,0.0,0.0,-3.5897,-3.589,0.0,-3.5903,-3.5892,-3.5897,-3.5908,-3.5967,-3.7701,-3.85,-3.8597,-4.0351,-4.1107,-4.1107,-4.1107,-4.1107,-4.1107,-4.1107,-4.1107,-4.1107,-4.1107,-4.1107,-4.1107,-3.7287,-3.7403,-3.7756,-3.8556,-3.8844,-3.9296,-4.0239,-4.05,-4.0596,-4.0584,-4.0765,-4.0854,-4.0724,-4.0724,-4.073,-4.073,-4.0849,-4.0921,-4.0921,-4.0956,-4.0971,-4.0971,-4.0136,-3.9688,-3.9688,-3.8811,-3.8383,0.0,0.0,-3.7077,-3.7058,-3.6279,-3.5908,0.0,0.0,0.0,0.0,-3.5908,-3.5908,-3.5908,-3.5908,-3.5908,-3.5908,-3.5908,-3.5908,-3.5908,-3.5908,-3.5908,-3.5908,-3.5908,-3.5908,-3.5908,-3.5908,-3.5908,-3.5908,-3.5908,-3.5908,-3.5908,-3.5908,-3.5908,-3.5908,-3.5908,-3.5908,-3.5908,-3.5908,-3.5908,-3.5908,-3.5908,-3.5908,-3.5908,-3.5908,-3.5892,-3.5897,0.0,0.0,0.0,0.0,0.0,-3.59,-3.5908,0.0,0.0,-3.5891,-3.5892,0.0,0.0,-3.5822,-3.5839,-3.5894,-3.5894,-3.5898,-3.5905,-3.5906,-3.5895,-3.5897,-3.5908,-3.5906,-3.5902,-3.5899,-3.5908,-3.5967,-3.7701,-3.85,-3.8597,-4.0351,-4.1107,-4.1107,-4.1107,-4.1107,-4.1107,-4.1107,-4.1107,-4.1107,-4.1107,-4.1107,-4.1107,-3.8238,-3.8677,-3.9204,-3.9668,-3.9854,-4.0088,0.0,-4.073,-4.0823,-4.0823,-4.0864,-4.0874,-4.0828,-4.0883,-4.0935,-4.0935,-4.0988,-4.1027,-4.1027,-4.1075,-4.1107,-4.1107,-4.0776,-4.0581,-4.0581,-3.9727,-3.9279,0.0,0.0,0.0,0.0,-3.7623,-3.7175,0.0,0.0,-3.5908,-3.5908,-3.5908,-3.5908,-3.5908,-3.5908,-3.5908,-3.5908,-3.5908,-3.5908,-3.5908,-3.5908,-3.5908,-3.5908,-3.5908,-3.5908,-3.5908,-3.5908,-3.5908,-3.5908,-3.5908,-3.5908,-3.5908,-3.5908,-3.5908,-3.5908,-3.5908,-3.5908,-3.5908,-3.5908,-3.5908,-3.5908,-3.5908,-3.5908,-3.5908,-3.5908,-3.5908,-3.5892,-3.5897,0.0,0.0,0.0,0.0,0.0,-3.5896,0.0,-3.5946,0.0,-3.5901,0.0,0.0,0.0,-3.5836,-3.5891,-3.5894,-3.5896,-3.5898,0.0,-3.5892,-3.5897,-3.5894,-3.5904,-3.5908,-3.5902,-3.6162,-3.6727,-3.7935,-3.9065,-4.0097,-4.0796,-4.1107,-4.1107,-4.1107,-4.1107,-4.1107,-4.1107,-4.1107,-4.1107,-4.1107,-4.1107,-4.1107,-3.9111,-3.9647,-4.0147,-4.0288,-4.0425,-4.0534,-4.0622,-4.0767,-4.0844,-4.0844,-4.0844,-4.0864,-4.0943,-4.1041,-4.1107,-4.1107,-4.1107,-4.1107,-4.1107,-4.1107,-4.1107,-4.1107,-4.1107,0.0,-4.1107,-4.0506,-4.0175,-4.0175,-3.9318,0.0,0.0,0.0,0.0,0.0,-3.6941,-3.6668,-3.6668,-3.6668,-3.6668,-3.6668,-3.6668,-3.6668,-3.6668,-3.6668,-3.6512,-3.6279,-3.6279,-3.6123,-3.5908,-3.5908,-3.5908,-3.5908,-3.5908,-3.5908,-3.5908,-3.5908,-3.5908,-3.5908,-3.5908,-3.5908,-3.5908,-3.5908,-3.5908,-3.5908,-3.5908,-3.5908,-3.5908,-3.5908,-3.5908,-3.5908,-3.5908,-3.5908,-3.5892,-3.5894,0.0,0.0,0.0,-3.5921,0.0,-3.5909,-3.5964,-3.5985,-3.5928,-3.5917,0.0,0.0,0.0,-3.5846,-3.5892,-3.5894,0.0,0.0,0.0,0.0,-3.5907,-3.5903,-3.5908,-3.5908,-3.5908,-3.6356,-3.7233,-3.8363,-3.9688,-4.1107,-4.1107,-4.1107,-4.1107,-4.1107,-4.1107,-4.1107,-4.1107,-4.1107,-4.1107,-4.1107,-4.1107,-4.1107,-3.9881,-3.9996,-4.0106,-4.0087,-4.0314,-4.0496,-4.0496,-4.0609,-4.07,-4.07,-4.07,-4.0793,-4.1075,-4.1107,-4.1107,-4.1107,-4.1107,-4.1107,-4.1107,-4.1107,-4.1107,0.0,0.0,-4.1107,-4.1107,-4.1088,-4.1088,-4.1088,0.0,0.0,-3.9766,0.0,-3.85,-3.848,-3.848,-3.848,-3.848,-3.848,-3.848,-3.848,-3.848,-3.848,-3.848,-3.848,-3.7935,-3.7175,-3.7175,-3.6629,-3.5908,-3.5908,-3.5908,-3.5908,-3.5908,-3.5908,-3.5908,-3.5908,-3.5908,-3.5908,-3.5908,-3.5908,-3.5908,-3.5908,-3.5908,-3.5908,-3.5908,-3.5908,-3.5908,-3.5908,-3.5908,-3.5908,-3.5908,-3.5908,-3.5894,-3.5907,0.0,0.0,0.0,-3.5968,0.0,-3.5912,-3.5956,-3.6006,-3.6007,-3.5949,0.0,0.0,0.0,0.0,0.0,0.0,0.0,-3.5908,-3.5907,0.0,-3.5907,-3.5903,-3.5908,-3.5908,-3.5908,-3.6356,-3.7253,-3.8987,-4.0273,-4.1107,-4.1107,-4.1107,-4.1107,-4.1107,-4.1107,-4.1107,-4.1107,-4.1107,-4.1107,-4.1107,-4.1107,-4.1107,-3.9954,-4.0046,-4.0147,-4.0288,-4.0417,-4.0534,-4.0615,-4.0668,-4.0694,-4.0694,-4.0694,-4.073,-4.0823,-4.0912,-4.0996,0.0,-4.1107,-4.1107,0.0,-4.1107,-4.1107,-4.1107,-4.1107,-4.1107,-4.1107,-4.1107,-4.1107,-4.1107,0.0,0.0,0.0,-3.9786,-3.9396,-3.9357,-3.8772,-3.85,-3.85,-3.85,-3.85,-3.85,-3.85,-3.85,-3.85,-3.85,-3.8324,-3.809,-3.809,-3.7915,-3.7662,-3.7662,-3.7662,-3.7564,-3.696,-3.6376,-3.5908,-3.5908,-3.5908,-3.5908,-3.5908,-3.5908,-3.5908,-3.5908,-3.5908,-3.5908,-3.5908,-3.5908,-3.5908,-3.5908,-3.5908,-3.5908,-3.5908,-3.5908,-3.5892,-3.5894,-3.5904,0.0,-3.5909,0.0,-3.599,-3.597,-3.5999,-3.6004,-3.6004,-3.5933,0.0,0.0,0.0,0.0,0.0,0.0,0.0,0.0,-3.5896,0.0,-3.5907,-3.5903,-3.5908,-3.5908,-3.6493,-3.7545,-3.9006,-4.0156,-4.0835,-4.1107,-4.1107,-4.1107,-4.1107,-4.1107,-4.1107,-4.1107,-4.1107,-4.1107,-4.1107,-4.1107,-4.1107,-4.1107,-3.9986,-4.0057,-4.0147,-4.0297,-4.0386,-4.0452,-4.0534,-4.0549,-4.0549,-4.0549,-4.0549,-4.0571,-4.0615,-4.0694,0.0,-4.1019,-4.103,-4.1041,-4.1107,-4.1107,-4.1107,-4.1107,-4.1107,-4.1107,-4.1107,-4.1107,0.0,-4.1107,-4.1107,-4.1107,-4.1088,-4.0545,-4.0292,-4.0253,-3.9727,-3.9474,-3.9474,-3.9474,-3.9474,-3.9474,-3.9474,-3.9474,-3.9474,-3.9474,-3.9279,-3.8987,-3.8987,-3.8772,-3.85,-3.85,-3.85,-3.8402,-3.7857,-3.7311,-3.6746,-3.6084,-3.5908,-3.5908,-3.5908,-3.5908,-3.5908,-3.5908,-3.5908,-3.5908,-3.5908,-3.5908,-3.5908,-3.5908,-3.5908,-3.5908,-3.5908,-3.5908,-3.5908,-3.5908,-3.5924,-3.5934,-3.589,0.0,-3.5997,0.0,0.0,0.0,0.0,-3.5967,-3.5936,0.0,0.0,0.0,0.0,0.0,-3.5897,-3.5896,-3.5892,-3.589,-3.5907,-3.5892,-3.5908,-3.5908,-3.7116,-3.8422,-3.9825,-4.0698,-4.1107,-4.1107,-4.1107,-4.1107,-4.1107,-4.1107,-4.1107,-4.1107,-4.1107,-4.1107,-4.1107,-4.1107,-4.1107,-4.1091,-3.9986,-4.0057,-4.0127,-4.0186,-4.0253,-4.0301,-4.0301,-4.0301,-4.0301,-4.0301,-4.0301,-4.0355,-4.0476,-4.05,-4.0581,-4.0849,0.0,0.0,-4.1085,-4.1107,-4.1107,-4.1107,-4.1107,-4.1107,-4.1107,-4.1107,-4.1107,-4.1107,-4.1107,-4.1107,-4.1107,-4.1107,-4.1107,-4.1107,-4.1107,-4.1107,-4.1107,-4.1107,-4.1107,-4.1107,-4.1107,-4.1107,-4.1107,-4.1107,-4.0604,-3.9883,-3.9883,-3.9376,-3.8675,-3.8675,-3.8675,-3.8675,-3.8617,-3.8597,-3.8246,-3.6493,-3.5986,-3.5986,-3.5928,-3.5908,-3.5908,-3.5908,-3.5908,-3.5908,-3.5908,-3.5908,-3.5908,-3.5908,-3.5908,-3.5908,-3.5908,-3.5908,-3.5908,-3.5908,-3.5951,-3.5962,-3.5912,-3.5956,-3.6009,0.0,0.0,0.0,-3.5992,-3.5992,-3.5994,0.0,0.0,0.0,0.0,0.0,-3.5897,-3.5892,-3.5897,-3.5908,-3.5908,-3.5908,-3.5967,-3.6103,-3.7798,-3.9045,-3.9922,-4.0737,-4.1107,-4.1107,-4.1107,-4.1107,-4.1107,-4.1107,-4.1107,-4.1107,-4.1107,-4.1107,-4.1107,-4.1107,-4.1107,-4.1097,-3.9986,-4.0057,-4.0127,-4.0186,-4.0253,-4.0301,-4.0301,-4.0301,-4.0301,-4.0301,-4.0301,-4.0301,-4.0336,-4.0355,-4.0413,-4.0586,-4.0771,-4.0967,-4.1085,-4.1107,-4.1107,-4.1107,-4.1107,-4.1107,-4.1107,-4.1107,-4.1107,-4.1107,-4.1107,-4.1107,-4.1107,-4.1107,-4.1107,-4.1107,-4.1107,-4.1107,-4.1107,-4.1107,-4.1107,-4.1107,-4.1107,-4.1107,-4.1107,-4.1107,-4.0971,-4.0796,-4.0796,-4.0659,-4.0484,-4.0484,-4.0484,-4.037,-3.9708,-3.9493,-3.9143,-3.7409,-3.6883,-3.6746,-3.6084,-3.5908,-3.5908,-3.5908,-3.5908,-3.5908,-3.5908,-3.5908,-3.5908,-3.5908,-3.5908,-3.5908,-3.5908,-3.5908,-3.5908,-3.5908,-3.5904,-3.5936,-3.596,-3.5994,-3.6004,0.0,-3.5991,-3.5992,-3.5992,-3.5992,-3.5982,0.0,0.0,-3.5916,-3.5915,-3.5916,-3.5905,-3.5897,-3.5892,-3.5908,-3.5908,-3.5908,-3.6571,-3.7896,-3.8987,-3.9941,-4.0796,-4.101,-4.1107,-4.1107,-4.1107,-4.1107,-4.1107,-4.1107,-4.1107,-4.1107,-4.1107,-4.1107,-4.1107,-4.1107,-4.1107,-4.1097,-4.0036,-4.0098,-4.0166,-4.0234,-4.0291,-4.0301,-4.0301,-4.0301,-4.0301,-4.0301,-4.0301,-4.0301,-4.0301,-4.0301,-4.0381,-4.0559,-4.0718,-4.0864,-4.0996,-4.1071,-4.1107,-4.1107,-4.1107,-4.1107,-4.1107,-4.1107,-4.1107,-4.1107,-4.1107,-4.1107,-4.1107,-4.1107,-4.1107,-4.1107,-4.1107,-4.1107,-4.1107,-4.1107,-4.1107,-4.1107,-4.1107,-4.1107,-4.1107,-4.1107,-4.1107,-4.1107,-4.1107,-4.1107,-4.1107,-4.1107,-4.1107,-4.101,-4.0545,-4.039,-4.0136,-3.8772,-3.811,-3.7603,-3.6727,-3.6493,-3.6395,-3.6006,-3.5908,-3.5908,-3.5908,-3.5908,-3.5908,-3.5908,-3.5908,-3.5908,-3.5908,-3.5908,-3.5908,-3.5908,-3.5902,-3.5912,-3.5958,-3.5988,-3.5995,-3.6001,-3.6004,-3.6006,-3.6006,-3.601,-3.5979,-3.5951,-3.5952,0.0,-3.5949,-3.5942,-3.5944,-3.5948,-3.5916,-3.5908,-3.5908,-3.6298,-3.7175,-3.8519,-3.9376,-4.0253,-4.1107,-4.1107,-4.1107,-4.1107,-4.1107,-4.1107,-4.1107,-4.1107,-4.1107,-4.1107,-4.1107,-4.1107,-4.1091,-4.1095,-4.1109,-4.1103,-4.0077,-4.0147,-4.0206,-4.0291,-4.0301,-4.0301,-4.0301,-4.0301,-4.0301,-4.0301,-4.0301,-4.0301,-4.0301,-4.0301,-4.0379,-4.0609,-4.0675,-4.0779,-4.0921,-4.1034,-4.1107,-4.1107,-4.1107,-4.1107,-4.1107,-4.1107,-4.1107,-4.1107,-4.1107,-4.1107,-4.1107,-4.1107,-4.1107,-4.1107,-4.1107,-4.1107,-4.1107,-4.1107,-4.1107,-4.1107,-4.1107,-4.1107,-4.1107,-4.1107,-4.1107,-4.1107,-4.1107,-4.1107,-4.1107,-4.1107,-4.1107,-4.1107,-4.1107,-4.1107,-4.0951,-4.0214,-3.9474,-3.8675,-3.7662,-3.7292,-3.7019,-3.6279,-3.6006,-3.5908,-3.5908,-3.5908,-3.5908,-3.5908,-3.5908,-3.5908,-3.5908,-3.5908,-3.5908,-3.5908,-3.5899,-3.5907,-3.5909,0.0,-3.5984,-3.6005,-3.5992,-3.5997,-3.5999,-3.6006,-3.5991,-3.5992,-3.5992,-3.6009,-3.6002,-3.5994,-3.6007,-3.6007,-3.5924,-3.5967,-3.6084,-3.696,-3.7837,-3.8714,-3.9571,-4.039,-4.1107,-4.1107,-4.1107,-4.1107,-4.1107,-4.1107,-4.1107,-4.1107,-4.1107,-4.1107,-4.1107,-4.1094,-4.1106,-4.1103,-4.1098,-4.1108,-4.0086,-4.0117,-4.0157,-4.0291,-4.0301,-4.0301,-4.0301,-4.0301,-4.0301,-4.0301,-4.0301,-4.0301,-4.0301,-4.0301,-4.0329,-4.0354,-4.0571,-4.0812,-4.1045,-4.1085,-4.1107,-4.1107,-4.1107,-4.1107,-4.1107,-4.1107,-4.1107,-4.1107,-4.1107,-4.1107,-4.1107,-4.1107,-4.1107,-4.1107,-4.1107,-4.1107,-4.1107,-4.1107,-4.1107,-4.1107,-4.1107,-4.1107,-4.1107,-4.1107,-4.1107,-4.1107,-4.1107,-4.1107,-4.1107,-4.1107,-4.1107,-4.1107,-4.1107,-4.1107,-4.1068,-4.0932,-4.0796,-4.0351,-3.8733,-3.7759,-3.7175,-3.7038,-3.6434,-3.5908,-3.5908,-3.5908,-3.5908,-3.5908,-3.5908,-3.5908,-3.5908,-3.5908,-3.5908,-3.5908,-3.5892,-3.5897,-3.5907,0.0,-3.5936,-3.5984,-3.6005,-3.5992,-3.5999,-3.6001,-3.6004,-3.5992,-3.5992,-3.5992,-3.5991,-3.6002,-3.5997,-3.5997,-3.5929,-3.6259,-3.6999,-3.7857,-3.8733,-3.961,-4.0487,-4.0971,-4.1107,-4.1107,-4.1107,-4.1107,-4.1107,-4.1107,-4.1107,-4.1107,-4.1107,-4.1107,-4.1107,-4.1095,-4.1105,-4.1092,-4.1106,-4.1103,-4.0131,-4.0098,-4.0176,-4.0244,-4.0291,-4.0301,-4.0301,-4.0301,-4.0301,-4.0301,-4.0363,-4.0405,-4.0405,-4.0405,-4.0447,-4.0516,-4.0564,-4.0675,-4.0869,-4.1027,-4.1107,-4.1107,-4.1107,-4.1107,-4.1107,-4.1107,-4.1107,-4.1107,-4.1107,-4.1107,-4.1107,-4.1107,-4.1107,-4.1107,-4.1107,-4.1107,-4.1107,-4.1107,-4.1107,-4.1107,-4.1107,-4.1107,-4.1107,-4.1107,-4.1107,-4.1107,-4.1107,-4.1107,-4.1107,-4.1107,-4.1107,-4.1107,-4.1107,-4.1107,-4.1107,-4.1107,-4.0776,-4.0214,-3.9415,-3.8558,-3.7896,-3.7896,-3.7233,-3.659,-3.659,-3.624,-3.5908,-3.5908,-3.5908,-3.5908,-3.5908,-3.5908,-3.5908,-3.5908,-3.5908,-3.5892,-3.5897,-3.5899,-3.5902,-3.5946,-3.5953,-3.5958,-3.5945,-3.599,-3.5994,-3.5999,-3.5999,-3.6001,-3.6006,-3.5972,-3.5966,-3.5992,-3.638,-3.6793,-3.7194,-3.8539,-3.9396,-3.9805,-4.0679,-4.1107,-4.1107,-4.1107,-4.1107,-4.1107,-4.1107,-4.1107,-4.1107,-4.1107,-4.1107,-4.1107,-4.1107,-4.1103,-4.1108,-4.1106,-4.1094,-4.1099,-4.0739,-4.0526,-4.0472,-4.0501,-4.0397,-4.0301,-4.0301,-4.0301,-4.0301,-4.0327,-4.0447,-4.0512,-4.0549,-4.0549,-4.06,-4.0687,-4.0629,-4.0629,-4.0736,-4.0975,-4.1081,-4.1045,-4.1081,-4.1107,-4.1107,-4.1107,-4.1107,-4.1107,-4.1107,-4.1107,-4.1107,-4.1107,-4.1107,-4.1107,-4.1107,-4.1107,-4.1107,-4.1107,-4.1107,-4.1107,-4.1107,-4.1107,-4.1107,-4.1107,-4.1107,-4.1107,-4.1107,-4.1107,-4.1107,-4.1107,-4.1107,-4.1107,-4.1107,-4.1107,-4.1107,-4.1107,-4.062,-4.0097,-4.0097,-3.9474,-3.8792,-3.8792,-3.8149,-3.7448,-3.7253,-3.6688,-3.6142,-3.5947,-3.5908,-3.5908,-3.5908,-3.5908,-3.5908,-3.5908,0.0,-3.5908,-3.5908,-3.5908,-3.5908,-3.5908,-3.5899,-3.5907,-3.5909,-3.5958,-3.5981,-3.6005,-3.6005,-3.6007,-3.5995,-3.5942,-3.6033,-3.6274,-3.6884,-3.74,-3.7798,-3.9123,-3.9902,-4.0117,-4.0776,-4.1107,-4.1107,-4.1107,-4.1107,-4.1107,-4.1107,-4.1107,-4.111,-4.1103,-4.1106,-4.1106,-4.1098,-4.1108,-4.1105,-4.1104,-4.1107,-4.1105,-4.2398,-4.1772,-4.127,-4.138,-4.0788,-4.0301,-4.0301,-4.0301,-4.0336,-4.0476,-4.0489,-4.0549,-4.0668,-4.0681,-4.0687,-4.0694,-4.0793,-4.0869,-4.0878,-4.1027,-4.1041,-4.0921,-4.1034,-4.1107,-4.1107,-4.1107,-4.1107,-4.1107,-4.1107,-4.1107,-4.1107,-4.1107,-4.1107,-4.1107,-4.1107,-4.1107,-4.1107,-4.1107,-4.1107,-4.1107,-4.1107,-4.1107,-4.1107,-4.1107,-4.1107,-4.1107,-4.1107,-4.1107,-4.1107,-4.1107,-4.1107,-4.1107,-4.1107,-4.1107,-4.1107,-4.1107,-4.1049,-4.099,-4.099,-4.037,-3.9708,-3.9708,-3.9045,-3.8188,-3.7389,-3.7155,-3.6883,-3.6064,-3.5908,-3.5908,-3.5908,-3.5908,-3.5908,-3.5908,0.0,0.0,-3.5908,-3.5908,-3.5908,-3.5908,-3.5892,-3.5897,-3.5907,-3.589,-3.5934,-3.6003,-3.6005,-3.6005,-3.6005,-3.6005,-3.635,-3.7099,-3.7164,-3.7974,-3.9591,-3.9747,-4.0214,-4.099,-4.1068,-4.1107,-4.1107,-4.1107,-4.1107,-4.1107,-4.1107,-4.1107,-4.1094,-4.1096,-4.1109,-4.1094,-4.1098,-4.1091,-4.1093,-4.1093,-4.1108,-4.1097,-4.2639,-4.2303,-4.2146,-4.2228,-4.1571,-4.1036,-4.1036,-4.0616,-4.031,-4.0372,-4.0519,-4.0642,-4.0694,-4.0765,-4.0828,-4.0828,-4.0782,-4.0784,-4.0784,-4.0907,-4.0988,-4.1027,-4.1075,-4.1107,-4.1107,-4.1107,-4.1107,-4.1107,-4.1107,-4.1107,-4.1107,-4.1107,-4.1107,-4.1107,-4.1107,-4.1107,-4.1107,-4.1107,-4.1107,-4.1107,-4.1107,-4.1107,-4.1107,-4.1107,-4.1107,-4.1107,-4.1107,-4.1107,-4.1107,-4.1107,-4.1107,-4.1107,-4.1107,-4.1107,-4.1107,-4.1107,-4.1107,-4.1107,-4.1107,-4.0854,-4.0601,-4.0601,-3.9961,-3.9221,-3.8889,-3.8383,-3.7759,-3.6883,-3.6707,-3.6532,-3.6006,-3.5908,-3.5908,-3.5908,0.0,-3.5908,-3.5908,-3.5908,-3.5908,-3.5908,-3.5908,-3.5892,-3.5897,-3.5897,-3.5919,-3.5943,-3.5943,-3.616,-3.6713,-3.7259,-3.7937,-3.8801,-3.8814,-3.9123,-3.9786,-4.0351,-4.0776,-4.1107,-4.1107,-4.1107,-4.1107,-4.1107,-4.1107,-4.1107,-4.1107,-4.1106,-4.1093,-4.1107,-4.1104,-4.1099,-4.1105,-4.109,-4.1093,-4.1093,-4.1109,-4.1104,-4.3426,-4.314,-4.3003,-4.3096,-4.2449,-4.182,-4.1533,-4.1036,-4.0596,-4.0392,-4.0564,-4.0712,-4.0754,-4.0874,-4.0952,-4.0952,-4.0874,-4.0828,-4.0828,-4.0917,-4.0996,-4.1107,-4.1107,-4.1107,-4.1107,-4.1107,-4.1107,-4.1107,-4.1107,-4.1107,-4.1107,-4.1107,-4.1107,-4.1107,-4.1107,-4.1107,-4.1107,-4.1107,-4.1107,-4.1107,-4.1107,-4.1107,-4.1107,-4.1107,-4.1107,-4.1107,-4.1107,-4.1107,-4.1107,-4.1107,-4.1107,-4.1107,-4.1107,-4.1107,-4.1107,-4.1107,-4.1107,-4.1107,-4.1107,-4.1107,-4.1107,-4.1107,-4.064,-4.0136,-3.9864,-3.9337,-3.8656,-3.7798,-3.7603,-3.7331,-3.6473,-3.6317,-3.622,-3.5947,-3.5908,-3.5908,-3.5908,-3.5908,-3.5908,-3.5908,-3.5908,-3.5908,-3.5908,-3.6142,-3.6317,-3.6317,-3.6551,-3.6985,-3.7578,-3.8436,-3.9171,-3.9786,-4.0078,-4.0214,-4.0214,-4.0796,-4.1107,-4.1107,-4.1107,-4.1107,-4.1107,-4.1107,-4.1107,-4.1107,-4.1107,-4.1098,-4.1094,-4.1103,-4.11,-4.1092,-4.1093,-4.1094,-4.1094,-4.109,-4.1107,-4.1106,-4.5061,-4.4398,-4.3841,-4.3986,-4.3348,-4.2526,-4.1648,-4.1514,-4.1264,-4.0588,-4.0628,-4.0742,-4.0874,-4.1023,-4.1107,-4.1107,-4.1107,-4.1107,-4.1107,-4.1107,-4.1107,-4.1107,-4.1107,-4.1107,-4.1107,-4.1107,-4.1107,-4.1107,-4.1107,-4.1107,-4.1107,-4.1107,-4.1107,-4.1107,-4.1107,-4.1107,-4.1107,-4.1107,-4.1107,-4.1107,-4.1107,-4.1107,-4.1107,-4.1107,-4.1107,-4.1107,-4.1107,-4.1107,-4.1107,-4.1107,-4.1107,-4.1107,-4.1107,-4.1107,-4.1107,-4.1107,-4.1107,-4.1107,-4.1107,-4.1107,-4.1107,-4.1107,-4.1107,-4.0874,-4.0019,-3.9805,-3.9552,-3.8694,-3.8519,-3.8246,-3.737,-3.7214,-3.6921,-3.6064,-3.5928,-3.5928,-3.5928,-3.5928,-3.5928,-3.5928,-3.5928,-3.5928,-3.5928,-3.6707,-3.7214,-3.7214,-3.8013,-3.8519,-3.8519,-3.9337,-3.9805,-3.9805,-4.064,-4.1107,-4.1107,-4.1107,-4.1107,-4.1107,-4.1107,-4.1107,-4.1107,-4.1107,-4.1107,-4.1107,-4.1107,-4.1098,-4.1095,-4.1101,-4.1093,-4.1091,-4.1098,-4.1109,-4.1109,-4.1109,-4.1109,-4.1109,-4.5091,-4.4927,-4.481,-4.4904,-4.4208,-4.3548,-4.3281,-4.2259,-4.1428,-4.1235,-4.083,-4.0566,-4.0609,-4.0736,-4.0854,-4.0943,-4.0967,-4.0996,-4.1085,-4.1107,-4.1107,-4.1107,-4.1107,-4.1107,-4.1107,-4.1107,-4.1107,-4.1107,-4.1107,-4.1107,-4.1107,-4.1107,-4.1107,-4.1107,-4.1107,-4.1107,-4.1107,-4.1107,-4.1107,-4.1107,-4.1107,-4.1107,-4.1107,-4.1107,-4.1107,-4.1107,-4.1107,-4.1107,-4.1107,-4.1107,-4.1107,-4.1107,-4.1107,-4.1107,-4.1107,-4.1107,-4.1107,-4.1107,-4.1107,-4.1107,-4.1107,-4.1107,-4.1107,-4.1029,-4.0776,-4.0718,-4.0467,-3.9591,-3.9415,-3.9143,-3.8266,-3.811,-3.8032,-3.7779,-3.772,-3.772,-3.772,-3.772,-3.772,-3.772,-3.772,-3.772,-3.772,-3.7954,-3.811,-3.811,-3.8928,-3.9415,-3.9415,-4.0234,-4.0718,-4.0718,-4.0951,-4.1107,-4.1107,-4.1107,-4.1107,-4.1107,-4.1107,-4.1107,-4.1107,-4.1107,-4.1107,-4.1107,-4.1107,-4.1093,-4.11,-4.1105,-4.1094,-4.1098,-4.1093,-4.1109,-4.1109,-4.1109,-4.1109,-4.1109,-4.5091,-4.5159,-4.5213,-4.5297,-4.4857,-4.4399,-4.4045,-4.287,-4.1896,-4.1552,-4.092,-4.0519,-4.0559,-4.0694,-4.0833,-4.0975,-4.098,-4.1003,-4.1088,-4.1107,-4.1107,-4.1107,-4.1107,-4.1107,-4.1107,-4.1107,-4.1107,-4.1107,-4.1107,-4.1107,-4.1107,-4.1107,-4.1107,-4.1107,-4.1107,-4.1107,-4.1107,-4.1107,-4.1107,-4.1107,-4.1107,-4.1107,-4.1107,-4.1107,-4.1107,-4.1107,-4.1107,-4.1107,-4.1107,-4.1107,-4.1107,-4.1107,-4.1107,-4.1107,-4.1107,-4.1107,-4.1107,-4.1107,-4.1107,-4.1107,-4.1107,-4.1107,-4.1107,-4.1107,-4.1107,-4.1107,-4.0951,-4.0429,-4.0312,-4.0058,-3.9162,-3.9006,-3.8909,-3.8558,-3.85,-3.85,-3.85,-3.85,-3.85,-3.85,-3.85,-3.85,-3.85,-3.8811,-3.9162,-3.9493,-4.0019,-4.0312,-4.0312,-4.0815,-4.1107,-4.1107,-4.1107,-4.1107,-4.1107,-4.1107,-4.1107,-4.1107,-4.1107,-4.1107,-4.1107,-4.1107,-4.1107,-4.1107,-4.1107,-4.1091,-4.1098,-4.1105,-4.1094,-4.11,-4.1093,-4.1109,-4.1109,-4.1109,-4.1109,-4.1109,-4.5091,-4.5159,-4.5224,-4.5297,-4.5307,-4.5029,-4.4236,-4.3443,-4.2603,-4.1724,-4.1018,-4.0604,-4.0668,-4.0776,-4.0921,-4.1045,-4.1081,-4.1107,-4.1107,-4.1107,-4.1107,-4.1107,-4.1107,-4.1107,-4.1107,-4.1107,-4.1107,-4.1107,-4.1107,-4.1107,-4.1107,-4.1107,-4.1107,-4.1107,-4.1107,-4.1107,-4.1107,-4.1107,-4.1107,-4.1107,-4.1107,-4.1107,-4.1107,-4.1107,-4.1107,-4.1107,-4.1107,-4.1107,-4.1107,-4.1107,-4.1107,-4.1107,-4.1107,-4.1107,-4.1107,-4.1107,-4.1107,-4.1107,-4.1107,-4.1107,-4.1107,-4.1107,-4.1107,-4.1107,-4.1107,-4.1107,-4.1107,-4.1107,-4.1107,-4.0854,-4.0058,-3.9922,-3.9669,-3.887,-3.8733,-3.8733,-3.8733,-3.8733,-3.8733,-3.8733,-3.8733,-3.8733,-3.8733,-3.9454,-4.0253,-4.1029,-4.1107,-4.1107,-4.1107,-4.1107,-4.1107,-4.1107,-4.1107,-4.1107,-4.1107,-4.1107,-4.1107,-4.1107,-4.1107,-4.1107,-4.1107,-4.1094,-4.1097,-4.1097,-4.11,-4.1108,-4.1103,-4.1103,-4.1093,-4.111,-4.1097,-4.1109,-4.1109,-4.1109,-4.1109,-4.1109,-4.5103,-4.5192,-4.5286,-4.5297,-4.5307,-4.525,-4.5048,-4.4284,-4.3452,-4.2622,-4.1801,-4.1043,-4.0447,-4.0516,-4.0636,-4.0784,-4.098,-4.1107,-4.1107,-4.1107,-4.1107,-4.1107,-4.1107,-4.1107,-4.1107,-4.1107,-4.1107,-4.1107,-4.1107,-4.1107,-4.1107,-4.1107,-4.1107,-4.1107,-4.1107,-4.1107,-4.1107,-4.1107,-4.1107,-4.1107,-4.1107,-4.1107,-4.1107,-4.1107,-4.1107,-4.1107,-4.1107,-4.1107,-4.1107,-4.1107,-4.1107,-4.1107,-4.1107,-4.1107,-4.1107,-4.1107,-4.1107,-4.1107,-4.1107,-4.1107,-4.1107,-4.1107,-4.1107,-4.1107,-4.1107,-4.1107,-4.1107,-4.1107,-4.1107,-4.1029,-4.0854,-4.0815,-4.0757,-4.0565,-4.0545,-4.0545,-4.0545,-4.0545,-4.0545,-4.0545,-4.0545,-4.0545,-4.0545,-4.0718,-4.0893,-4.1088,-4.1107,-4.1107,-4.1107,-4.1107,-4.1107,-4.1107,-4.1107,-4.1107,-4.1107,-4.1107,-4.1107,-4.1107,-4.1107,-4.1107,-4.1091,-4.1108,-4.1103,-4.1103,-4.1108,-4.1106,-4.1094,-4.1094,-4.1109,-4.1095,-4.1091,-4.1109,-4.1109,-4.1109,-4.1109,-4.1109,-4.5103,-4.5181,-4.5246,-4.5297,-4.5307,-4.5307,-4.5307,-4.4571,-4.3701,-4.2908,-4.203,-4.1227,-4.0475,-4.0512,-4.0675,-4.0869,-4.1027,-4.1107,-4.1107,-4.1107,-4.1107,-4.1107,-4.1107,-4.1107,-4.1107,-4.1107,-4.1107,-4.1107,-4.1107,-4.1107,-4.1107,-4.1107,-4.1107,-4.1107,-4.1107,-4.1107,-4.1107,-4.1107,-4.1107,-4.1107,-4.1107,-4.1107,-4.1107,-4.1107,-4.1107,-4.1107,-4.1107,-4.1107,-4.1107,-4.1107,-4.1107,-4.1107,-4.1107,-4.1107,-4.1107,-4.1107,-4.1107,-4.1107,-4.1107,-4.1107,-4.1107,-4.1107,-4.1107,-4.1107,-4.1107,-4.1107,-4.1107,-4.1107,-4.1107,-4.1107,-4.1107,-4.1107,-4.1107,-4.1107,-4.1107,-4.1107,-4.1107,-4.1107,-4.1107,-4.1107,-4.1107,-4.1107,-4.1107,-4.1107,-4.1107,-4.1107,-4.1107,-4.1107,-4.1107,-4.1107,-4.1107,-4.1107,-4.1107,-4.1107,-4.1107,-4.1107,-4.1107,-4.1107,-4.1107,-4.1103,-4.1103,-4.1105,-4.1101,-4.1094,-4.1104,-4.1091,-4.1094,-4.1093,-4.1108,-4.1102,-4.1094,-4.1109,-4.1109,-4.1109,-4.1109,-4.1109,-4.5061,-4.5148,-4.5213,-4.5275,-4.5297,-4.5307,-4.5307,-4.4685,-4.393,-4.3119,-4.2259,-4.1446,-4.074,-4.0691,-4.0812,-4.1078,-4.1107,-4.1107,-4.1107,-4.1107,-4.1107,-4.1107,-4.1107,-4.1107,-4.1107,-4.1107,-4.1107,-4.1107,-4.1107,-4.1107,-4.1107,-4.1107,-4.1107,-4.1107,-4.1107,-4.1107,-4.1107,-4.1107,-4.1107,-4.1107,-4.1107,-4.1107,-4.1107,-4.1107,-4.1107,-4.1107,-4.1107,-4.1107,-4.1107,-4.1107,-4.1107,-4.1107,-4.1107,-4.1107,-4.1107,-4.1107,-4.1107,-4.1107,-4.1107,-4.1107,-4.1107,-4.1107,-4.1107,-4.1107,-4.1107,-4.1107,-4.1107,-4.1107,-4.1107,-4.1107,-4.1107,-4.1107,-4.1107,-4.1107,-4.1107,-4.1107,-4.1107,-4.1107,-4.1107,-4.1107,-4.1107,-4.1107,-4.1107,-4.1107,-4.1107,-4.1107,-4.1107,-4.1107,-4.1107,-4.1107,-4.1107,-4.1107,-4.1107,-4.1107,-4.1107,-4.1107,-4.1107,-4.1107,-4.1097,-4.1098,-4.1105,-4.1097,-4.1091,-4.1104,-4.1091,-4.1092,-4.1091,-4.1093,-4.1109,-4.1108,-4.1097,-4.1109,-4.1109,-4.1109,-4.1109,-4.1109,-4.5003,-4.5114,-4.5203,-4.5203,-4.5265,-4.5307,-4.5307,-4.5201,-4.48,-4.3949,-4.3138,-4.2307,-4.1456,-4.0973,-4.0812,-4.1078,-4.1107,-4.1107,-4.1107,-4.1107,-4.1107,-4.1107,-4.1107,-4.1107,-4.1107,-4.1107,-4.1107,-4.1107,-4.1107,-4.1107,-4.1107,-4.1107,-4.1107,-4.1107,-4.1107,-4.1107,-4.1107,-4.1107,-4.1107,-4.1107,-4.1107,-4.1107,-4.1107,-4.1107,-4.1107,-4.1107,-4.1107,-4.1107,-4.1107,-4.1107,-4.1107,-4.1107,-4.1107,-4.1107,-4.1107,-4.1107,-4.1107,-4.1107,-4.1107,-4.1107,-4.1107,-4.1107,-4.1107,-4.1107,-4.1107,-4.1107,-4.1107,-4.1107,-4.1107,-4.1107,-4.1107,-4.1107,-4.1107,-4.1107,-4.1107,-4.1107,-4.1107,-4.1107,-4.1107,-4.1107,-4.1107,-4.1107,-4.1107,-4.1107,-4.1107,-4.1107,-4.1107,-4.1107,-4.1107,-4.1107,-4.1107,-4.1107,-4.1107,-4.1107,-4.1107,-4.1107,-4.1107,-4.111,-4.1091,-4.1091,-4.1103,-4.1108,-4.1098,-4.1103,-4.1092,-4.1105,-4.1092,-4.1101,-4.1094,-4.1094,-4.1091,-4.1109,-4.1109,-4.1109,-4.1109,-4.1109,-4.4979,-4.508,-4.5159,-4.5192,-4.5265,-4.5307,-4.5307,-4.5307,-4.4991,-4.4102,-4.331,-4.2469,-4.159,-4.1016,-4.0812,-4.1078,-4.1107,-4.1107,-4.1107,-4.1107,-4.1107,-4.1107,-4.1107,-4.1107,-4.1107,-4.1107,-4.1107,-4.1107,-4.1107,-4.1107,-4.1107,-4.1107,-4.1107,-4.1107,-4.1107,-4.1107,-4.1107,-4.1107,-4.1107,-4.1107,-4.1107,-4.1107,-4.1107,-4.1107,-4.1107,-4.1107,-4.1107,-4.1107,-4.1107,-4.1107,-4.1107,-4.1107,-4.1107,-4.1107,-4.1107,-4.1107,-4.1107,-4.1107,-4.1107,-4.1107,-4.1107,-4.1107,-4.1107,-4.1107,-4.1107,-4.1107,-4.1107,-4.1107,-4.1107,-4.1107,-4.1107,-4.1107,-4.1107,-4.1107,-4.1107,-4.1107,-4.1107,-4.1107,-4.1107,-4.1107,-4.1107,-4.1107,-4.1107,-4.1107,-4.1107,-4.1107,-4.1107,-4.1107,-4.1107,-4.1107,-4.1107,-4.1107,-4.1107,-4.1107,-4.1107,-4.1107,-4.1107,-4.111,-4.1092,-4.1096,-4.1101,-4.1109,-4.1094,-4.1094,-4.1109,-4.1103,-4.1102,-4.1104,-4.1099,-4.1109,-4.1109,-4.1109,-4.1109,-4.1109,-4.1109,-4.1109]},{"header":{"parameterUnit":"m.s-1","parameterCategory":1,"la1":30.6,"la2":28.766,"lo1":-90.7593,"lo2":-88.6598,"dy":0.0162,"dx":0.0183,"nx":116,"ny":114,"refTime":"2023-08-27T12:00:00:Z","depth":0,"parameterNumber":3,"parameterNumberName":"V-component_of_WINDS"},"data":[0.0,0.0,0.0,0.0,0.0,0.0,0.0,0.0,0.0,0.0,0.0,0.0,0.0,0.0,0.0,0.0,0.0,0.0,0.0,0.0,0.0,0.0,0.0,0.0,0.0,0.0,0.0,0.0,0.0,0.0,0.0,0.0,0.0,0.0,0.0,0.0,0.0,0.0,0.0,0.0,0.0,0.0,0.0,0.0,0.0,0.0,0.0,0.0,0.0,0.0,0.0,0.0,0.0,0.0,0.0,0.0,0.0,0.0,0.0,0.0,0.0,0.0,0.0,0.0,0.0,0.0,0.0,0.0,0.0,0.0,0.0,0.0,0.0,0.0,0.0,0.0,0.0,0.0,0.0,0.0,0.0,0.0,0.0,0.0,0.0,0.0,0.0,0.0,0.0,0.0,0.0,0.0,0.0,0.0,0.0,0.0,0.0,0.0,0.0,0.0,0.0,0.0,0.0,0.0,0.0,0.0,0.0,0.0,0.0,0.0,0.0,0.0,0.0,0.0,0.0,0.0,0.0,0.0,0.0,0.0,0.0,0.0,0.0,0.0,0.0,0.0,0.0,0.0,0.0,0.0,0.0,0.0,0.0,0.0,0.0,0.0,0.0,0.0,0.0,0.0,0.0,0.0,0.0,0.0,0.0,0.0,0.0,0.0,0.0,0.0,0.0,0.0,0.0,0.0,0.0,0.0,0.0,0.0,0.0,0.0,0.0,0.0,0.0,0.0,0.0,0.0,0.0,0.0,0.0,0.0,0.0,0.0,0.0,0.0,0.0,0.0,0.0,0.0,0.0,0.0,0.0,0.0,0.0,0.0,0.0,0.0,0.0,0.0,0.0,0.0,0.0,0.0,0.0,0.0,0.0,0.0,0.0,0.0,0.0,0.0,0.0,0.0,0.0,0.0,0.0,0.0,0.0,0.0,0.0,0.0,0.0,0.0,0.0,0.0,0.0,0.0,0.0,0.0,0.0,0.0,0.0,0.0,0.0,0.0,0.0,0.0,0.0,0.0,0.0,0.0,0.0,0.0,0.0,0.0,0.0,0.0,0.0,0.0,0.0,0.0,0.0,0.0,0.0,0.0,0.0,0.0,0.0,0.0,0.0,0.0,0.0,0.0,0.0,0.0,0.0,0.0,0.0,0.0,0.0,0.0,0.0,0.0,0.0,0.0,0.0,0.0,0.0,0.0,0.0,0.0,0.0,0.0,0.0,0.0,0.0,0.0,0.0,0.0,0.0,0.0,0.0,0.0,0.0,0.0,0.0,0.0,0.0,0.0,0.0,0.0,0.0,0.0,0.0,0.0,0.0,0.0,0.0,0.0,0.0,0.0,0.0,0.0,0.0,0.0,0.0,0.0,0.0,0.0,0.0,0.0,0.0,0.0,0.0,0.0,0.0,0.0,0.0,0.0,0.0,0.0,0.0,0.0,0.0,0.0,0.0,0.0,0.0,0.0,0.0,0.0,0.0,0.0,0.0,0.0,0.0,0.0,0.0,0.0,0.0,0.0,0.0,0.0,0.0,0.0,0.0,0.0,0.0,0.0,0.0,0.0,0.0,0.0,0.0,0.0,0.0,0.0,0.0,0.0,0.0,0.0,0.0,0.0,0.0,0.0,0.0,0.0,0.0,0.0,0.0,0.0,0.0,0.0,0.0,0.0,0.0,0.0,0.0,0.0,0.0,0.0,0.0,0.0,0.0,0.0,0.0,0.0,0.0,0.0,0.0,0.0,0.0,0.0,0.0,0.0,0.0,0.0,0.0,0.0,0.0,0.0,0.0,0.0,0.0,0.0,0.0,0.0,0.0,0.0,0.0,0.0,0.0,0.0,0.0,0.0,0.0,0.0,0.0,0.0,0.0,0.0,0.0,0.0,0.0,0.0,0.0,0.0,0.0,0.0,0.0,0.0,0.0,0.0,0.0,0.0,0.0,0.0,0.0,0.0,0.0,0.0,0.0,0.0,0.0,0.0,0.0,0.0,0.0,0.0,0.0,0.0,0.0,0.0,0.0,0.0,0.0,0.0,0.0,0.0,0.0,0.0,0.0,0.0,0.0,0.0,0.0,0.0,0.0,0.0,0.0,0.0,0.0,0.0,0.0,0.0,0.0,0.0,0.0,0.0,0.0,0.0,0.0,0.0,0.0,0.0,0.0,0.0,0.0,0.0,0.0,0.0,0.0,0.0,0.0,0.0,0.0,0.0,0.0,0.0,0.0,0.0,0.0,0.0,0.0,0.0,0.0,0.0,0.0,0.0,0.0,0.0,0.0,0.0,0.0,0.0,0.0,0.0,0.0,0.0,0.0,0.0,0.0,0.0,0.0,0.0,0.0,0.0,0.0,0.0,0.0,0.0,0.0,0.0,0.0,0.0,0.0,0.0,0.0,0.0,0.0,0.0,0.0,0.0,0.0,0.0,0.0,0.0,0.0,0.0,0.0,0.0,0.0,0.0,0.0,0.0,0.0,0.0,0.0,0.0,0.0,0.0,0.0,0.0,0.0,0.0,0.0,0.0,0.0,0.0,0.0,0.0,0.0,0.0,0.0,0.0,0.0,0.0,0.0,0.0,0.0,0.0,0.0,0.0,0.0,0.0,0.0,0.0,0.0,0.0,0.0,0.0,0.0,0.0,0.0,0.0,0.0,0.0,0.0,0.0,0.0,0.0,0.0,0.0,0.0,0.0,0.0,0.0,0.0,0.0,0.0,0.0,0.0,0.0,0.0,0.0,0.0,0.0,0.0,0.0,0.0,0.0,0.0,0.0,0.0,0.0,0.0,0.0,0.0,0.0,0.0,0.0,0.0,0.0,0.0,0.0,0.0,0.0,0.0,0.0,0.0,0.0,0.0,0.0,0.0,0.0,0.0,0.0,0.0,0.0,0.0,0.0,0.0,0.0,0.0,0.0,0.0,0.0,0.0,0.0,0.0,0.0,0.0,0.0,0.0,0.0,0.0,0.0,0.0,0.0,0.0,0.0,0.0,0.0,0.0,0.0,0.0,0.0,0.0,0.0,0.0,0.0,0.0,0.0,0.0,0.0,0.0,0.0,0.0,0.0,0.0,0.0,0.0,0.0,0.0,0.0,0.0,0.0,0.0,0.0,0.0,0.0,0.0,0.0,0.0,0.0,0.0,0.0,0.0,0.0,0.0,0.0,0.0,0.0,0.0,0.0,0.0,0.0,0.0,0.0,0.0,0.0,0.0,0.0,0.0,0.0,0.0,0.0,0.0,0.0,0.0,0.0,0.0,0.0,0.0,0.0,0.0,0.0,0.0,0.0,0.0,0.0,0.0,0.0,0.0,0.0,0.0,0.0,0.0,0.0,0.0,0.0,0.0,0.0,0.0,0.0,0.0,0.0,0.0,0.0,0.0,0.0,0.0,0.0,0.0,0.0,0.0,0.0,0.0,0.0,0.0,0.0,0.0,0.0,0.0,0.0,0.0,0.0,0.0,0.0,0.0,0.0,0.0,0.0,0.0,0.0,0.0,0.0,0.0,0.0,0.0,0.0,0.0,0.0,0.0,0.0,0.0,0.0,0.0,0.0,0.0,0.0,0.0,0.0,0.0,0.0,0.0,0.0,0.0,0.0,0.0,0.0,0.0,0.0,0.0,0.0,0.0,0.0,0.0,0.0,0.0,0.0,0.0,0.0,0.0,0.0,0.0,0.0,0.0,0.0,0.0,0.0,0.0,0.0,0.0,0.0,0.0,0.0,0.0,0.0,0.0,0.0,0.0,0.0,0.0,0.0,0.0,0.0,0.0,0.0,0.0,0.0,0.0,0.0,0.0,0.0,0.0,0.0,0.0,0.0,0.0,0.0,0.0,0.0,0.0,0.0,0.0,0.0,0.0,0.0,0.0,0.0,0.0,0.0,0.0,0.0,0.0,0.0,0.0,0.0,0.0,0.0,0.0,0.0,0.0,0.0,0.0,0.0,0.0,0.0,0.0,0.0,0.0,0.0,0.0,0.0,0.0,0.0,0.0,0.0,0.0,0.0,0.0,0.0,0.0,0.0,0.0,0.0,0.0,0.0,0.0,0.0,0.0,0.0,0.0,0.0,0.0,0.0,0.0,0.0,0.0,0.0,0.0,0.0,0.0,0.0,0.0,0.0,0.0,0.0,0.0,0.0,0.0,0.0,0.0,0.0,0.0,0.0,0.0,0.0,0.0,0.0,0.0,0.0,0.0,0.0,0.0,0.0,0.0,0.0,0.0,0.0,0.0,0.0,0.0,0.0,0.0,0.0,0.0,0.0,0.0,0.0,0.0,0.0,0.0,0.0,0.0,0.0,0.0,0.0,0.0,0.0,0.0,0.0,0.0,0.0,0.0,0.0,0.0,0.0,0.0,0.0,0.0,0.0,0.0,0.0,0.0,0.0,0.0,0.0,0.0,0.0,0.0,0.0,0.0,0.0,0.0,0.0,0.0,0.0,0.0,0.0,0.0,0.0,0.0,0.0,0.0,0.0,0.0,0.0,0.0,0.0,0.0,0.0,0.0,0.0,0.0,0.0,0.0,0.0,0.0,0.0,0.0,0.0,0.0,0.0,0.0,0.0,0.0,0.0,0.0,0.0,0.0,0.0,0.0,0.0,0.0,0.0,0.0,0.0,0.0,0.0,0.0,0.0,0.0,0.0,0.0,0.0,0.0,0.0,0.0,0.0,0.0,0.0,0.0,0.0,0.0,0.0,0.0,0.0,0.0,0.0,0.0,0.0,0.0,0.0,0.0,0.0,0.0,0.0,0.0,0.0,0.0,0.0,0.0,0.0,0.0,0.0,0.0,0.0,0.0,0.0,0.0,0.0,0.0,0.0,0.0,0.0,0.0,0.0,0.0,0.0,0.0,0.0,0.0,0.0,0.0,0.0,0.0,0.0,0.0,0.0,0.0,0.0,0.0,0.0,0.0,0.0,0.0,0.0,0.0,0.0,0.0,0.0,0.0,0.0,0.0,0.0,0.0,0.0,0.0,0.0,0.0,0.0,0.0,0.0,0.0,0.0,0.0,0.0,0.0,0.0,0.0,0.0,0.0,0.0,0.0,0.0,0.0,0.0,0.0,0.0,0.0,0.0,0.0,0.0,0.0,0.0,0.0,0.0,0.0,0.0,0.0,0.0,0.0,0.0,0.0,0.0,0.0,0.0,0.0,0.0,0.0,0.0,0.0,0.0,0.0,0.0,0.0,0.0,0.0,0.0,0.0,0.0,0.0,0.0,0.0,0.0,0.0,0.0,0.0,0.0,0.0,0.0,0.0,0.0,0.0,0.0,0.0,0.0,0.0,0.0,0.0,0.0,0.0,0.0,0.0,0.0,0.0,0.0,0.0,0.0,0.0,0.0,0.0,0.0,0.0,0.0,0.0,0.0,0.0,0.0,0.0,0.0,0.0,0.0,0.0,0.0,0.0,0.0,0.0,0.0,0.0,0.0,0.0,0.0,0.0,0.0,0.0,0.0,0.0,0.0,0.0,0.0,0.0,0.0,0.0,0.0,0.0,0.0,0.0,0.0,0.0,0.0,0.0,0.0,0.0,0.0,0.0,0.0,0.0,0.0,0.0,0.0,0.0,0.0,0.0,0.0,0.0,0.0,0.0,0.0,0.0,0.0,0.0,0.0,0.0,0.0,0.0,0.0,0.0,0.0,0.0,0.0,0.0,0.0,0.0,0.0,0.0,0.0,0.0,0.0,0.0,0.0,0.0,0.0,0.0,0.0,0.0,0.0,0.0,0.0,0.0,0.0,0.0,0.0,0.0,0.0,0.0,0.0,0.0,0.0,0.0,0.0,0.0,0.0,0.0,0.0,0.0,0.0,0.0,0.0,0.0,0.0,0.0,0.0,0.0,0.0,0.0,0.0,0.0,0.0,0.0,0.0,0.0,0.0,0.0,0.0,0.0,0.0,0.0,0.0,0.0,0.0,0.0,0.0,0.0,0.0,0.0,0.0,0.0,0.0,0.0,0.0,0.0,0.0,0.0,0.0,0.0,0.0,0.0,0.0,0.0,0.0,0.0,0.0,0.0,0.0,0.0,0.0,0.0,0.0,0.0,0.0,0.0,0.0,0.0,0.0,0.0,0.0,0.0,0.0,0.0,0.0,0.0,0.0,0.0,0.0,0.0,0.0,0.0,0.0,1.1324,0.0,0.0,0.0,0.0,0.0,0.0,0.0,0.0,0.0,0.0,0.0,0.0,0.0,0.0,0.0,0.0,0.0,0.0,0.0,0.0,0.0,0.0,0.0,0.0,0.0,0.0,0.0,0.0,0.0,0.0,0.0,0.0,0.0,0.0,0.0,0.0,0.0,0.0,0.356,0.4164,0.4575,0.4861,0.6013,0.6794,0.7249,0.0,0.0,0.0,0.0,0.0,0.0,0.0,0.0,0.0,0.0,0.0,0.0,0.0,0.0,0.0,0.0,0.0,0.0,0.0,0.0,0.0,0.0,0.0,0.0,0.0,0.0,0.0,0.0,0.0,0.0,0.0,0.0,0.0,0.0,0.0,0.0,0.0,0.0,0.0,0.0,0.0,0.0,0.0,0.0,0.0,0.0,0.0,0.0,0.0,0.0,0.0,0.0,0.0,0.0,0.0,0.0,0.0,0.0,0.0,0.0,0.0,0.0,0.0,0.0,0.0,0.0,0.0,0.0,0.0,0.0,0.0,1.1221,0.0,0.0,0.0,0.0,0.0,0.0,0.0,0.0,0.0,0.0,0.0,0.0,0.0,0.0,0.0,0.0,0.0,0.0,0.0,0.0,0.0,0.0,0.0,0.0,0.0,0.0,0.0196,0.0336,0.0,0.0,0.0,0.0,0.0,0.0,0.1951,0.2012,0.2228,0.2658,0.2963,0.3338,0.3782,0.4356,0.5028,0.5797,0.6336,0.0,0.0,0.0,0.0,0.0,0.0,0.0,0.0,0.0,0.0,0.0,0.0,0.0,0.0,0.0,0.0,0.0,0.0,0.0,0.0,0.0,0.0,0.0,0.0,0.0,0.0,0.0,0.0,0.0,0.0,0.0,0.0,0.0,0.0,0.0,0.0,0.0,0.0,0.0,0.0,0.0,0.0,0.0,0.0,0.0,0.0,0.0,0.0,0.0,0.0,0.0,0.0,0.0,0.0,0.0,0.0,0.0,0.0,0.0,0.0,0.0,0.0,0.0,0.9801,0.965,0.9676,0.9676,0.9624,0.9578,1.0535,1.073,1.037,1.0744,0.0,0.0,0.0,0.0,0.0,0.0,0.0,0.0,0.0,0.0,0.0,0.0,0.0,0.0,0.0,0.0,0.0,0.0,0.0,0.0,0.0,0.0,0.0,0.0,0.0028,0.0112,0.0224,0.0,0.0,0.0,0.0,0.0,0.0644,0.1325,0.1696,0.176,0.2432,0.28,0.2878,0.3587,0.4,0.4153,0.4986,0.5367,0.538,0.0,0.0,0.0,0.0,0.0,0.0,0.0,0.0,0.0,0.0,0.0,0.0,0.0,0.0,0.0,0.0,0.0,0.0,0.0,0.0,0.0,0.0,0.0,0.0,0.0,0.0,0.0,0.0,0.0,0.0,0.0,0.0,0.0,0.0,0.0,0.0,0.0,0.0,0.0,0.0,0.0,0.8894,0.908,0.0,0.0,0.0,0.0,0.0,0.0,0.0,0.0,0.0,0.0,0.0,0.0,0.0,1.0257,1.0116,0.9888,0.9888,1.0116,0.9888,0.986,1.0038,1.0038,1.0038,1.0009,1.0002,0.0,0.9387,0.9569,0.0,0.0,0.0,0.0,0.0,0.0,0.0,0.0,0.0,0.0,0.0,0.0,0.0,0.0,0.0,0.0,0.0,0.0,0.0,0.0,0.0,-0.0056,-0.0028,-0.0112,-0.0056,0.0028,0.0086,0.0088,0.0,0.0,0.0,0.0253,0.0444,0.0717,0.0859,0.0859,0.1502,0.1811,0.1811,0.295,0.3453,0.3487,0.4292,0.4761,0.4935,0.5036,0.0,0.0,0.0,0.0,0.0,0.0,0.0,0.0,0.0,0.0,0.0,0.0,0.0,0.0,0.0,0.0,0.0,0.0,0.0,0.0,0.0,0.0,0.0,0.0,0.0,0.0,0.0,0.0,0.0,0.0,0.0,0.0,0.0,0.0,0.0,0.0,0.0,0.0,0.0,0.7676,0.7884,0.8257,0.8528,0.8893,0.0,0.0,0.0,0.0,0.0,0.0,0.0,0.0,0.0,0.9673,0.9673,0.965,0.9592,0.9505,0.9505,0.9592,0.9505,0.9505,0.9592,0.9592,0.9592,0.9592,0.9505,0.9361,0.9215,0.9424,0.9424,0.932,0.0,0.0,0.0,0.0,0.8733,0.8705,0.0,0.0,0.0,0.0,0.0,0.0,0.0,0.0,0.0,0.0,0.0,0.0,-0.0196,-0.014,-0.014,-0.0252,-0.017,-0.0115,-0.0059,-0.006,-0.003,0.0062,0.0032,0.0065,0.0228,0.0167,0.0169,0.0236,0.064,0.0807,0.0841,0.208,0.2648,0.2714,0.3625,0.4261,0.4664,0.4731,0.4827,0.4948,0.0,0.0,0.0,0.0,0.0,0.0,0.0,0.0,0.0,0.0,0.0,0.0,0.0,0.0,0.0,0.0,0.0,0.0,0.0,0.0,0.0,0.0,0.0,0.0,0.0,0.0,0.0,0.0,0.0,0.0,0.0,0.0,0.0,0.0,0.0,0.0,0.0,0.7036,0.7322,0.7727,0.8267,0.8757,0.0,0.0,0.0,0.0,0.0,0.0,0.9508,0.9484,0.9516,0.9616,0.9585,0.9591,0.9616,0.9524,0.9524,0.9616,0.9591,0.9585,0.9616,0.9616,0.9616,0.9616,0.9585,0.9493,0.9413,0.9476,0.9418,0.9301,0.9191,0.9068,0.8909,0.8763,0.871,0.8651,0.0,0.0,0.0,0.0,0.0,0.0,0.0,0.0,0.0,0.0,0.0,-0.0196,-0.0196,-0.0308,-0.0393,-0.0393,-0.0433,-0.0382,-0.0206,-0.0249,-0.029,-0.029,-0.0099,-0.0135,-0.0437,-0.0337,-0.0169,0.0,0.0034,0.0067,0.0067,0.0841,0.121,0.1276,0.2649,0.3656,0.4334,0.4528,0.4625,0.4625,0.4755,0.0,0.0,0.0,0.0,0.0,0.0,0.0,0.0,0.0,0.0,0.0,0.0,0.0,0.0,0.0,0.0,0.0,0.0,0.0,0.0,0.0,0.0,0.0,0.0,0.0,0.0,0.0,0.0,0.0,0.0,0.0,0.0,0.0,0.0,0.0,0.0,0.0,0.0,0.7427,0.8176,0.0,0.0,0.0,0.0,0.9584,0.9712,0.9937,1.0318,1.0205,1.0323,1.0716,1.0592,1.0592,1.0722,1.0414,1.0414,1.0722,1.0592,1.0592,1.0722,1.0722,1.0722,1.0722,1.0592,1.0317,0.9936,0.9414,0.9126,0.9032,0.9003,0.8886,0.871,0.871,0.871,0.8651,0.0,0.0,0.0,0.0,0.0,0.0,0.0,0.0,-0.0084,0.0,-0.0112,-0.0224,-0.0308,-0.0364,-0.0453,-0.0578,-0.0527,-0.048,-0.0405,-0.0415,-0.0423,-0.0431,-0.0409,-0.038,-0.038,-0.0408,-0.034,-0.0207,-0.0207,-0.0209,-0.0177,0.0709,0.1098,0.1134,0.2086,0.2581,0.2752,0.3917,0.4398,0.4398,0.4228,0.4125,0.0,0.0,0.0,0.0,0.0,0.0,0.0,0.0,0.0,0.0,0.0,0.0,0.0,0.0,0.0,0.0,0.0,0.0,0.0,0.0,0.0,0.0,0.0,0.0,0.0,0.0,0.0,0.0,0.0,0.0,0.0,0.0,0.0,0.0,0.0,0.0,0.0,0.6419,0.7547,0.0,0.8884,0.9165,0.9429,0.9665,0.9484,0.94,0.9548,0.9525,0.9564,0.9719,0.9649,0.9655,0.9719,0.9585,0.9585,0.9684,0.926,0.9295,0.9684,0.9295,0.9329,0.9719,0.9655,0.955,0.9418,0.9209,0.9039,0.886,0.886,0.8891,0.8873,0.866,0.8723,0.8811,0.0,0.0,0.0,0.0,0.0,0.0,0.0,0.0,-0.0168,-0.0084,-0.0252,-0.0393,-0.0505,-0.0533,-0.0625,-0.0764,-0.0714,-0.0643,-0.0612,-0.0587,-0.0597,-0.0648,-0.0729,-0.0665,-0.042,-0.0551,-0.0554,-0.039,-0.039,-0.0394,-0.0401,0.0219,0.051,0.0546,0.1238,0.1455,0.1415,0.2767,0.3466,0.3641,0.3605,0.3591,0.3558,0.0,0.0,0.0,0.0,0.0,0.0,0.0,0.0,0.0,0.0,0.0,0.0,0.0,0.0,0.0,0.0,0.0,0.0,0.0,0.0,0.0,0.0,0.0,0.0,0.0,0.0,0.0,0.0,0.0,0.0,0.0,0.0,0.0,0.0,0.0,0.5612,0.5837,0.6984,0.8002,0.8609,0.8832,0.9005,0.919,0.895,0.8765,0.8702,0.8707,0.874,0.8847,0.8852,0.8852,0.8852,0.8852,0.8852,0.8852,0.844,0.8481,0.8852,0.844,0.8481,0.8852,0.8852,0.8783,0.8667,0.8626,0.8404,0.8131,0.8684,0.894,0.9003,0.8776,0.8837,0.897,0.0,0.0,0.0,0.0,0.0,0.0,0.0,-0.0112,-0.0224,-0.0196,-0.0505,-0.0701,-0.0701,-0.0814,-0.0911,-0.0912,-0.0972,-0.094,-0.0807,-0.0797,-0.0853,-0.0909,-0.1015,-0.0945,-0.0631,-0.0806,-0.0817,-0.062,-0.062,-0.062,-0.0621,-0.0621,-0.0584,-0.0584,0.0073,0.0365,0.0402,0.1129,0.1794,0.2343,0.2895,0.3131,0.3129,0.0,0.0,0.0,0.0,0.0,0.0,0.0,0.0,0.0,0.0,0.0,0.0,0.0,0.0,0.0,0.0,0.0,0.0,0.0,0.0,0.0,0.0,0.0,0.0,0.0,0.0,0.0,0.0,0.0,0.0,0.0,0.0,0.0,0.3661,0.4791,0.561,0.5724,0.6561,0.7392,0.8096,0.8186,0.8195,0.8205,0.817,0.8092,0.7876,0.7859,0.8026,0.8348,0.836,0.836,0.836,0.836,0.836,0.836,0.8356,0.8356,0.836,0.8356,0.8356,0.836,0.836,0.816,0.7786,0.7652,0.7246,0.6873,0.8421,0.9025,0.902,0.902,0.9055,0.9025,0.0,0.0,0.0,0.0,0.0,0.0,-0.0028,-0.0308,-0.0477,-0.0224,-0.0505,-0.0701,-0.0701,-0.0831,-0.0913,-0.0973,-0.1003,-0.1001,-0.1029,-0.1005,-0.1022,-0.1049,-0.1065,-0.1004,-0.0829,-0.0955,-0.0967,-0.0824,-0.0824,-0.0832,-0.0808,-0.0654,-0.0616,-0.0577,-0.0423,-0.0423,-0.05,0.0075,0.0336,0.0444,0.1259,0.1617,0.1624,0.0,0.0,0.0,0.0,0.0,0.0,0.0,0.0,0.0,0.0,0.0,0.0,0.0,0.0,0.0,0.0,0.0,0.0,0.0,0.0,0.0,0.0,0.0,0.0,0.0,0.0,0.0,0.0,0.0,0.0,0.0,0.0,0.3186,0.308,0.3941,0.4605,0.4684,0.6153,0.7164,0.7181,0.7809,0.8116,0.7924,0.7624,0.7469,0.7402,0.7406,0.7448,0.754,0.7544,0.7544,0.7544,0.7544,0.7544,0.7544,0.7094,0.7094,0.7503,0.7094,0.7136,0.7544,0.7544,0.7465,0.7379,0.7334,0.7208,0.7086,0.7213,0.7343,0.7473,0.7646,0.8004,0.8357,0.0,0.0,0.0,0.0,0.0,0.0,-0.0028,-0.028,-0.0449,-0.0308,-0.0533,-0.0729,-0.0785,-0.0867,-0.0925,-0.0986,-0.0985,-0.1013,-0.1107,-0.1087,-0.1097,-0.1102,-0.1144,-0.1095,-0.102,-0.1089,-0.1109,-0.1077,-0.1077,-0.1084,-0.1061,-0.0943,-0.0904,-0.0904,-0.0904,-0.0943,-0.1059,-0.0735,-0.0654,-0.073,-0.0189,0.0331,0.0747,0.089,0.0946,0.0991,0.1231,0.1324,0.1344,0.1446,0.0,0.0,0.0,0.0,0.0,0.0,0.0,0.0,0.0,0.0,0.0,0.0,0.0,0.0,0.0,0.0,0.0,0.0,0.0,0.0,0.0,0.0,0.0,0.0,0.2459,0.2943,0.2968,0.3786,0.447,0.4596,0.5578,0.6369,0.6558,0.7102,0.7341,0.7166,0.6974,0.6712,0.6486,0.6486,0.6515,0.6577,0.658,0.658,0.658,0.658,0.658,0.658,0.6199,0.6242,0.658,0.6199,0.6242,0.658,0.658,0.658,0.6574,0.6512,0.6486,0.0,0.0,0.0,0.0,0.0,0.7306,0.7604,0.0,0.0,0.0,0.0,0.0,0.0,0.0,-0.014,-0.0252,-0.0393,-0.0589,-0.0757,-0.0898,-0.0899,-0.0929,-0.0986,-0.1019,-0.1049,-0.1107,-0.1101,-0.1104,-0.1111,-0.1166,-0.1199,-0.1203,-0.1196,-0.1227,-0.1296,-0.1296,-0.1296,-0.1296,-0.1296,-0.1296,-0.1296,-0.1296,-0.1296,-0.1296,-0.1296,-0.1296,-0.1296,-0.1335,-0.0726,0.022,0.0219,0.0288,0.0317,0.0317,0.0346,0.0405,0.0878,0.0,0.0,0.0,0.0,0.0,0.0,0.0,0.0,0.0,0.0,0.0,0.0,0.0,0.0,0.0,0.0,0.0,0.0,0.0,0.0,0.0,0.0,0.0,0.0,0.224,0.258,0.3125,0.4062,0.4777,0.4953,0.5056,0.5419,0.615,0.6258,0.6306,0.6238,0.6241,0.6045,0.5564,0.0,0.0,0.0,0.0,0.5688,0.5688,0.5688,0.5688,0.5688,0.5688,0.5688,0.5688,0.5688,0.5688,0.5688,0.5688,0.5688,0.568,0.5572,0.5529,0.5599,0.6627,0.7057,0.708,0.6947,0.6925,0.6917,0.0,0.0,0.0,0.0,0.0,0.0,-0.0028,-0.0196,-0.0364,-0.0393,-0.0589,-0.0757,-0.0898,-0.0947,-0.0982,-0.0988,-0.1037,-0.1069,-0.1109,-0.1115,-0.1116,-0.1109,-0.111,-0.1141,-0.1202,-0.1196,-0.1227,-0.1296,-0.1296,-0.1296,-0.1296,-0.1296,-0.1296,-0.1296,-0.1296,-0.1296,-0.1296,-0.1296,-0.1296,-0.1335,-0.1648,-0.1426,-0.0864,-0.0788,-0.0739,-0.0723,-0.0758,-0.0709,-0.0624,-0.0694,-0.0582,-0.0403,-0.0504,-0.0403,0.0,0.0,0.0,0.0,0.0,0.0,0.0,0.0,0.0,0.0,0.0,0.0,0.0,0.0,0.0,0.0,0.0,0.0,0.0,0.2099,0.26,0.301,0.3172,0.4063,0.4719,0.4763,0.5542,0.5933,0.567,0.6151,0.6282,0.5829,0.5838,0.5758,0.5653,0.5653,0.5664,0.5688,0.5688,0.5688,0.5688,0.5688,0.5688,0.5688,0.0,0.0,0.5688,0.5688,0.5688,0.5688,0.5688,0.5688,0.5688,0.5664,0.5653,0.5676,0.5707,0.6028,0.6478,0.6452,0.6747,0.7126,0.0,0.0,0.0,0.0,0.0,0.0,0.0,-0.0112,-0.0224,-0.028,-0.0449,-0.0617,-0.0785,-0.0922,-0.0988,-0.0988,-0.1074,-0.1109,-0.1109,-0.1109,-0.1109,-0.1109,-0.1119,-0.1151,-0.1203,-0.1249,-0.1281,-0.1296,-0.1296,-0.1296,-0.1296,-0.1296,-0.1296,-0.1296,-0.1492,-0.1608,-0.1608,-0.1805,-0.1884,-0.1923,-0.2118,-0.2064,-0.185,-0.1771,-0.1744,-0.1745,-0.178,-0.175,-0.164,-0.1463,-0.1309,-0.1186,-0.1033,-0.0925,-0.0754,0.0,0.0,0.0,0.0,0.0,0.0,0.0,0.0,0.0,0.0,0.0,0.0,0.0,0.0,0.0648,0.0,0.0,0.1872,0.2073,0.2563,0.2991,0.3308,0.3773,0.427,0.4697,0.5413,0.5803,0.5629,0.5903,0.5972,0.5727,0.5688,0.5688,0.5688,0.5688,0.5688,0.5688,0.5688,0.5688,0.5688,0.5688,0.5688,0.5688,0.5688,0.5688,0.5688,0.5688,0.5688,0.5688,0.5688,0.5688,0.5688,0.5688,0.5688,0.5677,0.56,0.5684,0.5921,0.5921,0.6086,0.6315,0.0,0.0,0.0,0.0,0.0,0.0,0.0,0.0,-0.0056,-0.0196,-0.0308,-0.0477,-0.0673,-0.0892,-0.0993,-0.1004,-0.1081,-0.1109,-0.1109,-0.1109,-0.1109,-0.1109,-0.1163,-0.1196,-0.1203,-0.1258,-0.1291,-0.1296,-0.1296,-0.1296,-0.1296,-0.1296,-0.1296,-0.1335,-0.1726,-0.1882,-0.1921,-0.2314,-0.2511,-0.2511,-0.2589,-0.2628,-0.2628,-0.2707,-0.2712,-0.2627,-0.2703,-0.2697,-0.2566,-0.2124,-0.1972,-0.1921,-0.1524,-0.1408,-0.1268,-0.0635,-0.0764,0.0,0.0,0.0,0.0,0.0,0.0,0.0,0.0,0.0,-0.1781,-0.0256,-0.0037,0.0074,0.0878,0.1327,0.1634,0.1752,0.2251,0.2811,0.3293,0.3443,0.3801,0.45,0.5063,0.5493,0.568,0.5688,0.5688,0.5688,0.5688,0.5688,0.5688,0.5688,0.5688,0.5688,0.5688,0.5688,0.5688,0.5688,0.5688,0.5688,0.5688,0.5688,0.5688,0.5688,0.5688,0.5688,0.5688,0.5688,0.5688,0.5688,0.5688,0.5688,0.5688,0.5629,0.5543,0.5543,0.5523,0.5442,0.0,0.0,0.0,0.0,0.0,0.0,0.0,0.0,-0.0056,-0.0196,-0.0308,-0.0477,-0.0673,-0.0892,-0.1009,-0.1094,-0.1105,-0.1109,-0.1109,-0.1109,-0.1109,-0.1109,-0.1108,-0.1139,-0.1202,-0.12,-0.123,-0.1296,-0.1296,-0.1296,-0.1296,-0.1296,-0.1296,-0.1335,-0.1726,-0.1882,-0.1921,-0.2314,-0.2511,-0.255,-0.2904,-0.3023,-0.3061,-0.3489,-0.3407,-0.3088,-0.3515,-0.3574,-0.3462,-0.3385,-0.3339,-0.3277,-0.3232,-0.3192,-0.3083,-0.2355,-0.1699,-0.101,-0.0181,0.0543,0.1012,0.0689,0.0254,0.0036,0.0,0.0,0.0,0.0863,0.049,0.0038,0.028,0.0444,0.0652,0.0959,0.1835,0.2558,0.2825,0.3268,0.3619,0.3708,0.4505,0.522,0.5641,0.5688,0.5688,0.5688,0.5688,0.5688,0.5688,0.5688,0.5688,0.5688,0.5688,0.5688,0.5688,0.5688,0.5688,0.5688,0.5688,0.5688,0.5688,0.5688,0.5688,0.5688,0.5688,0.5688,0.5688,0.5688,0.5688,0.5688,0.5688,0.568,0.5667,0.5667,0.5659,0.5648,0.0,0.0,0.0,0.0,0.0,0.0,0.0,0.0,0.0,-0.0084,-0.028,-0.0421,-0.0505,-0.0803,-0.1005,-0.1048,-0.1066,-0.1109,-0.1109,-0.1109,-0.1109,-0.1109,-0.1104,-0.1127,-0.114,-0.1187,-0.1218,-0.123,-0.1288,-0.1296,-0.1296,-0.1296,-0.1296,-0.1335,-0.1961,-0.2235,-0.2275,-0.2979,-0.3255,-0.3255,-0.345,-0.3491,-0.353,-0.3843,-0.3765,-0.353,-0.3724,-0.3777,0.0,-0.3705,-0.3683,-0.3644,-0.3591,-0.3573,-0.3424,-0.2643,-0.2467,-0.2292,-0.1054,-0.0146,0.0439,0.0371,0.0224,0.0112,0.0417,0.0266,0.0115,0.0392,0.0158,-0.004,0.0,0.0209,0.0635,0.0,0.2095,0.257,0.2837,0.3035,0.3275,0.3587,0.4166,0.4788,0.5235,0.5552,0.5688,0.5688,0.5688,0.5688,0.5688,0.5688,0.5688,0.5688,0.5688,0.5688,0.5688,0.5688,0.5688,0.5688,0.5688,0.5688,0.5688,0.5688,0.5688,0.5688,0.5688,0.5688,0.5688,0.5688,0.5688,0.5688,0.5688,0.5688,0.5688,0.5688,0.5688,0.5688,0.0,0.0,0.0,0.0,0.0,0.0,0.0,0.0,0.0,0.0,-0.0196,-0.0394,-0.0483,-0.0772,-0.0991,-0.0998,-0.1052,-0.1067,-0.1109,-0.1109,-0.1109,-0.1109,-0.1097,-0.1112,-0.1086,-0.1164,-0.1195,-0.1212,-0.1234,-0.1288,-0.1296,-0.1296,-0.1296,-0.1335,-0.2041,-0.2392,-0.255,-0.3294,-0.3686,-0.3802,-0.3802,-0.3802,-0.3841,-0.4038,-0.3999,-0.3882,-0.3882,-0.3843,-0.3802,-0.3802,-0.3802,-0.3791,-0.3685,-0.3665,-0.355,-0.294,-0.298,-0.2938,-0.1597,-0.0855,0.0,-0.0076,0.0,0.0,0.0,0.0,-0.0119,-0.0404,-0.0652,-0.0784,-0.0548,-0.0301,0.0261,0.1531,0.2132,0.2513,0.2873,0.292,0.3008,0.3365,0.381,0.4255,0.4565,0.5282,0.5688,0.5688,0.5688,0.5688,0.5688,0.5718,0.5734,0.5734,0.5812,0.5831,0.5831,0.5831,0.5831,0.5831,0.5831,0.5831,0.5831,0.5831,0.5812,0.5734,0.5734,0.5718,0.5688,0.5688,0.5688,0.5688,0.5688,0.5688,0.5688,0.5552,0.5597,0.5688,0.0,0.0,0.0,0.0,0.0,0.0,0.0,0.0,0.0,0.0,0.0,0.0,0.0,-0.0825,-0.0938,-0.0996,-0.1002,-0.1046,-0.1107,-0.1109,-0.1109,-0.1109,-0.1111,-0.1091,-0.1085,-0.1088,-0.1153,-0.1212,-0.1213,-0.1228,-0.1296,-0.1296,-0.1296,-0.1335,-0.1726,-0.2117,-0.2511,-0.2943,-0.3374,-0.3802,-0.3802,-0.3802,-0.3841,-0.4038,-0.4079,-0.4079,-0.4079,-0.396,-0.3802,-0.3802,-0.3802,-0.3802,-0.38,-0.3798,-0.3798,-0.3759,-0.3171,-0.2348,-0.1525,-0.129,-0.1055,-0.0196,0.0,0.0,0.0,-0.004,-0.0324,-0.1177,-0.2065,-0.2448,-0.1595,-0.1344,-0.083,0.0535,0.1568,0.2379,0.2829,0.292,0.292,0.292,0.332,0.3631,0.0,0.4884,0.5688,0.5688,0.5688,0.5688,0.5688,0.5839,0.5896,0.5896,0.6013,0.6075,0.6075,0.6075,0.6075,0.6075,0.6075,0.6075,0.6075,0.6075,0.601,0.5896,0.5896,0.5836,0.5688,0.5688,0.5688,0.5688,0.5688,0.5688,0.5644,0.5191,0.5327,0.5688,0.0,0.0,0.0,0.0,0.0,0.0,0.0,0.0,0.0,0.0,0.0,0.0,0.0,0.0,0.0,0.0,-0.0979,-0.1005,-0.1047,-0.1065,-0.1109,-0.1109,-0.1109,-0.1114,-0.1091,-0.111,-0.1095,-0.1151,-0.1191,-0.1217,-0.1228,-0.1287,-0.1296,-0.1335,-0.1726,-0.2117,-0.2511,-0.2943,-0.3374,-0.3802,-0.3802,-0.3802,-0.3841,-0.4038,-0.3999,-0.3919,0.0,-0.4268,-0.419,-0.4038,-0.4075,-0.419,-0.4038,-0.3999,-0.396,-0.3841,-0.3606,-0.3175,-0.2313,-0.2078,-0.1882,-0.1058,-0.0912,-0.0923,-0.0923,-0.0981,-0.1292,-0.22,-0.2646,-0.2764,-0.2471,-0.1728,-0.0754,0.0491,0.1658,0.2513,0.2873,0.292,0.292,0.292,0.332,0.0,0.0,0.0,0.0,0.5235,0.5618,0.5847,0.5847,0.5958,0.6024,0.6024,0.6064,0.6086,0.6086,0.6086,0.6086,0.6086,0.6086,0.6086,0.6086,0.6086,0.5873,0.5509,0.5883,0.5815,0.5452,0.5743,0.5847,0.5791,0.5399,0.5416,0.5599,0.4835,0.4835,0.5235,0.0,0.0,0.0,0.0,0.0,0.0,0.0,0.0,0.0,0.0,0.0,0.0,0.0,0.0,0.0,0.0,0.0,-0.0979,-0.1,-0.105,-0.1065,-0.1109,-0.1109,-0.1109,-0.1109,-0.1095,-0.111,-0.1086,-0.116,-0.1185,-0.1196,-0.1227,-0.128,-0.128,-0.1564,-0.1922,-0.2314,-0.2707,-0.3139,-0.3569,-0.3724,-0.3802,-0.3841,-0.4038,-0.4038,0.0,-0.4345,-0.4501,-0.4465,-0.4194,-0.4194,-0.427,-0.4038,-0.404,-0.4079,-0.396,-0.3921,-0.3765,-0.3137,-0.2999,-0.282,-0.1984,-0.1817,-0.189,-0.189,-0.1966,-0.2262,-0.316,-0.3406,-0.3306,-0.2949,-0.1924,-0.0716,0.0492,0.1703,0.2604,0.2873,0.292,0.292,0.292,0.3187,0.3454,0.0,0.0,0.0,0.5288,0.5676,0.5923,0.5966,0.6083,0.6151,0.6151,0.6189,0.6211,0.6211,0.6211,0.6211,0.6211,0.6211,0.6211,0.6211,0.6211,0.5997,0.5674,0.5817,0.5791,0.5606,0.5673,0.5689,0.5683,0.5469,0.533,0.5165,0.4574,0.4418,0.4565,0.0,0.0,0.0,0.0,0.0,0.0,0.0,0.0,0.0,0.0,0.0,0.0,0.0,0.0,0.0,0.0,0.0,0.0,-0.0995,-0.1,-0.1046,-0.1108,-0.1109,-0.1109,-0.1109,-0.1109,-0.109,-0.1084,-0.1085,-0.11,-0.1165,-0.1122,-0.1098,-0.11,-0.1166,-0.1452,-0.1882,-0.2275,-0.2668,-0.3141,-0.3569,-0.3763,-0.3802,-0.3999,-0.4079,-0.4118,-0.4545,-0.4662,-0.4623,-0.4233,-0.4118,-0.4079,-0.3882,-0.396,-0.4079,-0.4079,-0.4079,-0.404,-0.3843,-0.383,-0.3695,-0.2879,-0.2767,-0.2859,-0.2859,-0.2909,-0.3216,-0.4047,-0.424,-0.4026,-0.3135,-0.1922,-0.0715,0.0447,0.1703,0.2604,0.2873,0.292,0.292,0.0,0.0,0.0,0.0,0.0,0.0,0.5721,0.0,0.5966,0.6089,0.6211,0.6325,0.6325,0.638,0.6387,0.6387,0.6387,0.6387,0.6387,0.6387,0.6337,0.6337,0.6337,0.6278,0.6182,0.5691,0.568,0.6008,0.5481,0.5289,0.5337,0.5803,0.5312,0.4396,0.4442,0.4067,0.3726,0.0,0.0,0.0,0.0,0.0,0.0,0.0,0.0,0.0,0.0,0.0,0.0,0.0,0.0,0.0,0.0,0.0,0.0,-0.0997,-0.0989,-0.1046,-0.1108,-0.1109,-0.1109,-0.1109,-0.1109,-0.1113,-0.1087,-0.0694,-0.0527,-0.0531,-0.0111,0.0076,0.0076,0.0117,-0.0353,-0.1175,-0.1254,-0.1999,-0.3102,-0.3217,-0.3491,-0.3802,-0.3843,-0.3882,-0.3921,-0.4155,-0.4233,-0.4272,-0.4309,-0.4233,-0.4079,-0.404,-0.404,-0.4079,-0.3921,-0.3882,-0.3882,-0.3802,-0.383,-0.3859,-0.3614,-0.3724,-0.3834,-0.3834,-0.3896,-0.3997,-0.4221,-0.4234,-0.418,-0.3974,-0.2164,0.0,-0.0402,0.1434,0.0,0.2875,0.292,0.0,0.292,0.0,0.3053,0.3409,0.3594,0.0,0.0,0.5289,0.576,0.6214,0.6331,0.6393,0.6393,0.6371,0.6387,0.6387,0.6387,0.6387,0.6387,0.5987,0.5784,0.5787,0.5386,0.5222,0.52,0.5051,0.5036,0.5107,0.4937,0.4859,0.4804,0.4496,0.4411,0.4395,0.3686,0.3548,0.3718,0.0,0.0,0.0,0.0,0.0,0.0,0.0,0.0,0.0,0.0,0.0,0.0,0.0,0.0,0.0,0.0,0.0,0.0,0.0,-0.0997,-0.1027,-0.1056,-0.0868,-0.0874,-0.1109,-0.0638,-0.0504,-0.0739,-0.0205,0.0034,0.0069,0.0359,0.0512,0.0513,0.0526,0.019,-0.0342,-0.0531,-0.1069,0.0,0.0,-0.2718,-0.3132,-0.3411,-0.3608,-0.3841,-0.404,-0.4118,-0.4118,-0.4233,-0.4155,-0.3999,-0.4079,-0.4118,-0.4079,-0.396,-0.3921,-0.3921,-0.3841,-0.3859,-0.3959,-0.3959,-0.4095,-0.4228,-0.4228,-0.4236,-0.4242,-0.4242,-0.4173,-0.4128,-0.4175,-0.2301,-0.0696,0.0,0.0,0.0,0.2873,0.292,0.292,0.0,0.292,0.0,0.3275,0.3337,0.3637,0.0,0.4795,0.5345,0.5942,0.6004,0.6034,0.6034,0.6034,0.6034,0.6034,0.6034,0.6187,0.6387,0.6087,0.5834,0.5584,0.5536,0.5233,0.4784,0.0,0.4784,0.478,0.4482,0.4413,0.436,0.4262,0.408,0.3861,0.3569,0.3431,0.3468,0.0,0.0,0.0,0.0,0.0,0.0,0.0,0.0,0.0,0.0,0.0,0.0,0.0,0.0,0.0,0.0,0.0,0.0,0.0,0.0,-0.0998,-0.1,-0.066,-0.0703,-0.1143,-0.0202,0.0067,-0.037,0.0269,0.0605,0.0605,0.0692,0.0735,0.0736,0.0684,0.0619,0.051,0.0145,-0.0037,-0.0188,-0.1127,-0.1712,-0.2092,0.0,-0.3232,-0.363,-0.3956,-0.4079,-0.4079,-0.4079,-0.396,-0.3841,-0.3999,-0.4079,-0.4079,-0.4079,-0.4079,-0.4038,-0.3843,-0.3887,-0.3976,-0.3976,-0.414,-0.4307,-0.4265,-0.4249,-0.4198,-0.4198,-0.4081,-0.398,-0.3992,-0.238,-0.0946,-0.0692,0.0,0.246,0.2782,0.2873,0.292,0.292,0.292,0.292,0.292,0.2978,0.3225,0.3754,0.4223,0.48,0.5482,0.5484,0.5484,0.5484,0.5484,0.5484,0.5484,0.5484,0.5734,0.6187,0.6137,0.5887,0.5484,0.5834,0.5536,0.4784,0.4734,0.4684,0.4634,0.4183,0.3982,0.4033,0.4435,0.4042,0.325,0.3641,0.35,0.3155,0.0,0.0,0.0,0.0,0.0,0.0,0.0,0.0,0.0,0.0,0.1349,0.0673,0.0,0.0,0.0,0.0,0.0,0.0,0.0,0.0,0.0,-0.0999,-0.1231,-0.1411,-0.1512,-0.1076,-0.0773,-0.0706,0.0437,0.1042,0.1177,0.1661,0.1893,0.1895,0.1947,0.1677,0.1239,0.1166,0.062,-0.0183,-0.0402,-0.0697,-0.1141,-0.2027,0.0,0.0,-0.3542,-0.3843,-0.3843,-0.3843,-0.3841,-0.3802,-0.3841,-0.3843,-0.3843,-0.3843,-0.3843,-0.3841,-0.3802,-0.3842,-0.3924,-0.3924,-0.4124,-0.4246,-0.4081,-0.4151,0.0,0.0,-0.3987,-0.3946,-0.398,-0.286,-0.166,-0.0947,0.0435,0.1712,0.2462,0.2739,0.292,0.0,0.292,0.292,0.292,0.3016,0.0,0.0,0.3397,0.3869,0.4883,0.4935,0.4935,0.4935,0.4935,0.4935,0.4935,0.4935,0.4985,0.5085,0.4634,0.4583,0.4935,0.4133,0.4133,0.4784,0.4334,0.0,0.4133,0.4033,0.3982,0.3982,0.3632,0.3624,0.3814,0.3465,0.3225,0.3124,0.0,0.0,0.0,0.0,0.0,0.0,0.0,0.365,0.3435,0.3121,0.2241,0.1538,0.1285,0.0616,0.014,0.0,0.0,0.0,0.0,0.0,0.0,0.0,-0.0634,-0.0648,-0.1021,-0.0033,0.037,0.0202,0.0,0.1614,0.1783,0.208,0.2198,0.2199,0.2228,0.21,0.182,0.182,0.1516,0.1034,0.0713,0.0359,-0.0073,0.0,0.0,0.0,-0.3355,-0.3691,-0.3738,-0.3904,-0.3882,-0.3802,-0.3921,-0.3882,-0.3802,-0.3921,-0.3882,-0.3802,-0.3802,-0.3912,-0.4063,-0.4063,-0.4296,-0.445,-0.4199,0.0,0.0,-0.4006,-0.3891,-0.3842,-0.3885,-0.2635,0.0,-0.096,0.0555,0.1874,0.2424,0.2719,0.292,0.292,0.292,0.292,0.0,0.3027,0.3097,0.3097,0.3161,0.3531,0.4334,0.4383,0.4383,0.4383,0.4133,0.4083,0.4383,0.4383,0.4533,0.4784,0.4533,0.4384,0.4383,0.4133,0.4033,0.3982,0.3982,0.3833,0.3581,0.3581,0.3732,0.3982,0.3732,0.3783,0.3982,0.3732,0.3412,0.3137,0.0,0.0,0.0,0.0,0.0,0.0,0.0,0.3618,0.3436,0.3474,0.3044,0.2576,0.2155,0.1415,0.0925,0.0,0.0,0.0,0.0,0.0,0.0,0.0,0.0,0.0,0.0,0.0,0.0,0.0,0.1547,0.0,0.0,0.0,0.0,0.0,0.2188,0.2188,0.2188,0.2188,0.2215,0.0,0.0,0.1335,0.0,0.0,0.0,0.0,0.0,-0.3185,-0.3387,-0.3667,-0.3812,-0.3854,-0.4034,-0.3999,-0.3882,-0.3999,-0.3999,-0.3919,-0.3882,-0.4055,-0.4234,-0.4234,-0.4453,-0.4634,-0.4344,-0.4245,0.0,-0.3911,-0.3853,-0.3802,-0.3802,-0.2546,-0.1372,0.0,0.0546,0.1901,0.2346,0.2658,0.2829,0.0,0.292,0.0,0.292,0.3027,0.0,0.3097,0.3161,0.3381,0.3781,0.3831,0.3831,0.3831,0.343,0.338,0.3831,0.3831,0.4033,0.4433,0.4433,0.4284,0.4033,0.4334,0.4083,0.3381,0.3831,0.3682,0.323,0.343,0.3732,0.4033,0.4133,0.4083,0.3982,0.3982,0.3682,0.318,0.0,0.0,0.0,0.0,0.0,0.0,0.0,0.3512,0.3617,0.3203,0.336,0.3394,0.3097,0.2263,0.1651,0.0,0.0,0.0,0.0,0.0,0.0,0.0,0.0,0.0,0.0,0.0,0.0,0.0,0.0,0.0,0.0,0.0,0.0,0.0,0.0,0.0,0.2188,0.2188,0.0,0.0,0.0,0.0,0.0,0.0,0.0,0.0,0.0,-0.1824,-0.2529,-0.2672,0.0,-0.3922,-0.4051,-0.4079,-0.404,-0.3882,0.0,0.0,-0.4116,-0.4238,-0.4399,-0.4399,-0.4526,-0.4614,-0.4224,0.0,-0.4284,-0.3892,-0.3808,-0.3802,-0.3802,-0.3025,-0.21,-0.1294,-0.0207,0.0934,0.1994,0.2347,0.2649,0.2873,0.0,0.0,0.292,0.3027,0.3097,0.3097,0.3161,0.323,0.3281,0.3281,0.3281,0.3281,0.323,0.323,0.3281,0.3281,0.3281,0.3331,0.3331,0.3581,0.3982,0.3531,0.3581,0.3932,0.3982,0.3682,0.0,0.4234,0.4383,0.4033,0.4533,0.4435,0.3982,0.3982,0.3682,0.318,0.0,0.0,0.0,0.0,0.0,0.0,0.3792,0.3792,0.3748,0.3602,0.3522,0.3429,0.333,0.2905,0.2517,0.2167,0.0,0.0,0.0,0.0,0.0,0.0,0.0,0.0,0.0,0.0,0.1036,0.1081,0.0,0.0,0.0,0.0,0.0,0.0,0.0,0.0,0.0,0.2188,0.0,0.0,0.0,0.0,0.0,0.0,0.0,0.0,0.0,0.0,-0.239,-0.2601,0.0,0.0,-0.3939,-0.4031,0.0,0.0,-0.4192,-0.4345,-0.3997,-0.4231,-0.4543,-0.4423,-0.4659,-0.4781,-0.4387,0.0,-0.4268,-0.388,-0.3802,-0.3802,-0.3802,-0.3096,-0.2242,-0.1389,-0.0324,0.0747,0.174,0.2214,0.2522,0.2645,0.2784,0.0,0.0,0.0,0.3072,0.3098,0.3183,0.318,0.318,0.318,0.318,0.318,0.318,0.318,0.318,0.318,0.318,0.318,0.318,0.3331,0.3531,0.3281,0.3331,0.3531,0.3531,0.3381,0.0,0.3682,0.4083,0.4483,0.4734,0.4885,0.4985,0.4985,0.4634,0.4133,0.0,0.0,0.0,0.0,0.0,0.438,0.4151,0.3996,0.3907,0.3856,0.3613,0.3457,0.3457,0.3336,0.3141,0.2845,0.2189,0.0,0.0,0.0,0.0,0.0,0.0,0.0,0.0,0.0,0.1647,0.1643,0.1842,0.2036,0.0,0.0,0.0,0.0,0.0,0.0,0.0,0.0,0.0,0.0,0.0,0.0,0.0,0.0,0.0,0.0,0.0,0.0,0.0,0.0,0.0,-0.3667,-0.3761,-0.3978,-0.4158,-0.4109,-0.4231,-0.4345,-0.4036,-0.4348,-0.4659,-0.454,-0.4701,-0.4818,0.0,0.0,-0.4231,-0.388,-0.3802,-0.3724,-0.345,-0.2705,-0.1882,-0.1058,-0.004,0.0901,0.1592,0.2099,0.241,0.0,0.0,0.292,0.0,0.2987,0.3027,0.3083,0.3146,0.318,0.318,0.318,0.318,0.318,0.318,0.318,0.318,0.318,0.318,0.318,0.318,0.318,0.318,0.318,0.318,0.318,0.318,0.318,0.0,0.3531,0.4033,0.4583,0.4935,0.5085,0.5135,0.5135,0.4784,0.4284,0.0,0.0,0.0,0.0,0.0,0.0,0.3979,0.4074,0.4066,0.3736,0.3634,0.3604,0.3604,0.3481,0.3453,0.3568,0.2786,0.0,0.0,0.0,0.0,0.0,0.0,0.0,0.0,0.0,0.1246,0.132,0.1837,0.2127,0.2188,0.2188,0.0,0.0,0.0,0.0,0.0,0.0,0.0,0.0,0.0,0.0,0.0,0.0,0.0,0.0,0.0,0.0,0.0,0.0,0.0,0.0,0.0,-0.3931,-0.4258,-0.4128,-0.4231,-0.4384,-0.4384,-0.4543,-0.4701,-0.4701,-0.4701,-0.4659,-0.4462,-0.4231,-0.404,-0.3841,-0.3802,-0.3528,-0.2668,-0.1843,-0.1019,-0.0157,0.0721,0.1394,0.1676,0.1928,0.219,0.0,0.0,0.292,0.292,0.3026,0.3122,0.3086,0.3146,0.0,0.318,0.318,0.318,0.318,0.318,0.318,0.318,0.318,0.318,0.318,0.318,0.318,0.318,0.318,0.318,0.318,0.318,0.318,0.0,0.4334,0.4483,0.4133,0.5186,0.4935,0.4033,0.4033,0.3682,0.323,0.0,0.0,0.0,0.0,0.0,0.0,0.0,0.5559,0.5355,0.4739,0.4513,0.4268,0.384,0.3481,0.3313,0.345,0.3383,0.0,0.0,0.0,0.0,0.0,0.0,0.0,0.0,0.1572,0.1693,0.1696,0.1959,0.2105,0.2125,0.2168,0.2188,0.2188,0.0,0.0,0.0,0.0,0.0,0.0,0.0,0.0,0.0,0.0,0.0,0.0,0.0,0.0,0.0,0.0,0.0,0.0,0.0,0.0,0.0,-0.4348,-0.4484,-0.4582,-0.4423,-0.4659,-0.4859,-0.4582,-0.4146,-0.3871,-0.4153,-0.3682,-0.3329,-0.3724,-0.3802,-0.3528,-0.2668,-0.2275,-0.1646,-0.0235,0.0237,0.0644,0.0,0.0,0.0,0.228,0.2649,0.292,0.0,0.0,0.3105,0.3076,0.3173,0.318,0.318,0.318,0.318,0.318,0.318,0.318,0.318,0.318,0.318,0.318,0.318,0.318,0.318,0.318,0.318,0.318,0.318,0.318,0.323,0.3581,0.4033,0.4533,0.4535,0.4985,0.5584,0.5236,0.4985,0.4784,0.0,0.0,0.0,0.0,0.0,0.0,0.0,0.6237,0.6007,0.5443,0.5043,0.4674,0.4355,0.381,0.3584,0.3899,0.3961,0.0,0.0,0.0,0.0,0.0,0.0,0.0,0.1964,0.2001,0.1974,0.1911,0.2012,0.2073,0.2096,0.2159,0.2188,0.2188,0.2188,0.2188,0.0,0.0,0.0,0.0,0.0,0.0,0.2087,0.0,0.0,0.0,0.0,0.0,0.0,0.0,0.0,0.0,0.0,0.0,0.0,0.0,-0.4505,-0.4606,-0.453,-0.4701,-0.474,-0.407,-0.3599,0.0,-0.3173,-0.2899,-0.2702,-0.2821,-0.3096,-0.294,-0.1763,-0.1568,-0.1097,0.0274,0.051,0.0678,0.0,0.0,0.0,0.2456,0.0,0.0,0.0,0.3005,0.3072,0.3095,0.314,0.3156,0.3179,0.318,0.318,0.318,0.318,0.318,0.318,0.318,0.318,0.318,0.318,0.318,0.318,0.318,0.318,0.318,0.318,0.318,0.0,0.343,0.3882,0.4483,0.4133,0.4634,0.5434,0.4885,0.4684,0.4634,0.0,0.0,0.0,0.0,0.0,0.0,0.0,0.6365,0.6221,0.5916,0.5324,0.4973,0.5048,0.4425,0.4207,0.4738,0.0,0.0,0.0,0.0,0.0,0.0,0.0,0.0,0.224,0.224,0.2132,0.1962,0.1996,0.206,0.2123,0.2185,0.2183,0.2188,0.2188,0.2188,0.2188,0.0,0.0,0.0,0.0,0.0,0.0,0.0,0.0,0.0,0.0,0.0,0.0,0.0,0.0,0.0,0.0,0.0,0.0,0.0,0.0,0.0,0.0,-0.4654,-0.4345,-0.3366,-0.3013,-0.2701,-0.1842,-0.2038,0.0,-0.1528,-0.1999,-0.1999,-0.0313,0.0,0.0274,0.1139,0.1296,0.1319,0.0,0.1772,0.0,0.0,0.292,0.0,0.292,0.2971,0.3029,0.3086,0.3102,0.3114,0.3171,0.3179,0.318,0.318,0.318,0.318,0.318,0.318,0.318,0.318,0.318,0.318,0.318,0.318,0.318,0.0,0.318,0.318,0.323,0.3732,0.3982,0.3982,0.3934,0.3982,0.3982,0.3432,0.3281,0.3281,0.0,0.0,0.0,0.0,0.0,0.0,0.0,0.0,0.0,0.0,0.6452,0.6155,0.5653,0.5221,0.4876,0.0,0.0,0.0,0.0,0.0,0.0,0.0,0.0,0.0,0.2577,0.2577,0.2559,0.2524,0.2313,0.2266,0.2338,0.2184,0.2142,0.2188,0.2188,0.2188,0.2188,0.2188,0.0,0.0,0.0,0.0,0.0,0.0,0.0,0.0,0.1344,0.0638,0.0,0.0,0.0,0.0,0.0,0.0,0.0,0.0,-0.4398,-0.461,-0.4755,0.0,-0.3597,-0.3209,-0.2035,-0.1175,0.0,-0.1921,-0.1685,-0.2117,-0.2353,-0.1999,-0.0313,0.0,0.0274,0.1139,0.1296,0.1358,0.1588,0.0,0.0,0.2871,0.292,0.292,0.292,0.2971,0.301,0.3025,0.3079,0.3097,0.311,0.3156,0.318,0.318,0.318,0.318,0.318,0.318,0.318,0.318,0.318,0.318,0.318,0.318,0.318,0.318,0.318,0.318,0.323,0.3331,0.3632,0.3984,0.3531,0.3882,0.4533,0.4033,0.3831,0.3831,0.0,0.0,0.0,0.0,0.0,0.0,0.0,0.0,0.0,0.0,0.0,0.6649,0.6179,0.5766,0.0,0.0,0.0,0.0,0.0,0.0,0.0,0.0,0.0,0.3051,0.2882,0.2882,0.2828,0.2691,0.2432,0.2332,0.2407,0.2194,0.2128,0.2188,0.2188,0.2188,0.2188,0.2188,0.2087,0.1884,0.1817,0.0,0.0,0.0,0.0,0.0,0.1446,0.0908,0.0,-0.0807,-0.1814,-0.2787,0.0,0.0,0.0,0.0,-0.4283,-0.4464,-0.4178,-0.3762,-0.3281,-0.2698,-0.1409,-0.047,-0.1175,-0.1332,-0.1293,-0.1332,0.0,-0.1411,0.0274,0.0588,0.0746,0.1218,0.1388,0.0,0.0,0.0,0.2604,0.2873,0.292,0.292,0.0,0.2947,0.2976,0.3003,0.3019,0.308,0.3087,0.3121,0.3152,0.318,0.318,0.318,0.318,0.318,0.318,0.318,0.318,0.318,0.318,0.318,0.318,0.318,0.318,0.318,0.318,0.318,0.3381,0.3581,0.3331,0.3531,0.4033,0.3732,0.3632,0.3632,0.0,0.0,0.0,0.0,0.0,0.0,0.0,0.0,0.0,0.0,0.0,0.0,0.0,0.0,0.0,0.0,0.0,0.0,0.0,0.0,0.0,0.0,0.3855,0.3471,0.3188,0.3188,0.3079,0.283,0.2506,0.2411,0.2467,0.2216,0.212,0.2188,0.2188,0.2188,0.2188,0.2188,0.2087,0.1884,0.1715,0.0,0.0,0.0,0.0,0.0,0.0,0.0,0.0,-0.0605,-0.1646,-0.2584,-0.2922,0.0,0.0,0.0,0.0,0.0,-0.3395,-0.3215,-0.2969,-0.2072,-0.1057,-0.0274,-0.0352,-0.0862,-0.1097,0.0,0.0,0.0,0.1021,0.1296,0.0,0.0,0.0,0.0,0.242,0.2524,0.2649,0.2873,0.292,0.0,0.292,0.292,0.2939,0.2987,0.3,0.3003,0.3106,0.3073,0.315,0.3202,0.3161,0.3167,0.3167,0.3176,0.318,0.318,0.318,0.318,0.318,0.318,0.318,0.318,0.0,0.0,0.318,0.318,0.318,0.318,0.318,0.318,0.318,0.318,0.318,0.318,0.0,0.0,0.0,0.0,0.0,0.0,0.0,0.0,0.0,0.0,0.0,0.0,0.0,0.0,0.0,0.0,0.0,0.0,0.0,0.0,0.0,0.4772,0.4024,0.3583,0.3527,0.3527,0.3499,0.3474,0.2902,0.2706,0.2801,0.2259,0.2078,0.2188,0.2188,0.2188,0.2188,0.2188,0.2087,0.1884,0.185,0.0,0.0,0.0,0.0,0.0,0.0,0.0,0.0,0.0134,-0.0873,-0.1844,-0.2214,0.0,0.0,0.0,0.0,0.0,-0.2921,-0.2497,-0.2037,-0.1723,-0.0822,-0.0392,-0.1803,-0.1685,-0.1254,0.0,0.0,0.0,0.0,0.1296,0.1296,0.0,0.0,0.2152,0.0,0.0,0.2873,0.2875,0.0,0.292,0.292,0.292,0.2922,0.2931,0.2978,0.3012,0.3032,0.3083,0.3115,0.3124,0.3127,0.3105,0.3105,0.3154,0.318,0.318,0.318,0.318,0.318,0.318,0.318,0.318,0.0,0.318,0.318,0.318,0.318,0.318,0.318,0.318,0.318,0.318,0.318,0.318,0.0,0.0,0.0,0.0,0.0,0.0,0.0,0.0,0.0,0.0,0.0,0.0,0.0,0.0,0.0,0.0,0.0,0.0,0.0,0.0,0.4474,0.4525,0.3938,0.3613,0.3613,0.3413,0.333,0.333,0.2717,0.2492,0.262,0.2262,0.2132,0.2188,0.2188,0.2188,0.2188,0.2188,0.2154,0.2052,0.0,0.0,0.0,0.0,0.0,0.0,0.0,0.0,0.0,0.0,-0.0436,-0.1141,-0.1946,0.0,0.0,0.0,0.0,0.0,-0.1634,-0.1546,-0.1568,-0.0901,-0.0352,-0.0196,-0.0979,-0.0862,-0.0587,0.0,0.0,0.0,0.0,0.0,0.1387,0.1665,0.0,0.2384,0.2686,0.2812,0.292,0.0,0.0,0.292,0.292,0.292,0.292,0.292,0.2943,0.2972,0.3003,0.3032,0.3062,0.3095,0.3076,0.3091,0.3091,0.3119,0.3165,0.318,0.318,0.318,0.318,0.318,0.318,0.318,0.0,0.318,0.318,0.318,0.318,0.318,0.318,0.318,0.318,0.318,0.318,0.318,0.0,0.0,0.0,0.0,0.0,0.0,0.0,0.0,0.0,0.0,0.0,0.0,0.0,0.0,0.0,0.0,0.0,0.0,0.0,0.4902,0.4247,0.4192,0.383,0.3613,0.3613,0.3272,0.3102,0.3102,0.249,0.223,0.2316,0.2228,0.2188,0.2188,0.2188,0.2188,0.2188,0.2188,0.2188,0.212,0.0,0.0,0.0,0.0,0.0,0.0,0.0,0.0,0.0,0.0,0.0,0.0,0.0,0.0,0.0,-0.2417,-0.2338,-0.1964,-0.0509,-0.0717,-0.1019,0.0039,0.0,-0.0313,-0.0313,-0.0157,0.0,0.0,0.0,0.0,0.0,0.1342,0.0,0.2006,0.228,0.2535,0.2858,0.292,0.292,0.292,0.292,0.292,0.292,0.292,0.292,0.292,0.292,0.2938,0.2982,0.2985,0.3005,0.3054,0.3068,0.3076,0.3076,0.309,0.3144,0.3188,0.3153,0.316,0.316,0.3173,0.318,0.318,0.318,0.318,0.318,0.318,0.318,0.318,0.318,0.318,0.318,0.318,0.318,0.318,0.0,0.0,0.0,0.0,0.0,0.0,0.0,0.0,0.0,0.0,0.0,0.0,0.0,0.0,0.0,0.0,0.0,0.0,0.0,0.4808,0.4151,0.4195,0.383,0.3613,0.3613,0.3272,0.3102,0.3102,0.249,0.2143,0.2037,0.2162,0.2188,0.2188,0.2188,0.2188,0.2188,0.2188,0.2087,0.1951,0.2087,0.0,0.0,0.0,0.0,0.0,0.0,0.0,0.0,0.0,0.0,0.0,0.0,0.0,-0.2383,-0.2248,-0.1813,-0.1164,-0.0182,-0.0151,-0.0118,0.0942,0.0,-0.1214,-0.1214,-0.0587,0.0,0.0,0.0,0.0,0.0,0.1521,0.176,0.2052,0.2311,0.258,0.2865,0.0,0.292,0.292,0.292,0.292,0.292,0.292,0.292,0.292,0.292,0.2921,0.2925,0.2925,0.2928,0.2932,0.2983,0.3011,0.3011,0.3068,0.3101,0.3111,0.312,0.3097,0.3099,0.3154,0.318,0.318,0.318,0.318,0.318,0.318,0.318,0.318,0.318,0.318,0.318,0.318,0.318,0.318,0.0,0.0,0.0,0.0,0.0,0.0,0.0,0.0,0.0,0.0,0.0,0.0,0.0,0.0,0.0,0.0,0.0,0.0,0.0,0.4409,0.392,0.3818,0.3494,0.3299,0.3299,0.2996,0.2742,0.2545,0.2216,0.2047,0.2006,0.2129,0.2188,0.2188,0.2188,0.2188,0.2188,0.2188,0.2154,0.2087,0.2018,0.1918,0.0,0.0,0.0,0.0,0.0,0.0,0.0,0.0,0.0774,0.0303,-0.0235,-0.0739,-0.1074,-0.0873,-0.0629,-0.0255,0.0546,0.034,0.0118,0.106,0.0392,-0.0353,0.0196,0.0588,0.0824,0.0824,0.1178,0.0,0.0,0.0,0.214,0.2304,0.2551,0.2716,0.2865,0.292,0.292,0.292,0.292,0.292,0.292,0.292,0.292,0.292,0.292,0.292,0.292,0.292,0.292,0.292,0.294,0.2951,0.2951,0.2975,0.2986,0.2987,0.3038,0.3083,0.3083,0.3106,0.3117,0.3117,0.3117,0.3139,0.3125,0.3125,0.3146,0.318,0.318,0.318,0.318,0.318,0.3157,0.3125,0.0,0.0,0.0,0.0,0.0,0.0,0.0,0.0,0.0,0.0,0.0,0.0,0.0,0.0,0.0,0.0,0.0,0.0,0.4575,0.4087,0.3743,0.3602,0.3272,0.3047,0.2965,0.2689,0.2437,0.2212,0.2062,0.2002,0.2006,0.2129,0.2188,0.2188,0.212,0.2154,0.2188,0.212,0.212,0.2087,0.2018,0.1918,0.0,0.0,0.0,0.0,0.0,0.0,0.0,0.0,0.1009,0.0775,0.0202,-0.0101,-0.0168,-0.0034,0.0035,0.0255,0.0984,0.0831,0.0549,0.1139,0.0863,0.0549,0.1178,0.1296,0.1296,0.1296,0.1463,0.1716,0.1944,0.0,0.0,0.0,0.2667,0.2827,0.2913,0.292,0.292,0.292,0.292,0.292,0.292,0.292,0.292,0.292,0.292,0.292,0.292,0.292,0.292,0.292,0.292,0.292,0.292,0.292,0.292,0.292,0.3001,0.305,0.3068,0.3087,0.3097,0.3097,0.3097,0.312,0.311,0.311,0.3135,0.3173,0.3173,0.3173,0.3173,0.3173,0.3147,0.311,0.0,0.0,0.0,0.0,0.0,0.0,0.0,0.0,0.0,0.0,0.0,0.0,0.0,0.0,0.0,0.0,0.0,0.0,0.4396,0.3891,0.3594,0.3599,0.3272,0.2965,0.2719,0.238,0.2184,0.2184,0.2062,0.2002,0.2006,0.2129,0.2188,0.2188,0.1985,0.2018,0.2188,0.1985,0.1918,0.1918,0.212,0.1951,0.1614,0.0,0.0,0.0,0.0,0.0,0.0,0.0,0.1109,0.0975,0.0235,0.0,0.0,0.0,0.007,0.0255,0.0984,0.1248,0.1296,0.1296,0.0,0.0,0.1296,0.1296,0.1296,0.1296,0.1522,0.1749,0.195,0.2278,0.0,0.2522,0.2745,0.292,0.292,0.292,0.292,0.292,0.292,0.292,0.292,0.292,0.292,0.292,0.292,0.292,0.292,0.292,0.292,0.292,0.292,0.292,0.292,0.292,0.292,0.292,0.292,0.2949,0.3005,0.3066,0.3095,0.3095,0.3095,0.3095,0.3095,0.3097,0.3097,0.3097,0.3097,0.3097,0.3097,0.3097,0.3095,0.3095,0.0,0.0,0.0,0.0,0.0,0.0,0.0,0.0,0.0,0.0,0.0,0.0,0.0,0.0,0.0,0.0,0.0,0.0,0.3878,0.3687,0.3608,0.3605,0.3109,0.2772,0.2691,0.2188,0.1908,0.1908,0.1974,0.1941,0.1789,0.1932,0.1985,0.1985,0.1918,0.2018,0.2188,0.212,0.212,0.212,0.2188,0.2052,0.1817,0.0,0.0,0.0,0.0,0.0,0.0,0.0,0.0,0.0,0.084,0.0773,0.0773,0.0773,0.0804,0.0911,0.113,0.1248,0.0,0.1296,0.0,0.0,0.0,0.1415,0.0,0.0,0.1895,0.2123,0.2442,0.2569,0.0,0.2744,0.2862,0.292,0.292,0.292,0.292,0.292,0.292,0.292,0.292,0.292,0.292,0.292,0.292,0.292,0.292,0.292,0.292,0.292,0.292,0.292,0.292,0.292,0.292,0.292,0.292,0.2928,0.2944,0.2962,0.2972,0.2972,0.2972,0.2994,0.3034,0.3079,0.3097,0.3097,0.3097,0.3097,0.3097,0.3097,0.3069,0.3032,0.0,0.0,0.0,0.0,0.0,0.0,0.0,0.0,0.0,0.0,0.6708,0.6354,0.0,0.0,0.0,0.0,0.0,0.0,0.0,0.3519,0.3484,0.3408,0.294,0.2579,0.2355,0.1993,0.1781,0.1718,0.1836,0.1818,0.1697,0.1834,0.1884,0.1884,0.1884,0.2018,0.2188,0.212,0.212,0.2188,0.212,0.1951,0.1783,0.0,0.0,0.0,0.0,0.0,0.0,0.0,0.0,0.0,0.1109,0.1109,0.1112,0.109,0.1163,0.1206,0.1292,0.1373,0.0,0.1533,0.1611,0.1729,0.1729,0.0,0.0,0.0,0.2135,0.2334,0.2633,0.2711,0.0,0.2903,0.292,0.292,0.292,0.292,0.292,0.292,0.292,0.292,0.292,0.292,0.292,0.292,0.292,0.292,0.292,0.292,0.292,0.292,0.292,0.292,0.292,0.292,0.292,0.292,0.292,0.292,0.292,0.292,0.292,0.292,0.292,0.2939,0.2974,0.3011,0.3026,0.3026,0.3026,0.3026,0.3026,0.3026,0.3003,0.2971,0.0,0.0,0.0,0.0,0.0,0.0,0.0,0.0,0.0,0.0,0.6574,0.611,0.0,0.0,0.0,0.0,0.0,0.0,0.0,0.343,0.3331,0.31,0.2828,0.2383,0.1825,0.1797,0.174,0.1621,0.167,0.1696,0.1672,0.1803,0.1884,0.1884,0.1884,0.2018,0.2154,0.1985,0.1985,0.212,0.1951,0.1749,0.1547,0.1379,0.0,0.0,0.0,0.0,0.0,0.0,0.0,0.0,0.1109,0.1109,0.1116,0.1112,0.1142,0.1283,0.1467,0.1543,0.0,0.1848,0.1926,0.0,0.1964,0.1964,0.2004,0.2157,0.0,0.2408,0.2638,0.2737,0.2797,0.2908,0.292,0.292,0.292,0.292,0.292,0.292,0.292,0.292,0.292,0.292,0.292,0.292,0.292,0.292,0.292,0.292,0.292,0.292,0.292,0.292,0.292,0.292,0.292,0.292,0.292,0.292,0.292,0.292,0.292,0.292,0.292,0.292,0.292,0.292,0.292,0.292,0.292,0.292,0.292,0.292,0.292,0.292,0.0,0.0,0.0,0.0,0.0,0.0,0.0,0.0,0.0,0.0,0.0,0.0,0.0,0.0,0.0,0.0,0.0,0.0,0.0,0.3606,0.352,0.313,0.2601,0.2158,0.1797,0.1797,0.1826,0.1824,0.1729,0.1652,0.1532,0.1622,0.1749,0.1884,0.1884,0.1918,0.1951,0.1918,0.185,0.1715,0.1681,0.1547,0.1344,0.1311,0.121,0.0,0.0,0.0,0.0,0.0,0.0,0.0,0.1109,0.1109,0.1116,0.1112,0.125,0.143,0.1505,0.1658,0.0,0.0,0.2003,0.2157,0.2354,0.2354,0.2354,0.2235,0.2324,0.2523,0.2672,0.2703,0.2748,0.2902,0.292,0.292,0.292,0.292,0.292,0.292,0.292,0.292,0.292,0.292,0.292,0.292,0.292,0.292,0.292,0.292,0.292,0.292,0.292,0.292,0.292,0.292,0.292,0.292,0.292,0.292,0.292,0.292,0.292,0.292,0.292,0.292,0.292,0.292,0.292,0.292,0.292,0.292,0.292,0.292,0.292,0.292,0.0,0.0,0.0,0.0,0.0,0.0,0.0,0.0,0.0,0.0,0.0,0.0,0.0,0.0,0.0,0.0,0.0,0.0,0.0,0.0,0.3213,0.2685,0.224,0.1936,0.1797,0.1797,0.1811,0.1804,0.1742,0.1689,0.1644,0.1725,0.1748,0.1749,0.185,0.185,0.1749,0.1749,0.1681,0.158,0.148,0.1379,0.1277,0.1244,0.1176,0.1109,0.1109,0.0,0.0,0.0,0.0,0.0,0.0,0.0,0.1103,0.1134,0.1237,0.1419,0.1648,0.0,0.0,0.212,0.0,0.2353,0.247,0.2511,0.247,0.2353,0.2431,0.254,0.2631,0.2673,0.2722,0.2815,0.29,0.292,0.292,0.292,0.292,0.292,0.292,0.292,0.292,0.292,0.292,0.292,0.292,0.292,0.292,0.292,0.292,0.292,0.292,0.292,0.292,0.292,0.292,0.292,0.292,0.292,0.292,0.292,0.292,0.292,0.292,0.292,0.292,0.292,0.292,0.292,0.292,0.292,0.292,0.292,0.292,0.292,0.0,0.0,0.0,0.0,0.0,0.0,0.0,0.0,0.0,0.0,0.0,0.0,0.0,0.0,0.0,0.0,0.0,0.0,0.0,0.0,0.0,0.2294,0.1964,0.1797,0.1797,0.1807,0.1806,0.1756,0.1734,0.1766,0.182,0.1864,0.1783,0.1614,0.1817,0.1783,0.1547,0.1547,0.1547,0.1547,0.1379,0.1311,0.1277,0.1176,0.1109,0.1109,0.1109,0.1109,0.1109,0.1109,0.0,0.0,0.0,0.0,0.1128,0.1164,0.1229,0.1333,0.1757,0.0,0.2043,0.2393,0.2511,0.0,0.2511,0.2511,0.2511,0.2511,0.2511,0.2529,0.259,0.2643,0.27,0.2771,0.2826,0.2907,0.2918,0.292,0.292,0.292,0.292,0.292,0.292,0.292,0.292,0.292,0.292,0.292,0.292,0.292,0.292,0.292,0.292,0.292,0.292,0.292,0.292,0.292,0.292,0.292,0.292,0.292,0.292,0.292,0.292,0.292,0.292,0.292,0.292,0.292,0.292,0.292,0.292,0.292,0.292,0.292,0.0,0.0,0.0,0.0,0.0,0.0,0.0,0.0,0.0,0.0,0.5863,0.5348,0.0,0.0,0.0,0.0,0.0,0.0,0.371,0.0,0.0,0.2627,0.2102,0.1797,0.1797,0.1845,0.1903,0.1971,0.1835,0.1821,0.1873,0.188,0.1783,0.1614,0.1817,0.1681,0.1344,0.1344,0.1344,0.1344,0.1311,0.1311,0.1311,0.1277,0.121,0.1109,0.1109,0.1109,0.1109,0.1109,0.1109,0.0,0.0,0.0,0.1097,0.1189,0.1322,0.1485,0.1601,0.0,0.2196,0.0,0.2511,0.2511,0.0,0.0,0.2511,0.0,0.2511,0.2529,0.259,0.2608,0.2651,0.2764,0.279,0.2813,0.2911,0.292,0.292,0.292,0.292,0.292,0.292,0.292,0.292,0.292,0.292,0.292,0.292,0.292,0.292,0.292,0.292,0.292,0.292,0.292,0.292,0.292,0.292,0.292,0.292,0.292,0.292,0.292,0.292,0.292,0.292,0.292,0.292,0.292,0.292,0.292,0.292,0.292,0.292,0.292,0.0,0.0,0.0,0.0,0.0,0.0,0.0,0.0,0.0,0.0,0.0,0.5725,0.0,0.0,0.0,0.4673,0.4581,0.4202,0.3458,0.2822,0.2404,0.2212,0.1936,0.1812,0.1843,0.1897,0.1898,0.1896,0.1825,0.1733,0.158,0.1783,0.1748,0.1446,0.1648,0.158,0.1311,0.1412,0.148,0.1448,0.1402,0.1398,0.1451,0.1288,0.1255,0.1241,0.1191,0.1162,0.1162,0.1162,0.1162,0.1164,0.1285,0.0,0.0,0.0,0.153,0.1589,0.1724,0.1962,0.2235,0.0,0.2511,0.2511,0.2511,0.0,0.2511,0.2511,0.2511,0.2519,0.2545,0.2578,0.2619,0.2673,0.271,0.2753,0.2815,0.2823,0.2879,0.2914,0.292,0.292,0.292,0.292,0.292,0.292,0.292,0.292,0.292,0.292,0.292,0.292,0.292,0.292,0.292,0.292,0.292,0.292,0.292,0.292,0.292,0.292,0.292,0.292,0.292,0.292,0.292,0.292,0.292,0.292,0.292,0.292,0.292,0.292,0.292,0.292,0.0,0.0,0.0,0.0,0.0,0.0,0.0,0.0,0.0,0.0,0.0,0.0,0.0,0.0,0.0,0.0,0.4725,0.4101,0.3072,0.2655,0.235,0.2046,0.1895,0.1838,0.1909,0.1941,0.191,0.1804,0.1752,0.1613,0.1379,0.1614,0.1614,0.1379,0.158,0.158,0.1379,0.1547,0.1621,0.1633,0.1553,0.1554,0.162,0.1462,0.1432,0.1491,0.1376,0.1348,0.1348,0.1348,0.1348,0.1387,0.1543,0.1567,0.0,0.0,0.0,0.0,0.0,0.0,0.2118,0.2353,0.2431,0.2431,0.0,0.0,0.2511,0.0,0.2511,0.2511,0.2511,0.2548,0.2583,0.2598,0.264,0.2691,0.2752,0.276,0.2777,0.2823,0.2885,0.2896,0.2896,0.291,0.292,0.292,0.292,0.292,0.292,0.292,0.292,0.292,0.292,0.292,0.292,0.292,0.292,0.292,0.292,0.292,0.292,0.292,0.292,0.292,0.292,0.292,0.292,0.292,0.292,0.292,0.292,0.292,0.292,0.292,0.292,0.292,0.0,0.0,0.0,0.0,0.0,0.0,0.0,0.0,0.0,0.0,0.0,0.0,0.5646,0.5943,0.5905,0.5347,0.4529,0.3649,0.2792,0.2184,0.2074,0.2627,0.2161,0.0,0.1911,0.2026,0.1992,0.1804,0.1689,0.1612,0.158,0.1412,0.1412,0.158,0.1783,0.1783,0.158,0.158,0.164,0.171,0.1839,0.1807,0.1703,0.1878,0.1889,0.1783,0.1785,0.1786,0.1786,0.0,0.1786,0.1758,0.1764,0.1779,0.1789,0.0,0.0,0.0,0.0,0.1611,0.0,0.2118,0.2235,0.0,0.0,0.0,0.0,0.2511,0.2511,0.2511,0.2511,0.2514,0.2534,0.2593,0.2604,0.2627,0.2688,0.2698,0.2698,0.2702,0.2752,0.2788,0.2788,0.2885,0.292,0.292,0.292,0.292,0.292,0.292,0.292,0.292,0.292,0.292,0.292,0.292,0.292,0.292,0.292,0.292,0.292,0.292,0.292,0.292,0.292,0.292,0.292,0.292,0.292,0.292,0.292,0.292,0.292,0.292,0.292,0.292,0.0,0.0,0.0,0.0,0.0,0.0,0.0,0.0,0.0,0.0,0.0,0.0,0.0,0.4692,0.4673,0.4374,0.3984,0.3462,0.2822,0.2569,0.239,0.2261,0.2078,0.1988,0.2028,0.1944,0.1886,0.1855,0.1674,0.1547,0.1412,0.1614,0.158,0.1412,0.1614,0.1681,0.1616,0.1783,0.1875,0.1897,0.1981,0.2039,0.2085,0.1985,0.1957,0.1986,0.1904,0.0,0.0,0.0,0.0,0.0,0.0,0.0,0.0,0.0,0.0,0.0,0.0,0.0,0.0,0.2118,0.2196,0.2235,0.247,0.2511,0.2511,0.2511,0.2511,0.2511,0.2511,0.2511,0.2518,0.254,0.2544,0.2564,0.2625,0.2634,0.2649,0.2687,0.2711,0.2725,0.2725,0.2745,0.2774,0.2812,0.2816,0.2877,0.2917,0.292,0.292,0.292,0.292,0.292,0.292,0.292,0.292,0.292,0.292,0.292,0.292,0.292,0.292,0.292,0.292,0.292,0.292,0.292,0.292,0.292,0.292,0.292,0.292,0.292,0.292,0.292,0.0,0.0,0.0,0.0,0.0,0.0,0.0,0.0,0.4883,0.4658,0.0,0.0,0.0,0.0,0.386,0.3544,0.3442,0.3116,0.2561,0.2535,0.238,0.2001,0.2023,0.2053,0.2095,0.1966,0.1897,0.1884,0.1733,0.1565,0.1412,0.1681,0.1681,0.1513,0.1596,0.1672,0.1742,0.1983,0.2055,0.2057,0.2149,0.2207,0.225,0.2115,0.2123,0.2229,0.0,0.0,0.0,0.0,0.0,0.0,0.0,0.0,0.0,0.0,0.0,0.0,0.1729,0.0,0.0,0.0,0.0,0.2158,0.2354,0.0,0.2511,0.2511,0.2511,0.2511,0.2511,0.2511,0.2511,0.2511,0.2511,0.2525,0.2565,0.2571,0.2586,0.2627,0.265,0.2661,0.2661,0.268,0.2709,0.2749,0.2752,0.0,0.2885,0.2888,0.2897,0.2918,0.292,0.292,0.292,0.292,0.292,0.292,0.292,0.292,0.292,0.292,0.292,0.292,0.292,0.292,0.292,0.292,0.292,0.292,0.292,0.292,0.292,0.292,0.292,0.292,0.0,0.0,0.0,0.0,0.0,0.0,0.0,0.0,0.4,0.374,0.0,0.0,0.0,0.0,0.0,0.3078,0.2963,0.2647,0.2067,0.2006,0.2006,0.2009,0.2066,0.2098,0.2098,0.2098,0.2029,0.1918,0.1831,0.1735,0.1614,0.1614,0.1716,0.1889,0.1767,0.1825,0.2004,0.2144,0.2173,0.2118,0.2252,0.2258,0.2229,0.2368,0.2459,0.0,0.2511,0.2511,0.0,0.2511,0.0,0.0,0.0,0.0,0.0,0.0,0.0,0.0,0.0,0.0,0.0,0.0,0.0,0.0,0.2157,0.0,0.2511,0.2511,0.2511,0.2511,0.2511,0.2511,0.2511,0.2511,0.2511,0.2511,0.2511,0.2511,0.2511,0.2511,0.2563,0.2598,0.2598,0.2653,0.2687,0.2689,0.2689,0.2715,0.2778,0.2782,0.2811,0.2914,0.2918,0.292,0.292,0.292,0.292,0.292,0.292,0.292,0.292,0.292,0.292,0.292,0.292,0.292,0.292,0.292,0.292,0.292,0.292,0.292,0.292,0.292,0.292,0.292,0.0,0.0,0.0,0.0,0.0,0.4039,0.4013,0.4028,0.3954,0.0,0.0,0.0,0.3806,0.3981,0.3987,0.3813,0.3301,0.2921,0.2795,0.2354,0.2089,0.2134,0.2153,0.2161,0.2161,0.2029,0.2003,0.212,0.1802,0.1702,0.1817,0.1817,0.1802,0.1768,0.1957,0.2078,0.2152,0.2189,0.2171,0.2201,0.2376,0.2442,0.243,0.2453,0.0,0.0,0.0,0.2511,0.2511,0.0,0.2392,0.2275,0.0,0.0,0.0,0.0,0.0,0.0,0.1533,0.0,0.0,0.0,0.0,0.0,0.0,0.0,0.0,0.2511,0.2511,0.2511,0.2511,0.2511,0.2511,0.2511,0.2511,0.2511,0.2511,0.2511,0.2511,0.2511,0.2525,0.2535,0.2535,0.255,0.2579,0.0,0.2627,0.2653,0.2714,0.2759,0.279,0.2808,0.2896,0.292,0.292,0.292,0.292,0.292,0.292,0.292,0.292,0.292,0.292,0.292,0.292,0.292,0.292,0.292,0.292,0.292,0.292,0.292,0.292,0.292,0.292,0.292,0.0,0.0,0.0,0.4173,0.3882,0.3681,0.3681,0.3662,0.3672,0.0,0.0,0.0,0.3574,0.3381,0.3255,0.3255,0.2886,0.2674,0.272,0.2363,0.215,0.2186,0.2188,0.2188,0.2188,0.2062,0.2062,0.2188,0.1929,0.1828,0.1884,0.1884,0.1878,0.1824,0.2057,0.2188,0.2272,0.222,0.223,0.2348,0.2458,0.2511,0.2511,0.2511,0.2511,0.0,0.0,0.0,0.2511,0.2511,0.2431,0.0,0.0,0.0,0.0,0.0,0.0,0.0,0.0,0.0,0.0,0.0,0.0,0.0,0.2314,0.2431,0.2511,0.0,0.2511,0.2511,0.2511,0.2511,0.2511,0.2511,0.2511,0.2511,0.2511,0.2511,0.2511,0.2511,0.2511,0.2511,0.2511,0.2511,0.2525,0.2561,0.2564,0.259,0.2651,0.2711,0.2745,0.2745,0.2804,0.2837,0.2837,0.2906,0.292,0.292,0.292,0.292,0.292,0.292,0.292,0.292,0.292,0.292,0.292,0.292,0.292,0.292,0.292,0.292,0.292,0.292,0.292,0.292,0.0,0.0,0.4072,0.3541,0.3284,0.3132,0.3175,0.3147,0.3326,0.0,0.3986,0.3884,0.3352,0.2732,0.2331,0.2331,0.232,0.2321,0.2321,0.2255,0.2188,0.2188,0.2188,0.2188,0.2188,0.2134,0.2132,0.2188,0.2132,0.2038,0.1926,0.1892,0.1924,0.2018,0.2067,0.2191,0.2357,0.2254,0.2314,0.2511,0.247,0.247,0.2511,0.0,0.2511,0.2511,0.2511,0.2511,0.2511,0.247,0.247,0.0,0.0,0.0,0.0,0.0,0.2042,0.0,0.0,0.0,0.0,0.0,0.0,0.0,0.2235,0.2353,0.2511,0.0,0.2511,0.2511,0.2511,0.2511,0.2511,0.2511,0.2511,0.2511,0.2511,0.2511,0.2511,0.2511,0.2511,0.2511,0.2511,0.2511,0.2511,0.2511,0.2511,0.2534,0.2589,0.2649,0.2683,0.2683,0.2741,0.2777,0.2783,0.2837,0.2911,0.292,0.292,0.292,0.292,0.292,0.292,0.292,0.292,0.292,0.292,0.292,0.292,0.292,0.292,0.292,0.292,0.292,0.292,0.292,0.0,0.4259,0.3759,0.3264,0.3222,0.3322,0.3558,0.3485,0.3582,0.4057,0.4067,0.3791,0.3187,0.3563,0.3855,0.3855,0.334,0.3017,0.3017,0.2487,0.2188,0.2188,0.2188,0.2188,0.2188,0.2175,0.2175,0.2188,0.2041,0.1997,0.2122,0.1879,0.1856,0.2091,0.1915,0.1981,0.222,0.2192,0.2314,0.247,0.2314,0.2353,0.2511,0.2511,0.2511,0.2511,0.2511,0.2511,0.247,0.2314,0.2353,0.247,0.0,0.0,0.0,0.2157,0.0,0.0,0.0,0.0,0.0,0.0,0.0,0.0,0.2392,0.247,0.2511,0.0,0.2511,0.2511,0.2511,0.2511,0.2511,0.2511,0.2511,0.2511,0.2511,0.2511,0.2511,0.2511,0.2511,0.2511,0.2511,0.2511,0.2511,0.2511,0.2511,0.2515,0.2527,0.2586,0.2619,0.2619,0.2679,0.2733,0.2782,0.2796,0.2826,0.292,0.292,0.292,0.292,0.292,0.292,0.292,0.292,0.292,0.292,0.292,0.292,0.292,0.292,0.292,0.292,0.292,0.292,0.292,0.5105,0.468,0.4178,0.3656,0.3605,0.3613,0.3555,0.348,0.3731,0.4532,0.4664,0.4614,0.436,0.4317,0.4154,0.3785,0.3416,0.305,0.272,0.2388,0.2188,0.2188,0.2188,0.2188,0.2188,0.2188,0.2203,0.2199,0.2096,0.2125,0.2255,0.1967,0.2008,0.2233,0.2046,0.2111,0.2353,0.2235,0.2314,0.251,0.2392,0.0,0.2511,0.2511,0.2511,0.2511,0.2511,0.2511,0.247,0.2392,0.2431,0.0,0.2392,0.2353,0.2314,0.0,0.2198,0.2159,0.0,0.0,0.0,0.2314,0.0,0.0,0.0,0.2511,0.2511,0.2511,0.2511,0.2511,0.2511,0.2511,0.2511,0.2511,0.2511,0.247,0.2353,0.2431,0.2511,0.2511,0.2511,0.2511,0.2511,0.2511,0.247,0.2353,0.2353,0.2353,0.2353,0.2459,0.2556,0.2556,0.2616,0.2661,0.2692,0.2753,0.2798,0.283,0.2904,0.292,0.292,0.292,0.292,0.292,0.292,0.292,0.292,0.292,0.292,0.292,0.292,0.292,0.292,0.292,0.292,0.292,0.5484,0.5055,0.4582,0.4007,0.391,0.3889,0.3727,0.3684,0.3942,0.4737,0.4911,0.4981,0.4948,0.432,0.3654,0.305,0.3017,0.2792,0.2238,0.2206,0.2211,0.2222,0.2224,0.2224,0.2224,0.2224,0.2213,0.2226,0.2226,0.2257,0.2315,0.2131,0.2159,0.236,0.2136,0.2198,0.2431,0.2275,0.2314,0.2511,0.0,0.2511,0.2511,0.2511,0.2511,0.2511,0.2511,0.2511,0.2511,0.2511,0.2511,0.2511,0.2511,0.2511,0.0,0.0,0.0,0.0,0.0,0.0,0.0,0.0,0.0,0.2511,0.0,0.0,0.0,0.2511,0.2511,0.0,0.0,0.0,0.0,0.0,0.0,0.0,0.0,0.215,0.0,0.2156,0.2353,0.2431,0.2196,0.2196,0.2196,0.2196,0.1999,0.1999,0.2195,0.2353,0.247,0.2511,0.2557,0.259,0.2601,0.2699,0.276,0.2783,0.2877,0.2907,0.292,0.292,0.292,0.292,0.292,0.292,0.292,0.292,0.292,0.292,0.292,0.292,0.292,0.292,0.292,0.292,0.4829,0.4408,0.4134,0.3643,0.361,0.3919,0.47,0.4719,0.4481,0.4023,0.3644,0.3218,0.2654,0.2488,0.2421,0.2321,0.2321,0.2278,0.2196,0.22,0.2224,0.2276,0.2279,0.2279,0.2279,0.2279,0.2281,0.2288,0.2288,0.2318,0.2373,0.2187,0.2139,0.2226,0.1995,0.2037,0.2235,0.2196,0.2314,0.0,0.2511,0.2511,0.0,0.2511,0.2511,0.2511,0.2511,0.2511,0.2511,0.0,0.2511,0.2511,0.0,0.2511,0.2511,0.247,0.0,0.0,0.0,0.0,0.0,0.0,0.2511,0.0,0.0,0.0,0.2511,0.2511,0.0,0.0,0.0,0.0,0.0,0.0,0.0,0.0,0.1678,0.1277,0.1019,0.0823,0.1803,0.2117,0.1175,0.1097,0.141,0.2156,0.1332,0.1214,0.2156,0.2235,0.2314,0.2511,0.2518,0.2546,0.2601,0.2616,0.2676,0.2783,0.279,0.2822,0.292,0.292,0.292,0.292,0.292,0.292,0.292,0.292,0.292,0.292,0.292,0.292,0.292,0.292,0.292,0.292,0.5892,0.5733,0.5574,0.5082,0.5033,0.5018,0.4906,0.4668,0.4254,0.3594,0.3742,0.3971,0.4209,0.3799,0.3554,0.3585,0.3166,0.2727,0.0,0.2261,0.2273,0.2297,0.2299,0.2299,0.2299,0.2299,0.2315,0.2347,0.2347,0.2377,0.2471,0.2241,0.2254,0.2353,0.2158,0.2198,0.2392,0.2392,0.2431,0.0,0.0,0.2511,0.0,0.2511,0.2511,0.2511,0.2511,0.2511,0.2511,0.0,0.2511,0.0,0.0,0.0,0.0,0.2511,0.0,0.0,0.0,0.0,0.0,0.0,0.0,0.0,0.2511,0.0,0.2511,0.0,0.0,0.0,0.0,0.0,0.0,0.0,0.2181,0.0,0.0,0.0,0.0352,0.0,0.0,0.0,0.0901,0.0784,0.1097,0.1963,0.1019,0.0902,0.1963,0.2118,0.2275,0.2511,0.2511,0.2523,0.2548,0.2583,0.2627,0.2679,0.2749,0.2797,0.2823,0.2903,0.292,0.292,0.292,0.292,0.292,0.292,0.292,0.292,0.292,0.292,0.292,0.292,0.292,0.292,0.6392,0.6428,0.6285,0.5711,0.5538,0.5301,0.4815,0.4501,0.4175,0.3725,0.4127,0.4618,0.5066,0.4612,0.4285,0.4316,0.3561,0.2885,0.0,0.2322,0.233,0.2346,0.2347,0.2347,0.2347,0.2347,0.2366,0.2444,0.2444,0.2467,0.2511,0.2353,0.2353,0.2511,0.2353,0.2353,0.2511,0.0,0.2511,0.2511,0.2511,0.2511,0.2511,0.2511,0.2511,0.2511,0.2511,0.2511,0.2511,0.2511,0.2511,0.0,0.2511,0.2511,0.2511,0.0,0.0,0.0,0.2511,0.0,0.0,0.0,0.0,0.0,0.0,0.0,0.0,0.0,0.0,0.0,0.0,0.0,0.0,0.2488,0.0,0.1564,0.0,0.0234,0.0,0.0,0.0,0.0,0.0,0.0078,0.0274,0.1374,0.047,0.0431,0.1729,0.2003,0.2198,0.2392,0.247,0.2511,0.2511,0.2555,0.2585,0.2602,0.2691,0.2751,0.2785,0.283,0.2903,0.292,0.292,0.292,0.292,0.292,0.292,0.292,0.292,0.292,0.292,0.292,0.292,0.292,0.5526,0.5496,0.5371,0.4514,0.4084,0.4053,0.4537,0.4492,0.4434,0.4544,0.4596,0.4347,0.3742,0.3636,0.3636,0.3634,0.0,0.2358,0.2375,0.2379,0.2443,0.2501,0.2504,0.2504,0.2504,0.2504,0.2506,0.2507,0.2507,0.2508,0.2511,0.2511,0.2511,0.2511,0.2511,0.2511,0.2511,0.2511,0.2511,0.2511,0.2511,0.2511,0.2511,0.0,0.2511,0.2511,0.2511,0.0,0.0,0.2511,0.2511,0.0,0.0,0.0,0.0,0.0,0.0,0.0,0.0,0.0,0.0,0.2511,0.0,0.0,0.0,0.0,0.2511,0.0,0.0,0.0,0.0,0.2511,0.2491,0.2432,0.2279,0.0,0.0,0.0,0.0,0.0,0.0,0.0,0.0,-0.1487,-0.1408,0.0235,-0.0627,-0.0431,0.1493,0.1808,0.2004,0.2196,0.2392,0.2511,0.2511,0.2512,0.2544,0.2601,0.2605,0.2669,0.2783,0.2785,0.2818,0.292,0.292,0.292,0.292,0.292,0.292,0.292,0.292,0.292,0.292,0.292,0.292,0.292,0.6625,0.6519,0.6041,0.4661,0.4852,0.5236,0.5416,0.5406,0.506,0.4119,0.3985,0.3935,0.3734,0.321,0.3095,0.0,0.0,0.2459,0.2478,0.248,0.0,0.251,0.2511,0.2511,0.0,0.2511,0.2511,0.2511,0.2511,0.2511,0.2511,0.2511,0.2511,0.2511,0.2511,0.2511,0.0,0.0,0.0,0.0,0.0,0.2511,0.2511,0.0,0.2511,0.2511,0.2511,0.2511,0.0,0.2511,0.2511,0.2511,0.2511,0.2511,0.2511,0.2511,0.2511,0.2511,0.0,0.0,0.2511,0.2511,0.0,0.0,0.0,0.0,0.0,0.0,0.0,0.0,0.0,0.2511,0.2464,0.2289,0.1403,0.0508,0.0,0.0,0.0,0.0,0.0,0.0,0.0,0.0,0.0,0.0431,0.0157,0.051,0.1729,0.2003,0.2118,0.2196,0.2392,0.2511,0.2511,0.2511,0.252,0.2542,0.2582,0.2644,0.2725,0.2764,0.2816,0.292,0.292,0.292,0.292,0.292,0.292,0.292,0.292,0.292,0.292,0.292,0.292,0.292,0.6645,0.646,0.6079,0.5145,0.5268,0.5521,0.5528,0.5298,0.4791,0.385,0.3749,0.3768,0.3785,0.0,0.3171,0.0,0.3015,0.2511,0.2511,0.2511,0.0,0.2511,0.2511,0.2511,0.0,0.0,0.0,0.2511,0.2511,0.2511,0.2511,0.2511,0.2511,0.2511,0.2511,0.2511,0.2511,0.2511,0.2511,0.0,0.0,0.2511,0.0,0.0,0.2511,0.2511,0.0,0.2511,0.2511,0.2511,0.2511,0.2511,0.2511,0.2511,0.2511,0.2511,0.2511,0.2511,0.2511,0.2511,0.0,0.2511,0.2511,0.0,0.2511,0.0,0.2511,0.0,0.0,0.0,0.0,0.0,0.2353,0.2235,0.1019,-0.0157,0.0,-0.2391,0.0,0.0,0.0,0.0,0.0,0.0,-0.1096,0.047,0.0196,0.047,0.0,0.1924,0.2002,0.208,0.2275,0.2431,0.2511,0.2511,0.2511,0.2511,0.255,0.2601,0.2662,0.2723,0.2783,0.2886,0.291,0.292,0.292,0.292,0.292,0.292,0.292,0.292,0.292,0.292,0.292,0.292,0.5705,0.5535,0.561,0.5935,0.5381,0.4874,0.4961,0.4307,0.3815,0.3859,0.383,0.3791,0.3752,0.3752,0.3752,0.3752,0.2978,0.2511,0.2511,0.2511,0.0,0.0,0.2511,0.2511,0.2511,0.0,0.0,0.0,0.2511,0.2511,0.2511,0.2511,0.2511,0.2511,0.2511,0.2511,0.2511,0.2511,0.2511,0.2511,0.2511,0.2511,0.2511,0.2511,0.2511,0.2511,0.2511,0.2511,0.2511,0.2511,0.2511,0.2511,0.2511,0.2511,0.2511,0.2511,0.2511,0.2511,0.2511,0.2511,0.2511,0.2511,0.2511,0.0,0.0,0.0,0.2511,0.0,0.0,0.0,0.0,0.0,0.2196,0.2195,0.1097,-0.0431,-0.2235,0.0,0.0,0.0,0.0,0.0,0.0,-0.3132,-0.2506,0.0313,-0.0548,-0.0392,0.0,0.1572,0.165,0.1887,0.2119,0.2314,0.2511,0.2511,0.2511,0.2511,0.2511,0.2542,0.2604,0.2665,0.2726,0.2786,0.2892,0.292,0.292,0.292,0.292,0.292,0.292,0.292,0.292,0.292,0.292,0.292,0.7192,0.7182,0.7165,0.7082,0.641,0.5861,0.5854,0.5685,0.5351,0.4763,0.4183,0.356,0.2899,0.2821,0.2821,0.2821,0.2627,0.0,0.0,0.0,0.0,0.2511,0.2511,0.2511,0.2511,0.2511,0.2511,0.2511,0.0,0.2511,0.2511,0.2511,0.2511,0.2511,0.2511,0.2511,0.2511,0.2511,0.2511,0.2511,0.2511,0.2511,0.2511,0.0,0.2511,0.2511,0.2511,0.2511,0.2511,0.2511,0.2511,0.2511,0.2511,0.2511,0.2511,0.2511,0.2511,0.2511,0.2511,0.2511,0.2511,0.2511,0.2511,0.2511,0.0,0.0,0.0,0.0,0.0,0.0,0.0,0.0,0.0,0.0,0.0353,0.0,0.0,0.0,0.0,-0.3802,0.0,0.0,0.0,-0.2665,-0.1645,-0.0392,-0.0313,0.0314,0.1729,0.0,0.1334,0.1887,0.2237,0.2431,0.2511,0.2511,0.2511,0.2511,0.2511,0.2542,0.2604,0.2665,0.2726,0.2786,0.2892,0.292,0.292,0.292,0.292,0.292,0.292,0.292,0.292,0.292,0.292,0.292,0.7913,0.7913,0.7757,0.7169,0.6665,0.618,0.5726,0.5713,0.5277,0.4093,0.3571,0.0,0.263,0.259,0.259,0.259,0.259,0.0,0.259,0.0,0.0,0.255,0.2525,0.2511,0.2511,0.2511,0.0,0.2511,0.0,0.2511,0.2511,0.2511,0.2511,0.2511,0.2511,0.2511,0.2511,0.2511,0.2511,0.2511,0.2511,0.2511,0.0,0.2511,0.2511,0.2511,0.2511,0.2511,0.2511,0.2511,0.2511,0.2511,0.2511,0.2511,0.2511,0.2511,0.2511,0.2511,0.2511,0.2511,0.2511,0.2511,0.2511,0.2511,0.2511,0.2511,0.2511,0.0,0.2511,0.2511,0.0,0.0,0.0,0.0,0.0,0.0,0.0,0.0,0.0,0.0,-0.3251,0.0,-0.3724,-0.2193,-0.1019,-0.0627,-0.047,0.0078,0.0,0.0,0.1019,0.1887,0.1765,0.1921,0.2511,0.2038,0.2038,0.2511,0.2511,0.2529,0.2564,0.2653,0.2711,0.2748,0.2837,0.292,0.292,0.292,0.292,0.292,0.292,0.292,0.292,0.292,0.292,0.292,0.814,0.8102,0.7834,0.688,0.6729,0.6426,0.5397,0.5047,0.4463,0.3138,0.0,0.2943,0.3068,0.3068,0.3068,0.3068,0.2943,0.2901,0.2901,0.2724,0.2613,0.2613,0.2555,0.2522,0.2522,0.2515,0.2511,0.0,0.2511,0.2511,0.2511,0.2511,0.2511,0.2511,0.2511,0.0,0.0,0.2511,0.2511,0.2511,0.2511,0.2511,0.2511,0.2511,0.2511,0.2511,0.2511,0.2511,0.2511,0.2511,0.2511,0.2511,0.2511,0.2511,0.2511,0.2511,0.2511,0.2511,0.2511,0.2511,0.2511,0.2511,0.2511,0.2511,0.2511,0.2511,0.2511,0.2511,0.2511,0.2511,0.2511,0.0,0.0,0.0,0.0,0.0,0.0,0.0,0.0,0.0,0.0,0.0,0.0,0.0,-0.0901,-0.0822,-0.1058,0.0,0.0,0.0,0.0706,0.1886,0.1216,0.1332,0.2275,0.1489,0.1489,0.2275,0.2431,0.2511,0.2515,0.2636,0.2692,0.2699,0.2822,0.292,0.292,0.292,0.292,0.292,0.292,0.292,0.292,0.292,0.292,0.292,0.814,0.8217,0.8223,0.7872,0.7976,0.7704,0.6631,0.5103,0.4238,0.4816,0.4307,0.4151,0.4941,0.5025,0.5025,0.5025,0.4318,0.0,0.0,0.0,0.0,0.2676,0.2619,0.2585,0.2585,0.2537,0.2511,0.0,0.2511,0.2511,0.2511,0.2511,0.2511,0.2511,0.0,0.0,0.2511,0.2511,0.0,0.2511,0.2511,0.2511,0.2511,0.2511,0.2511,0.2511,0.2511,0.2511,0.2511,0.2511,0.2511,0.2511,0.2511,0.2511,0.2511,0.2511,0.2511,0.2511,0.2511,0.2511,0.2511,0.2511,0.2511,0.2511,0.2511,0.2511,0.2511,0.2511,0.2511,0.2511,0.2511,0.0,0.0,0.0,0.0,0.0,0.0,0.0,0.0,0.0,0.0,-0.184,0.0,0.0,0.0,-0.1956,-0.243,0.0,0.0,0.0,0.0353,0.0,0.2157,0.0,0.0,0.0,0.1882,0.1175,0.2078,0.2511,0.2515,0.2636,0.2692,0.2699,0.2822,0.292,0.292,0.292,0.292,0.292,0.292,0.292,0.292,0.292,0.292,0.292,0.8602,0.8645,0.8666,0.8443,0.8044,0.7527,0.6947,0.5233,0.438,0.5357,0.4737,0.4383,0.4815,0.4426,0.4169,0.4169,0.3738,0.3478,0.3478,0.3014,0.2738,0.2738,0.2681,0.2649,0.2649,0.2589,0.2557,0.2557,0.0,0.2511,0.2511,0.2511,0.2511,0.2511,0.0,0.2511,0.0,0.0,0.0,0.2511,0.2511,0.2511,0.2511,0.2511,0.2511,0.2511,0.2511,0.2511,0.2511,0.2511,0.2511,0.2511,0.2511,0.2511,0.2511,0.2511,0.2511,0.2511,0.2511,0.2511,0.2511,0.2511,0.2511,0.2511,0.2511,0.2511,0.2511,0.2511,0.2511,0.2511,0.2511,0.2353,0.0,0.0,0.0,0.0,0.0,0.0,-0.0783,0.0,0.0,0.0,0.0,0.0,0.0,0.0,0.0,-0.1683,0.047,0.0,0.0274,0.0,0.0,0.0,0.1724,0.0,0.1685,0.1724,0.2235,0.2511,0.2515,0.2636,0.2692,0.2699,0.2822,0.292,0.292,0.292,0.292,0.292,0.292,0.292,0.292,0.292,0.292,0.292,0.9051,0.9017,0.8937,0.8771,0.7858,0.7073,0.6979,0.5575,0.4797,0.5534,0.487,0.4389,0.4565,0.3942,0.3497,0.3497,0.332,0.3187,0.3187,0.2961,0.2803,0.2803,0.2744,0.2711,0.2711,0.2651,0.2621,0.0,0.0,0.253,0.2529,0.2516,0.2511,0.2511,0.0,0.0,0.0,0.0,0.2511,0.2511,0.2511,0.2511,0.2511,0.2511,0.2511,0.2511,0.2511,0.2511,0.2511,0.2511,0.2511,0.2511,0.2511,0.2511,0.2511,0.2511,0.2511,0.2511,0.2511,0.2511,0.2511,0.2511,0.2511,0.2511,0.2511,0.2511,0.2511,0.2511,0.2511,0.2511,0.2511,0.2353,0.0,0.0,0.0,0.0,0.0,0.0,0.0,0.0,0.0,0.0,-0.18,0.0,0.0,0.0,0.0,-0.1447,0.0235,-0.0274,0.0157,0.0,0.0,0.1214,0.1842,0.0,0.1568,0.2156,0.2392,0.2511,0.2515,0.2636,0.2692,0.2699,0.2822,0.292,0.292,0.292,0.292,0.292,0.292,0.292,0.292,0.292,0.292,0.292,0.9253,0.9109,0.8977,0.8901,0.7947,0.715,0.7095,0.6233,0.557,0.5659,0.487,0.461,0.5497,0.5497,0.5453,0.5453,0.4654,0.4166,0.4166,0.3358,0.291,0.291,0.2807,0.2775,0.2775,0.2714,0.2684,0.0,0.0,0.2593,0.2591,0.2537,0.2511,0.0,0.0,0.0,0.0,0.2511,0.2511,0.2511,0.2511,0.2511,0.2511,0.2511,0.2511,0.2511,0.2511,0.2511,0.2511,0.2511,0.2511,0.2511,0.2511,0.2511,0.2511,0.2511,0.2511,0.2511,0.2511,0.2511,0.2511,0.2511,0.2511,0.2511,0.2511,0.2511,0.2511,0.2511,0.2511,0.2511,0.2511,0.247,0.2392,0.0,0.0,0.0,0.0,0.0,0.1646,0.0862,0.0,0.0,-0.0705,-0.1803,0.0,0.0,-0.1642,-0.1682,-0.0548,-0.0548,-0.0117,0.0979,0.094,0.0509,-0.0313,0.145,0.1921,0.1058,0.2038,0.2511,0.2515,0.2636,0.2692,0.2699,0.2822,0.292,0.292,0.292,0.292,0.292,0.292,0.292,0.292,0.292,0.292,0.292,0.9313,0.9241,0.8961,0.8206,0.7567,0.6933,0.0,0.5453,0.4877,0.4877,0.452,0.4431,0.4832,0.4342,0.4032,0.4032,0.3676,0.3454,0.3454,0.3097,0.292,0.292,0.2896,0.2882,0.2882,0.2778,0.2747,0.0,0.0,0.0,0.0,0.2631,0.26,0.0,0.0,0.2511,0.2511,0.2511,0.2511,0.2511,0.2511,0.2511,0.2511,0.2511,0.2511,0.2511,0.2511,0.2511,0.2511,0.2511,0.2511,0.2511,0.2511,0.2511,0.2511,0.2511,0.2511,0.2511,0.2511,0.2511,0.2511,0.2511,0.2511,0.2511,0.2511,0.2511,0.2511,0.2511,0.2511,0.2511,0.2511,0.2511,0.247,0.2392,0.0,0.0,0.0,0.0,0.0,0.1724,0.0,0.0902,0.0,-0.1097,0.0,0.0,0.0,-0.2427,-0.0705,-0.0587,-0.0431,0.0,0.0,0.1371,0.0313,0.1763,0.2275,0.1882,0.2314,0.2529,0.2568,0.2653,0.2732,0.2804,0.2897,0.292,0.292,0.292,0.292,0.292,0.292,0.292,0.292,0.292,0.292,0.292,0.9525,0.9381,0.9038,0.8197,0.7492,0.6874,0.6207,0.5322,0.4699,0.4699,0.4699,0.452,0.3942,0.3275,0.292,0.292,0.292,0.292,0.292,0.292,0.292,0.292,0.292,0.0,0.292,0.2832,0.2809,0.2809,0.2749,0.0,0.0,0.0,0.0,0.0,0.2583,0.2564,0.2564,0.2564,0.2564,0.2564,0.2564,0.2564,0.2564,0.2564,0.2553,0.2537,0.2537,0.2526,0.2511,0.2511,0.2511,0.2511,0.2511,0.2511,0.2511,0.2511,0.2511,0.2511,0.2511,0.2511,0.2511,0.2511,0.2511,0.2511,0.2511,0.2511,0.2511,0.2511,0.2511,0.2511,0.2511,0.2511,0.247,0.2431,0.0,0.0,0.0,0.2315,0.0,0.2196,0.1924,0.1492,0.0823,-0.0235,0.0,0.0,0.0,-0.2271,-0.0666,-0.0587,0.0,0.0,0.0,0.0,0.0901,0.196,0.2511,0.2511,0.2511,0.2542,0.2604,0.2683,0.2775,0.292,0.292,0.292,0.292,0.292,0.292,0.292,0.292,0.292,0.292,0.292,0.292,0.292,0.999,0.9602,0.9305,0.9301,0.8065,0.7095,0.7095,0.6296,0.5675,0.5675,0.5675,0.4964,0.3097,0.292,0.292,0.292,0.292,0.292,0.292,0.292,0.292,0.0,0.0,0.292,0.292,0.2918,0.2918,0.2918,0.0,0.0,0.2781,0.0,0.2692,0.2691,0.2691,0.2691,0.2691,0.2691,0.2691,0.2691,0.2691,0.2691,0.2691,0.2691,0.2653,0.26,0.26,0.2561,0.2511,0.2511,0.2511,0.2511,0.2511,0.2511,0.2511,0.2511,0.2511,0.2511,0.2511,0.2511,0.2511,0.2511,0.2511,0.2511,0.2511,0.2511,0.2511,0.2511,0.2511,0.2511,0.2511,0.2511,0.2431,0.2235,0.0,0.0,0.0,0.1846,0.0,0.2157,0.1688,0.1454,0.1848,0.0745,0.0,0.0,0.0,0.0,0.0,0.0,0.0,0.0862,0.0901,0.0,0.0901,0.196,0.2511,0.2511,0.2511,0.2542,0.2605,0.2726,0.2816,0.292,0.292,0.292,0.292,0.292,0.292,0.292,0.292,0.292,0.292,0.292,0.292,0.292,0.9777,0.9476,0.9038,0.8197,0.7536,0.6874,0.6251,0.5897,0.5719,0.5719,0.5719,0.5453,0.4877,0.4255,0.3587,0.0,0.292,0.292,0.0,0.292,0.292,0.292,0.292,0.292,0.292,0.292,0.292,0.292,0.0,0.0,0.0,0.2782,0.2755,0.2752,0.2711,0.2692,0.2692,0.2692,0.2692,0.2692,0.2692,0.2692,0.2692,0.2692,0.268,0.2664,0.2664,0.2651,0.2634,0.2634,0.2634,0.2627,0.2585,0.2544,0.2511,0.2511,0.2511,0.2511,0.2511,0.2511,0.2511,0.2511,0.2511,0.2511,0.2511,0.2511,0.2511,0.2511,0.2511,0.2511,0.2511,0.2511,0.247,0.2431,0.2275,0.0,0.2196,0.0,0.1807,0.1806,0.1611,0.1493,0.1493,0.0588,0.0,0.0,0.0,0.0,0.0,0.0,0.0,0.0,0.1254,0.0,0.0901,0.196,0.2511,0.2511,0.2552,0.2625,0.2728,0.2808,0.29,0.292,0.292,0.292,0.292,0.292,0.292,0.292,0.292,0.292,0.292,0.292,0.292,0.292,0.9646,0.9432,0.9038,0.8153,0.7804,0.7452,0.6874,0.6786,0.6786,0.6786,0.6786,0.6653,0.6251,0.5719,0.0,0.3544,0.3409,0.3275,0.292,0.292,0.292,0.292,0.292,0.292,0.292,0.292,0.0,0.292,0.292,0.292,0.2918,0.2835,0.2818,0.2815,0.2778,0.276,0.276,0.276,0.276,0.276,0.276,0.276,0.276,0.276,0.2747,0.2726,0.2726,0.2711,0.2692,0.2692,0.2692,0.2685,0.2647,0.2609,0.257,0.2523,0.2511,0.2511,0.2511,0.2511,0.2511,0.2511,0.2511,0.2511,0.2511,0.2511,0.2511,0.2511,0.2511,0.2511,0.2511,0.2511,0.2511,0.2511,0.2276,0.2119,0.2195,0.0,0.165,0.0,0.0,0.0,0.0,0.0824,0.0274,0.0,0.0,0.0,0.0,0.0,0.0352,0.0431,0.1803,0.2195,0.1489,0.2156,0.2511,0.2511,0.2595,0.2687,0.2785,0.2891,0.292,0.292,0.292,0.292,0.292,0.292,0.292,0.292,0.292,0.292,0.292,0.292,0.292,0.2873,0.9646,0.9432,0.9218,0.8955,0.874,0.8612,0.8612,0.8612,0.8612,0.8612,0.8612,0.8256,0.7319,0.7187,0.6473,0.4654,0.0,0.0,0.2963,0.292,0.292,0.292,0.292,0.292,0.292,0.292,0.292,0.292,0.292,0.292,0.292,0.292,0.292,0.292,0.292,0.292,0.292,0.292,0.292,0.292,0.292,0.292,0.292,0.292,0.2839,0.2789,0.2789,0.2753,0.2704,0.2704,0.2704,0.2704,0.27,0.2699,0.2674,0.2552,0.2516,0.2516,0.2512,0.2511,0.2511,0.2511,0.2511,0.2511,0.2511,0.2511,0.2511,0.2511,0.2511,0.2511,0.2511,0.2511,0.2511,0.2511,0.2159,0.1963,0.2157,0.1688,0.1375,0.0,0.0,0.0,0.1296,0.1296,0.1257,0.0,0.0,0.0,0.0,0.0,0.0313,0.2156,0.2392,0.2511,0.2511,0.2511,0.2515,0.2525,0.2643,0.273,0.2792,0.2893,0.292,0.292,0.292,0.292,0.292,0.292,0.292,0.292,0.292,0.292,0.292,0.292,0.292,0.2784,0.9646,0.9432,0.9218,0.8955,0.874,0.8612,0.8612,0.8612,0.8612,0.8612,0.8612,0.852,0.8252,0.8256,0.7764,0.6564,0.5142,0.39,0.2963,0.292,0.292,0.292,0.292,0.292,0.292,0.292,0.292,0.292,0.292,0.292,0.292,0.292,0.292,0.292,0.292,0.292,0.292,0.292,0.292,0.292,0.292,0.292,0.292,0.292,0.291,0.2897,0.2897,0.2888,0.2875,0.2875,0.2875,0.2823,0.2777,0.2762,0.2737,0.2616,0.2579,0.257,0.2523,0.2511,0.2511,0.2511,0.2511,0.2511,0.2511,0.2511,0.2511,0.2511,0.2511,0.2511,0.2511,0.2511,0.2511,0.2511,0.2275,0.208,0.2003,0.1729,0.1493,0.0,0.1335,0.1296,0.1296,0.1296,0.1021,0.0,0.0,0.0392,0.0431,0.0353,0.0979,0.2392,0.247,0.2511,0.2511,0.2511,0.2557,0.265,0.2726,0.2793,0.2897,0.2913,0.292,0.292,0.292,0.292,0.292,0.292,0.292,0.292,0.292,0.292,0.292,0.292,0.292,0.2784,0.9519,0.9257,0.9043,0.8828,0.8656,0.8612,0.8612,0.8612,0.8612,0.8612,0.8612,0.8612,0.8612,0.8612,0.8032,0.6605,0.5542,0.452,0.3587,0.3142,0.292,0.292,0.292,0.292,0.292,0.292,0.292,0.292,0.292,0.292,0.292,0.292,0.292,0.292,0.292,0.292,0.292,0.292,0.292,0.292,0.292,0.292,0.292,0.292,0.292,0.292,0.292,0.292,0.292,0.292,0.292,0.2913,0.2835,0.2824,0.2807,0.2711,0.2665,0.2629,0.2568,0.2552,0.2545,0.2518,0.2511,0.2511,0.2511,0.2511,0.2511,0.2511,0.2511,0.2511,0.2511,0.2511,0.2511,0.2511,0.2314,0.2157,0.2042,0.1847,0.169,0.1572,0.1493,0.1454,0.1454,0.1336,0.1099,0.0628,0.0588,0.0,0.0745,0.102,0.153,0.2199,0.2393,0.2511,0.2511,0.2538,0.26,0.2694,0.2753,0.2815,0.292,0.292,0.292,0.292,0.292,0.292,0.292,0.292,0.292,0.292,0.292,0.292,0.2873,0.2513,0.2604,0.2694,0.9345,0.913,0.8867,0.8656,0.8612,0.8612,0.8612,0.8612,0.8612,0.8612,0.8612,0.8612,0.8612,0.8612,0.794,0.6296,0.5852,0.5233,0.4166,0.3365,0.292,0.292,0.292,0.292,0.292,0.292,0.292,0.292,0.292,0.292,0.292,0.292,0.292,0.292,0.292,0.292,0.292,0.292,0.292,0.292,0.292,0.292,0.292,0.292,0.292,0.292,0.292,0.292,0.292,0.292,0.292,0.292,0.292,0.292,0.2908,0.2812,0.276,0.2704,0.2634,0.2608,0.2589,0.2537,0.2518,0.2511,0.2511,0.2511,0.2511,0.2511,0.2511,0.2511,0.2511,0.2511,0.2511,0.2511,0.2353,0.2235,0.2196,0.0,0.1925,0.1887,0.1768,0.165,0.1611,0.1454,0.1335,0.1296,0.1296,0.1375,0.1533,0.1729,0.1848,0.1848,0.2276,0.2515,0.2523,0.2585,0.2646,0.2707,0.2767,0.2824,0.292,0.292,0.292,0.292,0.292,0.292,0.292,0.292,0.292,0.292,0.292,0.2829,0.2649,0.2019,0.2109,0.2289,0.9393,0.9262,0.9087,0.8656,0.8612,0.8612,0.8612,0.8612,0.8612,0.8612,0.8612,0.8612,0.8612,0.8612,0.848,0.8164,0.6653,0.4966,0.323,0.2963,0.292,0.292,0.292,0.292,0.292,0.292,0.292,0.292,0.292,0.292,0.292,0.292,0.292,0.292,0.292,0.292,0.292,0.292,0.292,0.292,0.292,0.292,0.292,0.292,0.292,0.292,0.292,0.292,0.292,0.292,0.292,0.292,0.292,0.292,0.2917,0.2907,0.2897,0.2822,0.2709,0.264,0.26,0.259,0.2548,0.2511,0.2511,0.2511,0.2511,0.2511,0.2511,0.2511,0.2511,0.2511,0.2511,0.2511,0.247,0.2392,0.2235,0.0,0.208,0.1925,0.1887,0.1768,0.1611,0.1572,0.1493,0.1296,0.1296,0.1296,0.1335,0.1533,0.165,0.165,0.2198,0.2535,0.2587,0.2647,0.2709,0.277,0.2831,0.291,0.292,0.292,0.292,0.292,0.292,0.292,0.292,0.292,0.292,0.292,0.292,0.2513,0.1974,0.1839,0.148,0.0897,0.9542,0.9257,0.8999,0.8784,0.8656,0.8612,0.8612,0.8612,0.8612,0.8612,0.812,0.7808,0.7808,0.7808,0.7588,0.7098,0.6697,0.5852,0.4476,0.3454,0.292,0.292,0.292,0.292,0.292,0.292,0.292,0.292,0.292,0.292,0.292,0.292,0.292,0.292,0.292,0.292,0.292,0.292,0.292,0.292,0.292,0.292,0.292,0.292,0.292,0.292,0.292,0.292,0.292,0.292,0.292,0.292,0.292,0.292,0.292,0.292,0.2896,0.2812,0.2756,0.2696,0.265,0.265,0.2604,0.2559,0.2559,0.2534,0.2511,0.2511,0.2511,0.2511,0.2511,0.2511,0.2511,0.2511,0.2511,0.247,0.2392,0.2353,0.2314,0.2238,0.212,0.2042,0.1923,0.1807,0.1729,0.1611,0.1611,0.1572,0.1454,0.1767,0.1885,0.1768,0.2185,0.2452,0.2601,0.2695,0.2755,0.2783,0.2889,0.292,0.292,0.292,0.292,0.292,0.292,0.292,0.292,0.292,0.292,0.292,0.292,0.2694,0.2289,0.148,0.1256,0.1076,0.9687,0.931,0.9019,0.8886,0.8725,0.8612,0.8612,0.8612,0.852,0.8296,0.7588,0.7007,0.6786,0.6786,0.6476,0.5764,0.6163,0.6163,0.5408,0.381,0.3008,0.323,0.3008,0.292,0.292,0.292,0.292,0.292,0.292,0.292,0.292,0.292,0.292,0.292,0.292,0.292,0.292,0.292,0.292,0.292,0.292,0.292,0.292,0.292,0.292,0.292,0.292,0.292,0.292,0.292,0.292,0.292,0.292,0.292,0.292,0.292,0.2885,0.2804,0.2804,0.276,0.2713,0.2713,0.2668,0.2619,0.2605,0.2565,0.2527,0.2514,0.2511,0.2511,0.2511,0.2511,0.2511,0.2511,0.0,0.2511,0.2511,0.2511,0.2511,0.2511,0.2353,0.2235,0.2196,0.2042,0.1964,0.1887,0.1887,0.1848,0.169,0.1962,0.2086,0.198,0.2256,0.2451,0.2643,0.2736,0.279,0.2805,0.2896,0.292,0.292,0.292,0.292,0.292,0.292,0.292,0.2875,0.2694,0.2649,0.2649,0.2469,0.2289,0.1974,0.0852,0.0718,0.0807,0.9886,0.9644,0.9386,0.889,0.867,0.8612,0.8612,0.8612,0.8252,0.7319,0.7139,0.6786,0.5897,0.5808,0.5764,0.5719,0.4964,0.4476,0.4387,0.3454,0.3275,0.4166,0.3365,0.292,0.292,0.292,0.292,0.292,0.292,0.292,0.292,0.292,0.292,0.292,0.292,0.292,0.292,0.292,0.292,0.292,0.292,0.292,0.292,0.292,0.292,0.292,0.292,0.292,0.292,0.292,0.292,0.292,0.292,0.292,0.292,0.292,0.2915,0.2911,0.2911,0.2823,0.2777,0.2777,0.273,0.267,0.2614,0.2598,0.2579,0.2522,0.2511,0.2511,0.2511,0.2511,0.2511,0.2511,0.0,0.0,0.2511,0.2511,0.2511,0.2511,0.247,0.2392,0.2235,0.2195,0.2119,0.1926,0.1887,0.1887,0.1887,0.1887,0.2024,0.2269,0.2477,0.2655,0.2768,0.2779,0.2812,0.2911,0.2917,0.292,0.292,0.292,0.292,0.292,0.292,0.292,0.2829,0.2154,0.1885,0.1794,0.1121,0.0448,-0.0179,-0.0269,-0.0673,-0.1166,1.0138,0.9864,0.9585,0.9217,0.8931,0.8723,0.8723,0.8633,0.8476,0.8076,0.6962,0.6074,0.5719,0.5186,0.4832,0.4832,0.5053,0.5188,0.5188,0.43,0.3676,0.3454,0.3097,0.292,0.292,0.292,0.292,0.292,0.292,0.292,0.292,0.292,0.292,0.292,0.292,0.292,0.292,0.292,0.292,0.292,0.292,0.292,0.292,0.292,0.292,0.292,0.292,0.292,0.292,0.292,0.292,0.292,0.292,0.292,0.292,0.292,0.292,0.292,0.292,0.2902,0.2884,0.2884,0.2794,0.2743,0.2719,0.2684,0.264,0.2579,0.2567,0.2555,0.2518,0.2511,0.2511,0.2511,0.0,0.2511,0.2511,0.2511,0.2511,0.2511,0.2511,0.247,0.2392,0.2392,0.2354,0.2277,0.2277,0.2251,0.2165,0.2197,0.232,0.2586,0.2672,0.2736,0.2782,0.2822,0.2896,0.292,0.292,0.292,0.292,0.292,0.292,0.292,0.292,0.2649,0.2199,0.193,0.1525,0.1076,0.0807,0.0538,0.0224,-0.0224,-0.0583,-0.0852,1.0376,1.0059,0.978,0.9456,0.912,0.8889,0.8828,0.8723,0.8537,0.8172,0.6697,0.5586,0.5275,0.4431,0.3853,0.3853,0.4431,0.4832,0.4832,0.421,0.3587,0.292,0.292,0.292,0.292,0.292,0.292,0.292,0.292,0.292,0.292,0.292,0.292,0.292,0.292,0.292,0.292,0.292,0.292,0.292,0.292,0.292,0.292,0.292,0.292,0.292,0.292,0.292,0.292,0.292,0.292,0.292,0.292,0.292,0.292,0.292,0.292,0.292,0.292,0.292,0.292,0.292,0.2886,0.2807,0.2788,0.2751,0.2703,0.2643,0.2629,0.261,0.255,0.254,0.2533,0.2514,0.2511,0.2511,0.2511,0.2511,0.2511,0.2511,0.2511,0.2511,0.2511,0.2527,0.254,0.254,0.2556,0.2505,0.2422,0.2477,0.261,0.2782,0.2803,0.2812,0.2812,0.2897,0.292,0.292,0.292,0.292,0.292,0.292,0.292,0.292,0.292,0.2469,0.1794,0.157,0.1031,0.0314,0.0134,0.0045,0.0,-0.0538,-0.0718,-0.0762,1.0507,1.025,0.9971,0.95,0.9214,0.9039,0.8852,0.8824,0.8395,0.7248,0.6299,0.5364,0.4431,0.3499,0.292,0.292,0.292,0.292,0.292,0.292,0.292,0.292,0.292,0.292,0.292,0.292,0.292,0.292,0.292,0.292,0.292,0.292,0.292,0.292,0.292,0.292,0.292,0.292,0.292,0.292,0.292,0.292,0.292,0.292,0.292,0.292,0.292,0.292,0.292,0.292,0.292,0.292,0.292,0.292,0.292,0.292,0.292,0.292,0.292,0.292,0.292,0.292,0.292,0.2903,0.2798,0.2783,0.2766,0.2706,0.2694,0.2674,0.2613,0.2602,0.2582,0.2522,0.2512,0.2512,0.2512,0.2512,0.2512,0.2512,0.2512,0.2512,0.2512,0.2567,0.2602,0.2602,0.2658,0.2694,0.2694,0.2751,0.2783,0.2783,0.2886,0.292,0.292,0.292,0.292,0.292,0.292,0.292,0.292,0.292,0.292,0.292,0.292,0.2469,0.1749,0.0987,0.0269,-0.0493,-0.1121,-0.1391,-0.1391,-0.1391,-0.1391,-0.1391,1.0462,1.0217,0.9934,0.9596,0.9397,0.9306,0.9249,0.8982,0.8664,0.8342,0.7337,0.6561,0.6296,0.5408,0.461,0.3942,0.39,0.3587,0.2963,0.292,0.292,0.292,0.292,0.292,0.292,0.292,0.292,0.292,0.292,0.292,0.292,0.292,0.292,0.292,0.292,0.292,0.292,0.292,0.292,0.292,0.292,0.292,0.292,0.292,0.292,0.292,0.292,0.292,0.292,0.292,0.292,0.292,0.292,0.292,0.292,0.292,0.292,0.292,0.292,0.292,0.292,0.292,0.292,0.2914,0.2896,0.2892,0.283,0.2768,0.2756,0.2737,0.2676,0.2665,0.2659,0.2642,0.2638,0.2638,0.2638,0.2638,0.2638,0.2638,0.2638,0.2638,0.2638,0.2654,0.2665,0.2665,0.2722,0.2756,0.2756,0.2813,0.2892,0.2892,0.2908,0.292,0.292,0.292,0.292,0.292,0.292,0.292,0.292,0.292,0.292,0.292,0.292,0.2199,0.1031,0.0807,0.0,-0.1121,-0.13,-0.1391,-0.1391,-0.1391,-0.1391,-0.1391,1.0462,1.0167,0.992,0.9628,0.9535,0.9437,0.9412,0.9112,0.8905,0.8832,0.7815,0.6962,0.6605,0.5719,0.4788,0.381,0.3765,0.3497,0.2918,0.292,0.292,0.292,0.292,0.292,0.292,0.292,0.292,0.292,0.292,0.292,0.292,0.292,0.292,0.292,0.292,0.292,0.292,0.292,0.292,0.292,0.292,0.292,0.292,0.292,0.292,0.292,0.292,0.292,0.292,0.292,0.292,0.292,0.292,0.292,0.292,0.292,0.292,0.292,0.292,0.292,0.292,0.292,0.292,0.292,0.292,0.292,0.2908,0.2827,0.2819,0.2801,0.2738,0.2728,0.2721,0.2696,0.2692,0.2692,0.2692,0.2692,0.2692,0.2692,0.2692,0.2692,0.2692,0.2714,0.2738,0.2762,0.2798,0.2819,0.2819,0.2899,0.292,0.292,0.292,0.292,0.292,0.292,0.292,0.292,0.292,0.292,0.292,0.292,0.292,0.292,0.292,0.2243,0.1121,0.0807,0.0045,-0.1031,-0.13,-0.1391,-0.1391,-0.1391,-0.1391,-0.1391,1.0462,1.0167,0.9871,0.9628,0.9579,0.9571,0.9453,0.9234,0.9056,0.8869,0.7927,0.6931,0.6033,0.5097,0.4166,0.323,0.3008,0.292,0.292,0.292,0.292,0.292,0.292,0.292,0.292,0.292,0.292,0.292,0.292,0.292,0.292,0.292,0.292,0.292,0.292,0.292,0.292,0.292,0.292,0.292,0.292,0.292,0.292,0.292,0.292,0.292,0.292,0.292,0.292,0.292,0.292,0.292,0.292,0.292,0.292,0.292,0.292,0.292,0.292,0.292,0.292,0.292,0.292,0.292,0.292,0.292,0.292,0.292,0.292,0.2902,0.2801,0.2792,0.2774,0.2718,0.2709,0.2709,0.2709,0.2709,0.2709,0.2709,0.2709,0.2709,0.2709,0.2759,0.2815,0.2914,0.292,0.292,0.292,0.292,0.292,0.292,0.292,0.292,0.292,0.292,0.292,0.292,0.292,0.292,0.292,0.2829,0.2784,0.2784,0.2739,0.2289,0.157,0.0897,0.0179,-0.0538,-0.1166,-0.1391,-0.1391,-0.1391,-0.1391,-0.1391,1.0413,1.0019,0.9677,0.9628,0.9579,0.9567,0.9575,0.9413,0.9286,0.906,0.8695,0.8304,0.8,0.7098,0.6118,0.5188,0.3765,0.292,0.292,0.292,0.292,0.292,0.292,0.292,0.292,0.292,0.292,0.292,0.292,0.292,0.292,0.292,0.292,0.292,0.292,0.292,0.292,0.292,0.292,0.292,0.292,0.292,0.292,0.292,0.292,0.292,0.292,0.292,0.292,0.292,0.292,0.292,0.292,0.292,0.292,0.292,0.292,0.292,0.292,0.292,0.292,0.292,0.292,0.292,0.292,0.292,0.292,0.292,0.292,0.2914,0.2902,0.2899,0.2895,0.2837,0.2835,0.2835,0.2835,0.2835,0.2835,0.2835,0.2835,0.2835,0.2835,0.2892,0.2904,0.2918,0.292,0.292,0.292,0.292,0.292,0.292,0.292,0.292,0.292,0.292,0.292,0.292,0.292,0.292,0.2873,0.2289,0.2019,0.2019,0.1436,0.0762,0.0045,-0.009,-0.0583,-0.1211,-0.1345,-0.1391,-0.1391,-0.1391,-0.1391,-0.1391,1.0413,1.0068,0.9772,0.9628,0.9579,0.9579,0.9579,0.9474,0.9339,0.912,0.8934,0.8575,0.7959,0.7007,0.5852,0.4476,0.3454,0.292,0.292,0.292,0.292,0.292,0.292,0.292,0.292,0.292,0.292,0.292,0.292,0.292,0.292,0.292,0.292,0.292,0.292,0.292,0.292,0.292,0.292,0.292,0.292,0.292,0.292,0.292,0.292,0.292,0.292,0.292,0.292,0.292,0.292,0.292,0.292,0.292,0.292,0.292,0.292,0.292,0.292,0.292,0.292,0.292,0.292,0.292,0.292,0.292,0.292,0.292,0.292,0.292,0.292,0.292,0.292,0.292,0.292,0.292,0.292,0.292,0.292,0.292,0.292,0.292,0.292,0.292,0.292,0.292,0.292,0.292,0.292,0.292,0.292,0.292,0.292,0.292,0.292,0.292,0.292,0.292,0.292,0.2694,0.2379,0.1974,0.1615,0.1256,0.0852,0.0493,0.009,-0.0269,-0.0628,-0.0942,-0.1256,-0.1391,-0.1391,-0.1391,-0.1391,-0.1391,1.0507,1.0216,0.992,0.9727,0.9628,0.9579,0.9579,0.9498,0.9388,0.9165,0.8982,0.8479,0.7505,0.6399,0.4966,0.3053,0.292,0.292,0.292,0.292,0.292,0.292,0.292,0.292,0.292,0.292,0.292,0.292,0.292,0.292,0.292,0.292,0.292,0.292,0.292,0.292,0.292,0.292,0.292,0.292,0.292,0.292,0.292,0.292,0.292,0.292,0.292,0.292,0.292,0.292,0.292,0.292,0.292,0.292,0.292,0.292,0.292,0.292,0.292,0.292,0.292,0.292,0.292,0.292,0.292,0.292,0.292,0.292,0.292,0.292,0.292,0.292,0.292,0.292,0.292,0.292,0.292,0.292,0.292,0.292,0.292,0.292,0.292,0.292,0.292,0.292,0.292,0.292,0.292,0.292,0.292,0.292,0.292,0.292,0.292,0.292,0.292,0.292,0.2784,0.2469,0.1974,0.1705,0.1345,0.0852,0.0493,0.0403,0.0448,-0.0269,-0.0583,-0.0628,-0.1166,-0.1391,-0.1391,-0.1391,-0.1391,-0.1391,1.0752,1.0364,0.9969,0.9969,0.9776,0.9579,0.9579,0.9608,0.9522,0.9392,0.9169,0.8944,0.8623,0.6857,0.4966,0.3053,0.292,0.292,0.292,0.292,0.292,0.292,0.292,0.292,0.292,0.292,0.292,0.292,0.292,0.292,0.292,0.292,0.292,0.292,0.292,0.292,0.292,0.292,0.292,0.292,0.292,0.292,0.292,0.292,0.292,0.292,0.292,0.292,0.292,0.292,0.292,0.292,0.292,0.292,0.292,0.292,0.292,0.292,0.292,0.292,0.292,0.292,0.292,0.292,0.292,0.292,0.292,0.292,0.292,0.292,0.292,0.292,0.292,0.292,0.292,0.292,0.292,0.292,0.292,0.292,0.292,0.292,0.292,0.292,0.292,0.292,0.292,0.292,0.292,0.292,0.292,0.292,0.292,0.292,0.292,0.292,0.292,0.2875,0.2243,0.2243,0.2694,0.1436,0.1121,0.157,-0.0314,-0.0807,-0.0314,-0.0987,-0.1256,-0.1256,-0.1345,-0.1391,-0.1391,-0.1391,-0.1391,-0.1391,1.085,1.0511,1.0167,1.0019,0.9776,0.9579,0.9579,0.9579,0.9563,0.9424,0.9206,0.9027,0.884,0.6956,0.4966,0.3053,0.292,0.292,0.292,0.292,0.292,0.292,0.292,0.292,0.292,0.292,0.292,0.292,0.292,0.292,0.292,0.292,0.292,0.292,0.292,0.292,0.292,0.292,0.292,0.292,0.292,0.292,0.292,0.292,0.292,0.292,0.292,0.292,0.292,0.292,0.292,0.292,0.292,0.292,0.292,0.292,0.292,0.292,0.292,0.292,0.292,0.292,0.292,0.292,0.292,0.292,0.292,0.292,0.292,0.292,0.292,0.292,0.292,0.292,0.292,0.292,0.292,0.292,0.292,0.292,0.292,0.292,0.292,0.292,0.292,0.292,0.292,0.292,0.292,0.292,0.292,0.292,0.292,0.292,0.292,0.292,0.292,0.2875,0.2558,0.2154,0.1615,0.0583,0.0045,0.0,-0.0583,-0.0897,-0.0942,-0.0852,-0.1076,-0.1391,-0.1391,-0.1391,-0.1391,-0.1391,-0.1391,-0.1391]}]]